[[{"header":{"parameterUnit":"m.s-1","parameterCategory":1,"la1":30.6,"la2":28.766,"lo1":-90.7593,"lo2":-88.6598,"dx":0.0162,"dy":0.0183,"nx":116,"ny":114,"refTime":"2023-01-12T06:00:00:Z","depth":0,"parameterNumber":2,"parameterNumberName":"U-component_of_WINDS"},"data":[0.0,0.0,0.0,0.0,0.0,0.0,0.0,0.0,0.0,0.0,0.0,0.0,0.0,0.0,0.0,0.0,0.0,0.0,0.0,0.0,0.0,0.0,0.0,0.0,0.0,0.0,0.0,0.0,0.0,0.0,0.0,0.0,0.0,0.0,0.0,0.0,0.0,0.0,0.0,0.0,0.0,0.0,0.0,0.0,0.0,0.0,0.0,0.0,0.0,0.0,0.0,0.0,0.0,0.0,0.0,0.0,0.0,0.0,0.0,0.0,0.0,0.0,0.0,0.0,0.0,0.0,0.0,0.0,0.0,0.0,0.0,0.0,0.0,0.0,0.0,0.0,0.0,0.0,0.0,0.0,0.0,0.0,0.0,0.0,0.0,0.0,0.0,0.0,0.0,0.0,0.0,0.0,0.0,0.0,0.0,0.0,0.0,0.0,0.0,0.0,0.0,0.0,0.0,0.0,0.0,0.0,0.0,0.0,0.0,0.0,0.0,0.0,0.0,0.0,0.0,0.0,0.0,0.0,0.0,0.0,0.0,0.0,0.0,0.0,0.0,0.0,0.0,0.0,0.0,0.0,0.0,0.0,0.0,0.0,0.0,0.0,0.0,0.0,0.0,0.0,0.0,0.0,0.0,0.0,0.0,0.0,0.0,0.0,0.0,0.0,0.0,0.0,0.0,0.0,0.0,0.0,0.0,0.0,0.0,0.0,0.0,0.0,0.0,0.0,0.0,0.0,0.0,0.0,0.0,0.0,0.0,0.0,0.0,0.0,0.0,0.0,0.0,0.0,0.0,0.0,0.0,0.0,0.0,0.0,0.0,0.0,0.0,0.0,0.0,0.0,0.0,0.0,0.0,0.0,0.0,0.0,0.0,0.0,0.0,0.0,0.0,0.0,0.0,0.0,0.0,0.0,0.0,0.0,0.0,0.0,0.0,0.0,0.0,0.0,0.0,0.0,0.0,0.0,0.0,0.0,0.0,0.0,0.0,0.0,0.0,0.0,0.0,0.0,0.0,0.0,0.0,0.0,0.0,0.0,0.0,0.0,0.0,0.0,0.0,0.0,0.0,0.0,0.0,0.0,0.0,0.0,0.0,0.0,0.0,0.0,0.0,0.0,0.0,0.0,0.0,0.0,0.0,0.0,0.0,0.0,0.0,0.0,0.0,0.0,0.0,0.0,0.0,0.0,0.0,0.0,0.0,0.0,0.0,0.0,0.0,0.0,0.0,0.0,0.0,0.0,0.0,0.0,0.0,0.0,0.0,0.0,0.0,0.0,0.0,0.0,0.0,0.0,0.0,0.0,0.0,0.0,0.0,0.0,0.0,0.0,0.0,0.0,0.0,0.0,0.0,0.0,0.0,0.0,0.0,0.0,0.0,0.0,0.0,0.0,0.0,0.0,0.0,0.0,0.0,0.0,0.0,0.0,0.0,0.0,0.0,0.0,0.0,0.0,0.0,0.0,0.0,0.0,0.0,0.0,0.0,0.0,0.0,0.0,0.0,0.0,0.0,0.0,0.0,0.0,0.0,0.0,0.0,0.0,0.0,0.0,0.0,0.0,0.0,0.0,0.0,0.0,0.0,0.0,0.0,0.0,0.0,0.0,0.0,0.0,0.0,0.0,0.0,0.0,0.0,0.0,0.0,0.0,0.0,0.0,0.0,0.0,0.0,0.0,0.0,0.0,0.0,0.0,0.0,0.0,0.0,0.0,0.0,0.0,0.0,0.0,0.0,0.0,0.0,0.0,0.0,0.0,0.0,0.0,0.0,0.0,0.0,0.0,0.0,0.0,0.0,0.0,0.0,0.0,0.0,0.0,0.0,0.0,0.0,0.0,0.0,0.0,0.0,0.0,0.0,0.0,0.0,0.0,0.0,0.0,0.0,0.0,0.0,0.0,0.0,0.0,0.0,0.0,0.0,0.0,0.0,0.0,0.0,0.0,0.0,0.0,0.0,0.0,0.0,0.0,0.0,0.0,0.0,0.0,0.0,0.0,0.0,0.0,0.0,0.0,0.0,0.0,0.0,0.0,0.0,0.0,0.0,0.0,0.0,0.0,0.0,0.0,0.0,0.0,0.0,0.0,0.0,0.0,0.0,0.0,0.0,0.0,0.0,0.0,0.0,0.0,0.0,0.0,0.0,0.0,0.0,0.0,0.0,0.0,0.0,0.0,0.0,0.0,0.0,0.0,0.0,0.0,0.0,0.0,0.0,0.0,0.0,0.0,0.0,0.0,0.0,0.0,0.0,0.0,0.0,0.0,0.0,0.0,0.0,0.0,0.0,0.0,0.0,0.0,0.0,0.0,0.0,0.0,0.0,0.0,0.0,0.0,0.0,0.0,0.0,0.0,0.0,0.0,0.0,0.0,0.0,0.0,0.0,0.0,0.0,0.0,0.0,0.0,0.0,0.0,0.0,0.0,0.0,0.0,0.0,0.0,0.0,0.0,0.0,0.0,0.0,0.0,0.0,0.0,0.0,0.0,0.0,0.0,0.0,0.0,0.0,0.0,0.0,0.0,0.0,0.0,0.0,0.0,0.0,0.0,0.0,0.0,0.0,0.0,0.0,0.0,0.0,0.0,0.0,0.0,0.0,0.0,0.0,0.0,0.0,0.0,0.0,0.0,0.0,0.0,0.0,0.0,0.0,0.0,0.0,0.0,0.0,0.0,0.0,0.0,0.0,0.0,0.0,0.0,0.0,0.0,0.0,0.0,0.0,0.0,0.0,0.0,0.0,0.0,0.0,0.0,0.0,0.0,0.0,0.0,0.0,0.0,0.0,0.0,0.0,0.0,0.0,0.0,0.0,0.0,0.0,0.0,0.0,0.0,0.0,0.0,0.0,0.0,0.0,0.0,0.0,0.0,0.0,0.0,0.0,0.0,0.0,0.0,0.0,0.0,0.0,0.0,0.0,0.0,0.0,0.0,0.0,0.0,0.0,0.0,0.0,0.0,0.0,0.0,0.0,0.0,0.0,0.0,0.0,0.0,0.0,0.0,0.0,0.0,0.0,0.0,0.0,0.0,0.0,0.0,0.0,0.0,0.0,0.0,0.0,0.0,0.0,0.0,0.0,0.0,0.0,0.0,0.0,0.0,0.0,0.0,0.0,0.0,0.0,0.0,0.0,0.0,0.0,0.0,0.0,0.0,0.0,0.0,0.0,0.0,0.0,0.0,0.0,0.0,0.0,0.0,0.0,0.0,0.0,0.0,0.0,0.0,0.0,0.0,0.0,0.0,0.0,0.0,0.0,0.0,0.0,0.0,0.0,0.0,0.0,0.0,0.0,0.0,0.0,0.0,0.0,0.0,0.0,0.0,0.0,0.0,0.0,0.0,0.0,0.0,0.0,0.0,0.0,0.0,0.0,0.0,0.0,0.0,0.0,0.0,0.0,0.0,0.0,0.0,0.0,0.0,0.0,0.0,0.0,0.0,0.0,0.0,0.0,0.0,0.0,0.0,0.0,0.0,0.0,0.0,0.0,0.0,0.0,0.0,0.0,0.0,0.0,0.0,0.0,0.0,0.0,0.0,0.0,0.0,0.0,0.0,0.0,0.0,0.0,0.0,0.0,0.0,0.0,0.0,0.0,0.0,0.0,0.0,0.0,0.0,0.0,0.0,0.0,0.0,0.0,0.0,0.0,0.0,0.0,0.0,0.0,0.0,0.0,0.0,0.0,0.0,0.0,0.0,0.0,0.0,0.0,0.0,0.0,0.0,0.0,0.0,0.0,0.0,0.0,0.0,0.0,0.0,0.0,0.0,0.0,0.0,0.0,0.0,0.0,0.0,0.0,0.0,0.0,0.0,0.0,0.0,0.0,0.0,0.0,0.0,0.0,0.0,0.0,0.0,0.0,0.0,0.0,0.0,0.0,0.0,0.0,0.0,0.0,0.0,0.0,0.0,0.0,0.0,0.0,0.0,0.0,0.0,0.0,0.0,0.0,0.0,0.0,0.0,0.0,0.0,0.0,0.0,0.0,0.0,0.0,0.0,0.0,0.0,0.0,0.0,0.0,0.0,0.0,0.0,0.0,0.0,0.0,0.0,0.0,0.0,0.0,0.0,0.0,0.0,0.0,0.0,0.0,0.0,0.0,0.0,0.0,0.0,0.0,0.0,0.0,0.0,0.0,0.0,0.0,0.0,0.0,0.0,0.0,0.0,0.0,0.0,0.0,0.0,0.0,0.0,0.0,0.0,0.0,0.0,0.0,0.0,0.0,0.0,0.0,0.0,0.0,0.0,0.0,0.0,0.0,0.0,0.0,0.0,0.0,0.0,0.0,0.0,0.0,0.0,0.0,0.0,0.0,0.0,0.0,0.0,0.0,0.0,0.0,0.0,0.0,0.0,0.0,0.0,0.0,0.0,0.0,0.0,0.0,0.0,0.0,0.0,0.0,0.0,0.0,0.0,0.0,0.0,0.0,0.0,0.0,0.0,0.0,0.0,0.0,0.0,0.0,0.0,0.0,0.0,0.0,0.0,0.0,0.0,0.0,0.0,0.0,0.0,0.0,0.0,0.0,0.0,0.0,0.0,0.0,0.0,0.0,0.0,0.0,0.0,0.0,0.0,0.0,0.0,0.0,0.0,0.0,0.0,0.0,0.0,0.0,0.0,0.0,0.0,0.0,0.0,0.0,0.0,0.0,0.0,0.0,0.0,0.0,0.0,0.0,0.0,0.0,0.0,0.0,0.0,0.0,0.0,0.0,0.0,0.0,0.0,0.0,0.0,0.0,0.0,0.0,0.0,0.0,0.0,0.0,0.0,0.0,0.0,0.0,0.0,0.0,0.0,0.0,0.0,0.0,0.0,0.0,0.0,0.0,0.0,0.0,0.0,0.0,0.0,0.0,0.0,0.0,0.0,0.0,0.0,0.0,0.0,0.0,0.0,0.0,0.0,0.0,0.0,0.0,0.0,0.0,0.0,0.0,0.0,0.0,0.0,0.0,0.0,0.0,0.0,0.0,0.0,0.0,0.0,0.0,0.0,0.0,0.0,0.0,0.0,0.0,0.0,0.0,0.0,0.0,0.0,0.0,0.0,0.0,0.0,0.0,0.0,0.0,0.0,0.0,0.0,0.0,0.0,0.0,0.0,0.0,0.0,0.0,0.0,0.0,0.0,0.0,0.0,0.0,0.0,0.0,0.0,0.0,0.0,0.0,0.0,0.0,0.0,0.0,0.0,0.0,0.0,0.0,0.0,0.0,0.0,0.0,0.0,0.0,0.0,0.0,0.0,0.0,0.0,0.0,0.0,0.0,0.0,0.0,0.0,0.0,0.0,0.0,0.0,0.0,0.0,0.0,0.0,0.0,0.0,0.0,0.0,0.0,0.0,0.0,0.0,0.0,0.0,0.0,0.0,0.0,0.0,0.0,0.0,0.0,0.0,0.0,0.0,0.0,0.0,0.0,0.0,0.0,0.0,0.0,0.0,0.0,0.0,0.0,0.0,0.0,0.0,0.0,0.0,0.0,0.0,0.0,0.0,0.0,0.0,0.0,0.0,0.0,0.0,0.0,0.0,0.0,0.0,0.0,0.0,0.0,0.0,0.0,0.0,0.0,0.0,0.0,0.0,0.0,0.0,0.0,0.0,0.0,0.0,0.0,0.0,0.0,0.0,0.0,0.0,0.0,0.0,0.0,0.0,0.0,0.0,0.0,0.0,0.0,0.0,0.0,0.0,0.0,0.0,0.0,0.0,0.0,0.0,0.0,0.0,0.0,0.0,0.0,0.0,0.0,0.0,0.0,0.0,0.0,0.0,0.0,0.0,0.0,0.0,0.0,0.0,0.0,0.0,0.0,0.0,0.0,0.0,0.0,0.0,0.0,0.0,0.0,0.0,0.0,0.0,0.0,0.0,0.0,0.0,0.0,0.0,0.0,0.0,0.0,0.0,0.0,0.0,0.0,0.0,0.0,0.0,0.0,0.0,0.0,0.0,0.0,0.0,0.0,0.0,0.0,0.0,0.0,0.0,0.0,0.0,0.0,0.0,0.0,0.0,0.0,0.0,0.0,0.0,0.0,0.0,0.0,0.0,0.0,0.0,0.0,0.0,0.0,0.0,0.0,0.0,0.0,0.0,0.0,0.0,0.0,0.0,0.0,0.0,0.0,0.0,0.0,0.0,-6.936,-6.8385,0.0,0.0,0.0,0.0,0.0,0.0,0.0,0.0,0.0,0.0,0.0,0.0,0.0,0.0,0.0,0.0,0.0,0.0,0.0,0.0,0.0,0.0,0.0,0.0,0.0,0.0,0.0,0.0,0.0,0.0,0.0,0.0,0.0,0.0,-5.918,-5.8566,-5.8454,-5.8883,-5.9515,-6.0422,-6.159,-6.1095,-6.0265,-5.9156,0.0,0.0,0.0,0.0,0.0,0.0,0.0,0.0,0.0,0.0,0.0,0.0,0.0,0.0,0.0,0.0,0.0,0.0,0.0,0.0,0.0,0.0,0.0,0.0,0.0,0.0,0.0,0.0,0.0,0.0,0.0,0.0,0.0,0.0,0.0,0.0,0.0,0.0,0.0,0.0,0.0,0.0,0.0,0.0,0.0,0.0,0.0,0.0,0.0,0.0,0.0,0.0,0.0,0.0,0.0,0.0,0.0,0.0,0.0,0.0,0.0,0.0,0.0,0.0,0.0,0.0,0.0,0.0,0.0,0.0,-7.0167,-6.959,0.0,0.0,0.0,0.0,0.0,0.0,0.0,0.0,0.0,0.0,0.0,0.0,0.0,0.0,0.0,0.0,0.0,0.0,0.0,0.0,0.0,0.0,0.0,0.0,-6.2148,-6.2148,-6.2148,-6.1836,0.0,0.0,0.0,0.0,0.0,0.0,-5.9844,-5.9495,-5.9521,-5.9992,-6.1237,-6.2495,-6.3782,-6.4474,-6.3361,-6.0751,-5.9804,0.0,0.0,0.0,0.0,0.0,0.0,0.0,0.0,0.0,0.0,0.0,0.0,0.0,0.0,0.0,0.0,0.0,0.0,0.0,0.0,0.0,0.0,0.0,0.0,0.0,0.0,0.0,0.0,0.0,0.0,0.0,0.0,0.0,0.0,0.0,0.0,0.0,0.0,0.0,0.0,0.0,0.0,0.0,0.0,0.0,0.0,0.0,0.0,0.0,0.0,0.0,0.0,0.0,0.0,0.0,0.0,0.0,0.0,0.0,0.0,0.0,0.0,0.0,-7.0898,-7.0975,-7.1129,-7.1129,-7.1206,-7.136,-7.136,-7.1168,-7.0898,-7.0898,0.0,0.0,0.0,0.0,0.0,0.0,0.0,0.0,0.0,0.0,0.0,0.0,0.0,0.0,0.0,0.0,0.0,0.0,0.0,0.0,0.0,-6.3515,-6.3945,-6.3945,-6.3945,-6.3906,0.0,0.0,0.0,0.0,0.0,-6.0937,-6.2461,-6.1467,-6.2001,-6.4265,-6.4927,-6.5358,-6.5551,-6.5667,-6.5499,-6.5036,-6.414,-6.2974,-6.1601,0.0,0.0,0.0,0.0,0.0,0.0,0.0,0.0,0.0,0.0,0.0,0.0,0.0,0.0,0.0,0.0,0.0,0.0,0.0,0.0,0.0,0.0,0.0,0.0,0.0,0.0,0.0,0.0,0.0,0.0,0.0,0.0,0.0,0.0,0.0,0.0,0.0,0.0,0.0,0.0,0.0,-6.9821,-7.0667,0.0,0.0,0.0,0.0,0.0,0.0,0.0,0.0,0.0,0.0,0.0,0.0,0.0,-7.0898,-7.0898,-7.0898,-7.0898,-7.0898,-7.0898,-7.1283,-7.2014,-7.2014,-7.2437,-7.3168,-7.3168,0.0,-7.0898,-7.0898,0.0,0.0,0.0,0.0,0.0,0.0,0.0,0.0,0.0,0.0,0.0,0.0,0.0,0.0,0.0,0.0,0.0,0.0,0.0,0.0,0.0,-6.4492,-6.5039,-6.5039,-6.5469,-6.5547,-6.5078,-6.4687,0.0,0.0,-6.3008,-6.2969,-6.3711,-6.3149,-6.4009,-6.6406,-6.7,-6.7552,-6.8052,-6.8052,-6.7782,-6.7321,-6.7436,-6.5705,-6.282,-6.3281,0.0,0.0,0.0,0.0,0.0,0.0,0.0,0.0,0.0,0.0,0.0,0.0,0.0,0.0,0.0,0.0,0.0,0.0,0.0,0.0,0.0,0.0,0.0,0.0,0.0,0.0,0.0,0.0,0.0,0.0,0.0,0.0,0.0,0.0,0.0,0.0,0.0,0.0,0.0,-7.0129,-7.0514,-7.086,-7.0514,-7.0398,0.0,0.0,0.0,0.0,0.0,0.0,0.0,0.0,0.0,-7.0898,-7.136,-7.1629,-7.1629,-7.2129,-7.236,-7.236,-7.236,-7.2552,-7.2937,-7.2937,-7.3129,-7.3514,-7.3514,-7.3091,-7.2322,-7.1822,-7.1629,-7.1591,0.0,0.0,0.0,0.0,-7.0898,-7.0937,0.0,0.0,0.0,0.0,0.0,0.0,0.0,0.0,0.0,0.0,0.0,0.0,-6.5312,-6.6445,-6.7226,-6.7226,-6.7812,-6.7812,-6.6953,-6.6719,0.0,-6.5,-6.4765,-6.4726,-6.4961,-6.5426,-6.6346,-6.7736,-6.8408,-6.9052,-6.9706,-6.9706,-6.936,-6.8783,-6.9398,-6.7821,-6.4628,-6.5051,-6.4859,-6.4166,0.0,0.0,0.0,0.0,0.0,0.0,0.0,0.0,0.0,0.0,0.0,0.0,0.0,0.0,0.0,0.0,0.0,0.0,0.0,0.0,0.0,0.0,0.0,0.0,0.0,0.0,0.0,0.0,0.0,0.0,0.0,0.0,0.0,0.0,0.0,0.0,0.0,-7.0898,-7.0898,-7.0898,-7.036,-7.0244,0.0,0.0,0.0,0.0,0.0,0.0,-7.1206,-7.1245,-7.1321,-7.1552,-7.2206,-7.2514,-7.2514,-7.3168,-7.3514,-7.3514,-7.3514,-7.363,-7.3822,-7.3822,-7.3937,-7.413,-7.413,-7.413,-7.4053,-7.2976,-7.2514,-7.2476,-7.1822,-7.1591,-7.1591,-7.1591,-7.1591,-7.1668,0.0,0.0,0.0,0.0,0.0,0.0,0.0,0.0,0.0,0.0,0.0,-6.8008,-6.8008,-7.0195,-7.168,-7.168,-7.1719,-7.1367,-7.0508,-6.9687,-6.8476,-6.6836,-6.5976,-6.5937,-6.6758,-6.883,-6.9492,-6.8646,-6.9295,-6.9667,-6.9706,-6.9706,-6.9667,-6.9629,-6.9667,-6.9129,-6.809,-6.7321,-6.6936,-6.6705,0.0,0.0,0.0,0.0,0.0,0.0,0.0,0.0,0.0,0.0,0.0,0.0,0.0,0.0,0.0,0.0,0.0,0.0,0.0,0.0,0.0,0.0,0.0,0.0,0.0,0.0,0.0,0.0,0.0,0.0,0.0,0.0,0.0,0.0,0.0,0.0,0.0,0.0,0.0,-7.0898,-7.086,0.0,0.0,0.0,0.0,-7.0898,-7.0898,-7.1245,-7.2091,-7.2129,-7.2514,-7.336,-7.3399,-7.3437,-7.3437,-7.3476,-7.3514,-7.3514,-7.3514,-7.3899,-7.463,-7.463,-7.5091,-7.5861,-7.5861,-7.5861,-7.5745,-7.413,-7.3437,-7.3437,-7.3399,-7.336,-7.336,-7.336,-7.336,-7.3399,0.0,0.0,0.0,-6.4899,-6.4965,-6.4961,-6.4375,-6.4765,-6.5351,-6.5898,-6.7734,-6.918,-6.9765,-7.1601,-7.2851,-7.2851,-7.3359,-7.3281,-7.2422,-7.1562,-7.0547,-6.9414,-6.8515,-6.8203,-6.8555,-6.9644,-7.0003,-6.9663,-7.0201,-7.0475,-7.0475,-7.0475,-7.0475,-7.0475,-7.0475,-7.0283,-6.9937,-6.9129,-6.8436,-6.7859,-6.6974,-6.6128,0.0,0.0,0.0,0.0,0.0,0.0,0.0,0.0,0.0,0.0,0.0,0.0,0.0,0.0,0.0,0.0,0.0,0.0,0.0,0.0,0.0,0.0,0.0,0.0,0.0,0.0,0.0,0.0,0.0,0.0,0.0,0.0,0.0,0.0,0.0,0.0,0.0,-7.0898,-7.0437,0.0,-7.086,-7.0898,-7.1129,-7.1668,-7.2245,-7.2706,-7.3014,-7.3053,-7.3168,-7.35,-7.4014,-7.4284,-7.4284,-7.4822,-7.513,-7.513,-7.513,-7.5245,-7.5553,-7.613,-7.6553,-7.6861,-7.7361,-7.7592,-7.7553,-7.6938,-7.5745,-7.4207,-7.3707,-7.3514,-7.3514,-7.3514,-7.3514,-7.3514,0.0,0.0,0.0,-6.5706,-6.5806,-6.5854,-6.5664,-6.6094,-6.6875,-6.8047,-6.9648,-7.1055,-7.1914,-7.3555,-7.4609,-7.4609,-7.5156,-7.4961,-7.3828,-7.3203,-7.2226,-7.0742,-7.043,-7.0312,-7.0351,-7.0814,-7.0933,-7.0654,-7.0799,-7.0898,-7.0898,-7.0898,-7.0898,-7.0898,-7.0898,-7.0898,-7.086,-7.0321,-6.9783,-6.9206,-6.8615,-6.7898,-6.709,0.0,0.0,0.0,0.0,0.0,0.0,0.0,0.0,0.0,0.0,0.0,0.0,0.0,0.0,0.0,0.0,0.0,0.0,0.0,0.0,0.0,0.0,0.0,0.0,0.0,0.0,0.0,0.0,0.0,0.0,0.0,0.0,0.0,0.0,-7.0898,-7.1014,-7.1283,-7.086,-7.086,-7.1706,-7.1783,-7.2014,-7.2591,-7.3168,-7.363,-7.3899,-7.3899,-7.4053,-7.4322,-7.4861,-7.513,-7.513,-7.5707,-7.613,-7.6438,-7.6438,-7.6592,-7.6861,-7.7438,-7.7707,-7.7707,-7.8246,-7.8477,-7.8477,-7.8477,-7.7515,-7.5938,-7.5399,-7.5207,-7.5207,-7.5207,-7.5207,-7.5207,0.0,0.0,-6.6251,-6.6572,-6.6613,-6.6993,-6.8046,-6.8203,-6.8828,-7.0508,-7.2226,-7.3633,-7.4531,-7.6172,-7.7187,-7.7187,-7.7187,-7.6484,-7.4765,-7.4609,-7.3476,-7.0898,-7.1601,-7.207,-7.207,-7.2544,-7.2393,-7.1569,-7.112,-7.0912,-7.0912,-7.095,-7.095,-7.0898,-7.095,-7.095,-7.0898,-7.0898,-7.0898,-7.0744,-6.9129,-6.8975,-6.9629,0.0,0.0,0.0,0.0,0.0,0.0,0.0,0.0,0.0,0.0,0.0,0.0,0.0,0.0,0.0,0.0,0.0,0.0,0.0,0.0,0.0,0.0,0.0,0.0,0.0,0.0,0.0,0.0,0.0,0.0,0.0,0.0,0.0,-7.0937,-7.0937,-7.1245,-7.2129,-7.2245,-7.2552,-7.3437,-7.3514,-7.3538,-7.3538,-7.3553,-7.3937,-7.4707,-7.4745,-7.513,-7.5976,-7.6015,-7.6053,-7.6053,-7.6053,-7.6515,-7.7323,-7.7323,-7.7746,-7.8477,-7.8515,-7.8515,-7.8515,-7.8554,-7.8592,-7.8592,-7.8592,-7.8592,-7.8569,-7.853,-7.8477,-7.8477,-7.8477,-7.8477,-7.8477,-6.8282,-6.7553,-6.7076,-6.7168,-6.7364,-6.764,-6.7935,-6.8627,-6.9726,-7.1406,-7.2617,-7.3867,-7.539,-7.6523,-7.7187,-7.7187,-7.7187,-7.6719,-7.5625,-7.4961,-7.3984,-7.2656,0.0,-7.3906,-7.3906,-7.3273,-7.2821,-7.2587,-7.1607,-7.1104,-7.1142,-7.1772,-7.1656,-7.0912,-7.1707,-7.1644,-7.0898,-7.0898,-7.0898,-7.086,-7.0398,-7.0014,-6.9667,0.0,0.0,0.0,0.0,0.0,0.0,0.0,0.0,0.0,0.0,0.0,0.0,0.0,0.0,0.0,0.0,0.0,0.0,0.0,0.0,0.0,0.0,0.0,0.0,0.0,0.0,0.0,0.0,0.0,0.0,0.0,-7.1437,-7.1822,-7.1822,-7.1822,-7.2168,-7.3053,-7.3129,-7.3245,-7.3476,-7.4053,-7.4361,-7.4361,-7.4976,-7.5399,-7.563,-7.563,-7.5745,-7.5976,-7.6592,-7.6938,-7.6938,-7.7515,-7.7938,-7.8169,-7.8169,-7.8299,-7.853,-7.9131,-7.9438,-7.9477,-8.0092,-8.04,-8.04,-8.04,-8.04,-8.0246,-7.8977,-7.8477,-7.8477,-7.8477,-7.8477,-7.8477,-6.9052,-6.8357,-6.7823,-6.79,-6.8143,-6.8483,-6.8915,-6.9558,-7.0742,-7.2812,-7.3515,-7.4492,-7.625,-7.6914,-7.7187,-7.7187,-7.6875,-7.6289,-7.539,-7.4531,-7.414,-7.4375,0.0,-7.5156,-7.5156,-7.4816,-7.4467,-7.4077,-7.3664,-7.3109,-7.2401,-7.3264,-7.2958,-7.17,-7.2267,-7.2153,-7.1542,-7.1466,-7.1245,-7.0937,-7.1283,-7.0937,-7.0206,-7.0206,-6.9898,-6.9436,-6.9436,-6.9783,-7.0167,-7.0052,0.0,0.0,0.0,0.0,0.0,0.0,0.0,0.0,0.0,0.0,0.0,0.0,0.0,0.0,0.0,0.0,0.0,0.0,0.0,0.0,0.0,0.0,0.0,0.0,-7.2168,-7.286,-7.3206,-7.2976,-7.3053,-7.3899,-7.4014,-7.4168,-7.4514,-7.4976,-7.5245,-7.5245,-7.5707,-7.6169,-7.6515,-7.6553,-7.6707,-7.7053,-7.7553,-7.7784,-7.7784,-7.8246,-7.8669,-7.9054,-7.9054,-7.9246,-7.9592,-8.0092,-8.0323,-8.0362,-8.09,-8.1093,-8.1093,-8.1093,-8.1093,-8.1016,0.0,0.0,0.0,0.0,-7.9592,-7.9592,-6.986,-6.9129,-6.8603,-6.8706,-6.8899,-6.9337,-7.0329,-7.0644,-7.1718,-7.4258,-7.4609,-7.5273,-7.6992,-7.7187,-7.7187,-7.7187,-7.6406,-7.5547,-7.4648,-7.4062,-7.4414,-7.5976,-7.6211,-7.6328,-7.6328,-7.6814,-7.6708,-7.5927,-7.6404,-7.582,-7.4334,-7.5236,-7.4756,-7.3236,-7.3156,-7.3026,-7.2822,-7.27,-7.2159,-7.1427,-7.2311,-7.1937,-7.0898,-7.0898,-7.0898,-7.0898,-7.0898,-7.0975,-7.1168,-7.1822,0.0,0.0,0.0,0.0,0.0,0.0,0.0,0.0,0.0,0.0,0.0,0.0,0.0,0.0,0.0,0.0,0.0,0.0,0.0,0.0,0.0,0.0,0.0,0.0,-7.3091,-7.3899,-7.4591,-7.4168,-7.4053,-7.4784,-7.4861,-7.5168,-7.5938,-7.6015,-7.6015,-7.6015,-7.6092,-7.6476,-7.7246,-7.74,0.0,0.0,0.0,-7.8631,-7.8631,-7.8746,-7.9169,-7.9939,-7.9939,-8.0362,-8.1093,-8.1093,-8.1093,-8.1093,-8.1093,-8.1093,-8.1093,-8.1208,-8.1285,-8.1362,-8.117,-8.1093,-8.1093,-8.1093,-8.1093,-8.1093,-7.0667,-7.0014,-6.945,-6.9477,-6.9607,-6.983,-7.0194,-7.0953,-7.2241,-7.4335,-7.4609,-7.5273,-7.6992,-7.7187,-7.7187,-7.7187,-7.6406,-7.5547,-7.4648,-7.5742,-7.6601,-7.6914,-7.8242,-7.8984,-7.8984,-7.8475,-7.8123,-7.7927,-7.7218,-7.6669,-7.6353,-7.7215,-7.7009,-7.5917,-7.6716,-7.6226,-7.4787,-7.5273,-7.4989,-7.4259,-7.4987,-7.3514,-7.0898,-7.0898,-7.0898,-7.0898,-7.0898,-7.136,-7.186,-7.1321,-7.2091,-7.3168,-7.2629,0.0,0.0,0.0,0.0,0.0,0.0,0.0,0.0,0.0,0.0,0.0,0.0,0.0,0.0,0.0,0.0,0.0,0.0,0.0,0.0,-7.3245,-7.3937,-7.4514,-7.4668,-7.5168,-7.5553,-7.5745,-7.5745,-7.5822,-7.5976,-7.6015,-7.6015,-7.6015,-7.663,-7.713,-7.7284,-7.79,-7.8323,-7.8477,-7.9169,-7.9554,-7.9554,-8.0246,-8.0669,-8.0862,-8.0862,0.0,-8.1093,-8.1093,-8.1093,-8.1093,-8.1093,-8.1093,-8.1131,-8.1785,-8.2477,-8.2978,-8.1631,-8.1093,-8.1093,-8.1093,-8.1093,-8.1093,-7.0898,-7.0591,-7.0283,-7.0283,-7.0444,-7.0612,-7.0834,-7.1346,-7.2227,-7.3749,-7.3945,-7.4453,-7.5742,-7.5898,-7.5898,-7.5898,-7.5898,-7.5703,-7.5273,-7.6875,-7.8047,-7.8437,-7.9258,-7.9687,-7.9687,-7.9726,-7.9765,-7.9765,-7.9641,-7.9164,-7.8305,-7.9203,-7.8877,-7.7554,-7.8022,-7.7645,-7.676,-7.7011,-7.66,-7.5844,-7.6525,-7.5542,-7.356,-7.302,-7.2552,-7.2206,-7.2206,-7.2476,-7.286,-7.2822,-7.3399,-7.4091,-7.4091,-7.4091,-7.3937,0.0,0.0,0.0,0.0,0.0,0.0,0.0,0.0,0.0,0.0,0.0,0.0,0.0,0.0,-7.2976,-7.3437,0.0,-7.4091,-7.4091,-7.4822,-7.5361,-7.5361,-7.5745,-7.6015,-7.6015,-7.6015,-7.6015,-7.6015,-7.6399,-7.663,-7.663,-7.7438,-7.8092,-7.8515,-7.8938,-7.9361,-7.9785,-8.0208,-8.0439,-8.0439,-8.1285,-8.1708,-8.1708,-8.1708,-8.1708,-8.1708,-8.1285,-8.1323,-8.1708,-8.1708,-8.1939,-8.2362,-8.2785,-8.3208,-8.3516,-8.267,-8.2362,-8.2285,-8.1862,-8.1708,-8.1708,-7.0898,-7.0898,-7.0898,-7.0898,-7.1053,-7.1213,-7.1449,-7.1594,-7.2054,-7.3163,-7.3281,-7.3633,-7.4492,-7.4609,-7.4531,-7.4375,-7.5469,-7.6094,-7.5898,-7.7851,-7.9297,-7.9922,-8.0117,-8.0195,-8.0195,-8.0898,-8.125,-8.125,-8.1953,-8.1562,-8.0234,-8.0937,-8.0547,-7.9219,-7.9083,-7.8906,-7.8744,-7.8709,-7.8176,-7.7462,-7.8136,-7.7842,-7.6953,-7.6096,-7.5008,-7.4014,-7.4014,-7.4014,-7.4091,-7.4745,-7.5091,-7.5322,-7.6015,-7.5784,-7.5014,-7.4014,-7.3245,0.0,0.0,0.0,0.0,0.0,0.0,0.0,0.0,0.0,-7.3538,-7.3707,-7.3745,-7.3783,-7.3937,-7.4514,-7.4938,-7.4938,-7.5553,-7.6015,-7.6015,-7.6015,-7.6053,-7.6245,-7.6245,-7.6245,-7.6245,-7.7015,-7.7515,-7.7515,-7.8284,-7.9054,-7.9746,-7.9977,-8.0362,-8.1093,-8.1246,-8.1323,-8.1323,-8.2131,-8.2554,-8.2554,-8.2554,-8.2631,-8.2785,-8.2131,-8.2208,-8.2785,-8.2631,-8.3054,-8.3862,-8.3862,-8.3939,-8.4093,-8.4093,-8.417,-8.417,-8.2978,-8.267,-8.2824,-7.0898,-7.0898,-7.0898,-7.0898,-7.0925,-7.105,-7.1427,-7.1498,-7.197,-7.3123,-7.3281,-7.3633,-7.4492,-7.4609,-7.4297,-7.3515,-7.5664,-7.6719,-7.5937,-7.8945,-8.0742,-8.0859,-8.1601,-8.1992,-8.1992,-8.2109,-8.2148,-8.2148,-8.2265,-8.2187,-8.1992,-8.2109,-8.2031,-8.1875,-8.1835,-8.1405,-8.0701,-8.1314,-8.1039,-8.0285,-8.0953,-8.0592,-7.9664,-7.9552,-7.7936,-7.5707,-7.5707,-7.5707,-7.5745,-7.5822,-7.6361,-7.7015,-7.713,-7.7092,-7.6669,-7.5053,0.0,-7.4091,-7.2476,-7.2629,-7.3245,-7.3322,-7.336,-7.3399,0.0,-7.3514,-7.3707,-7.4437,-7.4591,-7.4822,-7.5592,-7.5784,-7.5861,-7.5861,-7.5938,-7.6015,-7.6015,-7.6015,-7.6284,-7.7053,-7.713,-7.713,-7.713,-7.79,-7.8361,-7.8361,-7.9169,-7.9708,-7.9785,-8.0516,-8.1016,-8.1093,-8.1785,-8.217,-8.217,-8.3016,-8.3439,-8.3439,-8.3439,-8.3862,-8.4632,-8.4516,-8.4516,-8.4555,-8.3785,-8.3939,-8.4747,-8.4747,-8.517,-8.5824,-8.5824,-8.6286,-8.6671,-8.4324,-8.3939,-8.4632,-7.1014,-7.0898,-7.0898,-7.0898,-7.0898,-7.0991,-7.129,-7.1404,-7.1722,-7.2271,-7.2457,-7.2695,-7.3047,-7.3086,-7.293,-7.2578,-7.539,-7.7031,-7.668,-7.9844,-8.1758,-8.1758,-8.2109,-8.2304,-8.2304,-8.2304,-8.2304,-8.2304,-8.2304,-8.2304,-8.2304,-8.2304,-8.2304,-8.2304,-8.2304,-8.2109,-8.1758,-8.2063,-8.1978,-8.1662,-8.1811,-8.1604,-8.1173,-8.1092,-8.0311,-7.9089,-7.7379,-7.6746,0.0,0.0,-7.6976,-7.7361,-7.7861,-7.7669,-7.7053,-7.5822,-7.5091,0.0,-7.3283,-7.3206,-7.363,-7.4091,-7.4207,-7.4322,-7.4861,-7.4938,-7.5053,-7.5399,-7.5476,-7.5553,-7.5938,-7.6015,-7.6015,-7.6015,-7.6015,-7.6169,-7.6669,-7.6746,-7.7053,-7.79,-7.8438,-7.8554,-7.8054,-7.8746,-7.9246,-7.9246,-8.0054,-8.0554,-8.0554,-8.1362,-8.1785,-8.1785,-8.2631,-8.3054,-8.3054,-8.3901,-8.4362,-8.4362,-8.4824,-8.5247,-8.5593,-8.5593,-8.5901,-8.6363,-8.6517,-8.6748,-8.7094,-8.7094,-8.7325,-8.7594,-8.7594,-8.7825,-8.7902,-8.5824,-8.5593,-8.6363,-7.1745,-7.1629,-7.1552,-7.1283,-7.1245,-7.1249,-7.1218,-7.1348,-7.1543,-7.1679,-7.1864,-7.1992,-7.1992,-7.1992,-7.1992,-7.1992,-7.4961,-7.6953,-7.7187,-8.0195,-8.2031,-8.2304,-8.2304,-8.2304,-8.2304,-8.2304,-8.2304,-8.2304,-8.2304,-8.2304,-8.2304,-8.2304,-8.2304,-8.2304,-8.2304,-8.2304,-8.2304,-8.2304,-8.2304,-8.2304,-8.2127,-8.2053,-8.1984,-8.185,-8.1615,-8.1048,-7.8875,-7.8073,0.0,0.0,-7.763,-7.7707,-7.8323,-7.7938,-7.713,-7.6245,-7.5399,-7.463,-7.4284,0.0,0.0,-7.4899,-7.5053,-7.5207,-7.5861,-7.6015,-7.6015,-7.6015,-7.6015,-7.6015,-7.6015,-7.6207,-7.6361,-7.6361,-7.6553,-7.6899,-7.7553,-7.763,-7.7938,-7.8746,-7.9438,-7.9669,-7.9246,-7.9785,-8.0169,-8.0169,-8.0746,-8.1208,-8.14,-8.1977,-8.2401,-8.2631,-8.3478,-8.3939,-8.3939,-8.5055,-8.5593,-8.5593,-8.644,-8.694,-8.7171,-8.7171,-8.7478,-8.8094,-8.8517,-8.8709,-8.8709,-8.8709,-8.8709,-8.8709,-8.8709,-8.8825,-8.8863,-8.7594,-8.7555,-8.8094,-7.3423,-7.3437,-7.3168,-7.2322,-7.2168,-7.1942,-7.1296,-7.1348,-7.1543,-7.1679,-7.1864,-7.1992,-7.1992,-7.1992,-7.1992,-7.1992,-7.4414,-7.6289,-7.7148,-7.9609,-8.1406,-8.2265,-8.2304,-8.2304,-8.2304,-8.2304,-8.2304,-8.2304,-8.2304,-8.2304,-8.2304,-8.2304,-8.2304,-8.2304,-8.2304,-8.2304,-8.2304,-8.2304,-8.2304,-8.2304,-8.2304,-8.2173,-8.1992,-8.1988,-8.136,-8.0403,-8.0112,0.0,0.0,0.0,-7.8453,-7.8492,-7.8477,-7.7938,-7.713,-7.6245,-7.5399,-7.4899,-7.5707,0.0,-7.5938,-7.5938,-7.5976,-7.5976,-7.5976,-7.6015,-7.6015,-7.6015,-7.6015,-7.6015,-7.6015,-7.6669,-7.7246,-7.7246,-7.79,-7.8438,-7.8453,-7.8453,-7.8784,-7.9669,-7.9785,-8.0131,-8.0939,-8.1054,-8.1054,-8.1054,-8.1093,-8.1439,-8.2208,-8.2285,-8.267,-8.3516,-8.4401,-8.4863,-8.4863,-8.6517,-8.7325,-8.7325,-8.8209,-8.9017,-8.9787,-8.9787,-8.9825,-8.9787,-8.9017,-8.8709,-8.8709,-8.8709,-8.8709,-8.8709,-8.8709,-8.9171,-8.9863,-8.9825,-8.9825,-8.9825,-7.3577,-7.3514,-7.3399,-7.3129,-7.3053,-7.2786,-7.1981,-7.1528,-7.1356,-7.1549,-7.1802,0.0,0.0,0.0,0.0,0.0,-7.4375,-7.6015,-7.6328,-7.9258,-8.1133,-8.1406,-8.1992,-8.2304,-8.2304,-8.2304,-8.2304,-8.2304,-8.2304,-8.2304,-8.2304,-8.2304,-8.2304,-8.2304,-8.2304,-8.2304,-8.2304,-8.2304,-8.2304,-8.2304,-8.2304,-8.2264,-8.2139,-8.1553,-8.1115,-8.0621,0.0,0.0,0.0,0.0,0.0,-7.7784,-7.8323,-7.7938,-7.713,-7.6245,-7.5784,-7.563,-7.5938,0.0,-7.6015,-7.6015,-7.6438,-7.6861,-7.6861,-7.7284,-7.7669,-7.7669,-7.7669,-7.7669,-7.7669,-7.79,-7.8092,-7.8092,-7.8323,-7.8707,-7.9285,-7.9361,-7.9708,-8.0554,-8.0669,-8.0785,-8.1054,-8.1093,-8.1093,-8.1093,-8.1593,-8.2016,-8.2285,-8.3401,-8.417,-8.4439,-8.5247,-8.5709,-8.5709,-8.6247,-8.6555,-8.6555,-8.7401,-8.8286,-8.9094,-8.9094,-8.9094,-8.9094,-8.8825,-8.8979,-8.9517,-8.9517,-8.9825,-9.0364,-9.0364,-9.0517,-9.0748,-9.0748,-9.0748,-9.0748,0.0,0.0,0.0,0.0,0.0,0.0,0.0,0.0,0.0,0.0,0.0,0.0,0.0,0.0,0.0,0.0,0.0,-7.5703,-7.6328,-7.8711,-8.0234,-8.0508,-8.1054,-8.1367,-8.1367,-8.1367,-8.1367,-8.1367,-8.1679,-8.1836,-8.1836,-8.2148,-8.2304,-8.2304,-8.2304,-8.2304,-8.2304,-8.2304,-8.2461,-8.2695,-8.2109,-8.2031,-8.2187,-8.0976,-8.0351,0.0,0.0,0.0,0.0,0.0,-7.6899,-7.6938,-7.7438,-7.7246,-7.6746,-7.6169,-7.6015,-7.6053,-7.6361,-7.6476,-7.6515,-7.6823,-7.7323,-7.7707,-7.7707,-7.813,-7.8477,-7.8477,-7.8477,-7.8477,-7.8477,-7.8746,-7.8977,-7.8977,-7.9208,-7.9631,-8.0208,-8.0246,-8.0477,-8.1016,-8.1093,-8.1208,-8.1516,-8.1516,-8.1516,-8.1516,-8.2285,-8.2901,-8.3208,-8.4286,-8.5016,-8.5324,-8.5824,-8.6094,-8.6094,-8.6401,-8.6709,-8.7055,-8.7594,-8.8171,-8.8709,-8.8709,-8.8709,-8.8709,-8.8709,-8.8979,-8.9479,-8.9479,-8.9787,-9.0325,-9.0325,-9.0479,-9.0748,-9.0748,-9.0967,-9.1313,0.0,0.0,0.0,0.0,0.0,0.0,0.0,0.0,0.0,0.0,0.0,0.0,0.0,0.0,0.0,0.0,0.0,0.0,-7.7031,-7.8008,0.0,-7.9609,-7.9687,-7.9687,-7.9687,-7.9687,-7.9687,-7.9687,-8.0547,-8.0937,-8.0937,-8.1797,-8.2187,-8.2187,-8.2187,-8.2187,-8.2187,-8.2187,-8.2656,-8.3242,-8.1601,-8.1445,-8.1992,-8.0273,0.0,0.0,0.0,0.0,0.0,0.0,-7.616,-7.6015,-7.6015,-7.6015,-7.6015,-7.6053,-7.6053,-7.6245,-7.713,-7.7361,-7.7553,-7.8284,-7.8515,-7.8554,-7.8554,-7.8631,-7.8669,-7.8631,-7.8669,-7.8669,0.0,0.0,-7.9862,-7.9862,-8.0554,-8.1093,-8.1093,-8.1093,-8.1093,0.0,0.0,0.0,0.0,0.0,-8.2439,-8.2439,-8.3208,-8.4016,-8.4863,-8.4939,-8.5324,-8.6132,-8.6132,-8.6132,-8.617,-8.694,-8.7748,-8.8556,-8.8556,-8.8556,-8.8556,-8.8556,-8.8611,-8.8628,-8.8589,-8.8645,-8.8738,-8.87,-8.87,-8.8777,-8.887,-8.9354,-9.0086,-9.0124,-9.0767,-9.1643,0.0,0.0,0.0,0.0,0.0,0.0,0.0,0.0,0.0,0.0,0.0,0.0,0.0,0.0,0.0,0.0,0.0,0.0,-7.6211,-7.7656,0.0,0.0,0.0,0.0,0.0,0.0,0.0,0.0,-7.9922,-8.0039,-8.0039,-8.0273,-8.0351,-8.0351,-8.0351,-8.0351,-8.0351,-8.0351,-8.0508,-8.0664,0.0,-8.0156,-8.0234,0.0,0.0,0.0,0.0,0.0,0.0,0.0,0.0,-7.6015,-7.6015,-7.6015,-7.613,-7.6784,-7.6976,-7.713,-7.7977,-7.8169,-7.8246,-7.8438,-7.8977,-7.9477,-7.9477,-8.0439,-8.117,-8.0554,-8.09,-8.1131,-8.0554,-8.0631,-8.0785,-8.0785,-8.0977,-8.1093,-8.1093,-8.1093,0.0,-8.1093,0.0,-8.2054,-8.2285,-8.3478,-8.4247,-8.4247,-8.4439,-8.467,-8.4901,-8.5478,-8.6209,-8.7055,-8.644,-8.6401,-8.7055,-8.6632,-8.6555,-8.6748,-8.6748,-8.6748,-8.6748,-8.6748,-8.7195,-8.7911,-8.7318,-8.7848,-8.9115,-8.8483,-8.8988,-9.0192,-9.0824,-9.1611,-9.2427,-9.3098,-9.3491,-9.3736,0.0,0.0,0.0,0.0,0.0,0.0,0.0,0.0,0.0,0.0,0.0,0.0,0.0,0.0,0.0,0.0,0.0,0.0,0.0,-7.7383,0.0,0.0,0.0,0.0,0.0,0.0,0.0,0.0,0.0,0.0,0.0,-7.9687,-7.9687,-7.9687,-7.9687,-7.9687,-7.9687,-7.9687,0.0,0.0,0.0,0.0,0.0,0.0,0.0,0.0,0.0,0.0,0.0,0.0,0.0,-7.6053,-7.6438,-7.6553,-7.6746,-7.7592,0.0,-7.8015,-7.8823,-7.9054,-7.9169,-7.9554,-8.0015,-8.0362,-8.0362,-8.1093,-8.1631,-8.1208,-8.1477,-8.1631,-8.117,-8.1093,-8.1093,0.0,0.0,0.0,-8.1093,-8.14,-8.1631,0.0,-8.2362,0.0,-8.3401,-8.4324,-8.5055,-8.5401,-8.544,-8.544,-8.544,-8.6209,-8.6709,-8.6824,-8.6748,-8.6709,-8.6824,-8.6324,-8.6094,-8.6094,-8.6094,-8.6094,-8.6094,-8.6094,-8.6678,-8.7655,-8.6829,-8.7597,-8.9316,-8.8849,-8.9432,-9.0678,-9.1542,-9.2438,-9.3255,-9.377,-9.4217,-9.464,0.0,0.0,0.0,0.0,0.0,0.0,0.0,0.0,0.0,0.0,-7.4961,-7.4961,0.0,0.0,0.0,0.0,0.0,0.0,0.0,0.0,0.0,0.0,0.0,0.0,0.0,0.0,0.0,0.0,0.0,0.0,0.0,0.0,0.0,0.0,0.0,0.0,0.0,0.0,0.0,0.0,0.0,0.0,0.0,0.0,0.0,0.0,0.0,0.0,0.0,0.0,-7.7229,-7.6476,-7.7207,-7.7438,-7.763,-7.8438,-7.8669,-7.8861,-7.9746,-7.9977,-8.0169,-8.09,-8.117,-8.1246,-8.1131,-8.1285,-8.1362,-8.1131,-8.117,-8.1246,-8.1131,-8.1093,-8.1093,-8.1093,0.0,-8.1246,-8.1246,-8.1939,-8.2477,-8.2477,-8.3247,-8.4055,-8.4824,-8.5016,-8.5363,-8.6055,-8.6094,-8.617,-8.6286,-8.6863,-8.6863,-8.6132,-8.694,-8.6978,-8.6094,-8.6094,-8.6094,-8.6094,-8.6094,-8.6165,-8.6291,-8.6291,-8.6988,-8.8096,-8.7398,-8.8138,-8.9837,-8.9837,-9.0305,-9.113,-9.1987,-9.2884,-9.3663,-9.3741,-9.4379,-9.5172,0.0,0.0,0.0,0.0,0.0,0.0,0.0,0.0,0.0,0.0,-7.6758,-7.6758,0.0,0.0,0.0,0.0,0.0,0.0,0.0,0.0,0.0,0.0,0.0,0.0,0.0,0.0,0.0,0.0,0.0,0.0,0.0,0.0,0.0,0.0,0.0,0.0,0.0,0.0,0.0,0.0,0.0,0.0,0.0,0.0,0.0,0.0,0.0,0.0,0.0,0.0,-7.8519,-7.8092,-7.8246,-7.8284,-7.8438,-7.9323,-7.9592,-7.9746,-8.0631,-8.0862,-8.09,-8.1054,-8.1593,-8.19,-8.1246,-8.217,0.0,0.0,-8.1631,-8.19,-8.1208,-8.1093,-8.1093,-8.1093,-8.167,-8.2093,-8.2093,-8.2824,-8.3362,0.0,-8.4132,-8.4747,-8.4901,-8.5517,0.0,-8.6094,-8.6094,-8.6401,-8.7132,-8.6632,-8.6247,-8.6094,-8.694,-8.6978,-8.6094,-8.6094,-8.6094,-8.6094,-8.6094,-8.6555,-8.741,-8.741,-8.8515,-9.0401,-9.0284,-9.0902,-9.2022,-9.2022,-9.2569,-9.3428,-9.4287,-9.5146,-9.6006,-9.667,-9.7025,-9.7184,0.0,0.0,0.0,0.0,0.0,0.0,0.0,-7.6933,-7.71,-7.7187,-7.7187,-7.7187,-7.7187,-7.7187,-7.7187,0.0,0.0,0.0,0.0,0.0,0.0,0.0,0.0,0.0,0.0,0.0,0.0,0.0,0.0,0.0,0.0,0.0,0.0,0.0,0.0,0.0,0.0,0.0,0.0,0.0,0.0,0.0,0.0,0.0,0.0,0.0,0.0,0.0,0.0,0.0,-8.0045,-8.0067,-7.9379,-7.9169,-7.9361,-8.0208,-8.0477,-8.0554,-8.0977,-8.1093,-8.1093,-8.1093,-8.1708,-8.2093,-8.1285,0.0,0.0,0.0,-8.14,-8.1554,-8.117,0.0,0.0,-8.1093,-8.1785,-8.2285,-8.2285,-8.3439,-8.4286,-8.4286,-8.5016,-8.5517,-8.5517,-8.5863,-8.6094,-8.6094,-8.6517,-8.6978,-8.7363,-8.7017,-8.6786,-8.6786,-8.6748,-8.6517,-8.6094,-8.6094,-8.6361,-8.6935,-8.6496,-8.7126,-8.8564,-8.8088,-8.9309,-9.164,-9.121,-9.2119,-9.3945,-9.3945,-9.4453,-9.5351,-9.6172,-9.6758,-9.7187,-9.7578,-9.7695,-9.7695,0.0,0.0,0.0,0.0,0.0,0.0,-7.6864,-7.7057,-7.7187,-7.7187,-7.7187,-7.7187,-7.7187,-7.7187,-7.7187,0.0,0.0,0.0,0.0,0.0,0.0,0.0,0.0,0.0,0.0,0.0,0.0,0.0,0.0,0.0,0.0,0.0,0.0,0.0,0.0,0.0,0.0,0.0,0.0,0.0,0.0,0.0,0.0,0.0,0.0,0.0,0.0,0.0,0.0,0.0,-8.1343,-8.1571,-8.0536,-8.0169,-8.029,-8.0959,-8.1131,-8.1093,-8.1093,-8.1246,-8.1362,-8.1362,-8.2093,-8.2593,-8.1593,-8.1977,0.0,0.0,-8.1093,-8.1093,-8.1093,0.0,-8.1093,0.0,-8.1785,-8.2362,-8.2554,-8.3939,-8.4978,0.0,-8.5709,0.0,-8.6094,-8.6094,0.0,-8.6094,-8.6901,-8.7401,-8.7401,-8.7401,-8.7325,-8.7132,-8.6478,-8.6209,-8.6363,-8.6422,-8.6945,-8.7964,-8.7417,-8.8031,-8.9745,-8.9231,-9.0345,-9.2645,-9.2294,-9.3419,-9.5508,-9.5664,-9.6133,-9.6836,-9.7461,-9.7695,-9.7695,-9.7695,-9.7695,-9.7695,0.0,0.0,0.0,0.0,0.0,0.0,-7.6864,-7.7057,-7.7187,-7.7187,-7.7187,-7.7187,-7.7187,-7.7187,-7.7187,0.0,0.0,0.0,0.0,0.0,0.0,0.0,0.0,0.0,0.0,0.0,0.0,0.0,0.0,0.0,0.0,0.0,0.0,0.0,0.0,0.0,0.0,0.0,0.0,0.0,0.0,0.0,0.0,0.0,0.0,0.0,0.0,0.0,0.0,0.0,0.0,-8.1914,-8.1618,-8.1387,-8.1294,-8.1359,0.0,0.0,-8.1093,-8.1631,-8.217,-8.217,-8.3439,-8.4247,-8.2554,0.0,-8.3016,-8.1439,-8.1093,-8.1093,-8.1093,0.0,0.0,0.0,0.0,-8.2593,0.0,-8.4286,-8.517,-8.5901,0.0,0.0,-8.6094,-8.6094,-8.6094,-8.6094,-8.6901,-8.7401,-8.7401,-8.7401,-8.7055,-8.6247,-8.6132,-8.6478,-8.7286,-8.7441,-8.8017,-8.8868,-8.9071,-8.976,-9.0881,-9.1588,-9.2577,-9.3827,-9.5351,-9.6132,-9.6445,-9.7187,-9.7539,-9.7617,-9.7656,-9.7695,-9.7695,-9.7695,-9.7695,-9.7695,0.0,0.0,0.0,0.0,0.0,0.0,-7.6349,-7.6365,-7.6406,-7.6406,-7.6406,-7.6601,-7.7148,-7.7187,-7.7187,-7.7187,0.0,0.0,0.0,0.0,0.0,0.0,0.0,0.0,0.0,0.0,-7.7187,-7.7187,-7.7187,0.0,0.0,0.0,0.0,0.0,0.0,0.0,-7.7187,-7.7187,0.0,0.0,0.0,0.0,0.0,0.0,0.0,0.0,0.0,0.0,0.0,0.0,0.0,0.0,-8.211,-8.1909,0.0,0.0,-8.1361,-8.136,-8.1732,-8.2054,-8.2439,-8.2939,-8.3593,-8.3785,-8.2593,0.0,-8.2477,-8.1323,-8.1093,-8.1093,-8.1093,0.0,0.0,0.0,0.0,0.0,-8.2747,0.0,0.0,-8.5286,-8.5401,0.0,0.0,0.0,-8.6324,-8.6824,-8.7209,-8.7401,-8.7401,-8.7401,-8.7248,-8.6901,-8.6863,-8.734,-8.8369,-8.8442,-8.9055,-9.0205,-8.9774,-9.0421,-9.198,-9.2331,-9.3277,-9.4765,-9.5976,-9.6758,-9.7265,-9.7578,-9.7695,-9.7695,-9.7695,-9.7695,-9.7695,-9.7695,-9.7695,-9.7695,0.0,0.0,0.0,0.0,0.0,-7.6362,-7.5976,-7.5898,-7.582,-7.5547,-7.5742,-7.6133,-7.6758,-7.6367,-7.625,-7.6758,-7.625,0.0,0.0,0.0,0.0,0.0,0.0,0.0,0.0,0.0,-7.7187,-7.7187,-7.7187,-7.7187,0.0,0.0,0.0,0.0,0.0,0.0,0.0,0.0,0.0,0.0,0.0,0.0,0.0,0.0,0.0,0.0,0.0,0.0,0.0,0.0,0.0,0.0,0.0,0.0,0.0,0.0,-8.1656,-8.1785,-8.2,-8.2532,-8.3131,-8.3516,-8.3785,-8.3747,0.0,0.0,-8.2054,-8.1285,-8.1093,-8.1093,-8.1093,0.0,0.0,0.0,0.0,-8.2016,-8.2285,0.0,0.0,0.0,0.0,-8.5209,-8.6017,-8.6324,-8.6748,-8.7363,-8.7401,-8.7517,-8.7786,-8.7555,-8.7429,-8.748,-8.775,-8.8383,-8.9465,-8.9553,-9.0197,-9.1362,-9.0807,-9.1429,-9.3008,-9.3242,-9.4179,-9.5625,-9.6484,-9.7187,-9.7695,-9.7695,-9.7695,-9.7695,-9.7695,-9.7695,-9.7695,-9.7695,-9.7695,-9.7695,0.0,0.0,0.0,0.0,0.0,0.0,-7.5858,-7.5898,-7.5586,-7.4726,-7.5351,-7.5898,-7.5898,-7.4375,-7.4023,-7.5742,-7.5898,0.0,0.0,0.0,0.0,0.0,0.0,0.0,0.0,0.0,-7.7187,-7.7187,-7.7187,-7.7187,-7.7187,-7.7187,-7.7187,-7.7187,0.0,0.0,0.0,0.0,-7.7187,0.0,0.0,0.0,-8.1094,0.0,0.0,0.0,0.0,0.0,0.0,0.0,0.0,0.0,0.0,-8.2304,0.0,0.0,-8.2272,-8.2414,-8.1639,-8.3123,-8.467,-8.3824,-8.4247,-8.467,0.0,0.0,-8.2054,-8.1285,-8.1093,-8.1093,-8.1093,-8.1093,-8.1093,0.0,0.0,0.0,-8.217,-8.2324,0.0,0.0,0.0,-8.5209,-8.6017,-8.6863,-8.7401,-8.7401,-8.7401,-8.7786,-8.8632,-8.7863,-8.7496,-8.7681,-8.8545,-8.9515,-9.0561,-9.0869,-9.1401,-9.2182,-9.2451,-9.3047,-9.3906,-9.4765,-9.5664,-9.6523,-9.7344,-9.7695,-9.7695,-9.7695,-9.7695,-9.7695,-9.7695,-9.7695,-9.7695,-9.7695,-9.7695,-9.7695,0.0,0.0,0.0,0.0,0.0,0.0,0.0,-7.4101,-7.4023,-7.375,-7.3945,-7.457,-7.5781,-7.4883,-7.4414,-7.4961,-7.5,0.0,0.0,0.0,0.0,0.0,0.0,0.0,0.0,-7.7187,-7.7187,-7.7187,-7.7187,-7.7187,-7.7187,-7.7187,-7.7187,-7.7187,-7.7187,-7.7187,0.0,-7.7187,-7.7851,0.0,0.0,-8.1094,-8.1914,0.0,0.0,0.0,0.0,0.0,0.0,0.0,0.0,0.0,0.0,0.0,0.0,-8.2221,-8.2195,-8.2192,-8.2217,-8.2909,-8.3584,-8.358,-8.3461,-8.3228,-8.281,0.0,0.0,-8.1131,-8.1093,-8.1093,-8.1093,-8.1093,-8.1093,-8.1093,0.0,0.0,0.0,0.0,0.0,-8.3862,-8.5016,-8.5824,-8.6094,-8.744,-8.8017,-8.744,-8.8097,-8.859,-8.8875,-8.875,-8.8938,-8.9436,-8.9746,-9.0468,-9.1688,-9.1769,-9.206,-9.2492,-9.3163,-9.3633,-9.3945,-9.5429,-9.625,-9.6523,-9.7344,-9.7695,-9.7695,-9.7695,-9.7695,-9.7695,-9.7695,-9.7695,-9.7695,-9.7695,-9.7695,-9.7695,0.0,0.0,0.0,0.0,0.0,0.0,0.0,-7.3594,-7.3555,-7.289,-7.3398,-7.4062,-7.4844,-7.414,-7.375,-7.4062,-7.4101,0.0,0.0,0.0,0.0,0.0,0.0,0.0,-7.7187,-7.7187,-7.7344,-7.7695,-7.7695,-7.7851,-7.8125,-7.8125,-7.8125,-7.8125,-7.8125,-7.8125,0.0,-7.8476,-7.9258,-8.0273,-8.1133,-8.1836,-8.2304,0.0,0.0,0.0,0.0,0.0,0.0,0.0,0.0,0.0,0.0,0.0,0.0,0.0,-8.1477,-8.1737,0.0,-8.2915,-8.3406,-8.3282,-8.2909,-8.2483,0.0,0.0,0.0,0.0,0.0,0.0,-8.0554,-8.0592,-8.0708,-8.1054,-8.1093,0.0,0.0,0.0,0.0,-8.3939,0.0,0.0,-8.6238,-8.7796,-8.8489,-8.7704,-8.8878,-8.9615,-8.9577,-8.9741,-9.0185,-9.0976,-9.1014,-9.1466,-9.2348,-9.2348,-9.2447,-9.2617,-9.3476,-9.4062,-9.4453,-9.5859,-9.6679,-9.6992,-9.7461,-9.7695,0.0,-9.7695,-9.7695,-9.7695,-9.7695,-9.7695,-9.7695,-9.7695,-9.7695,-9.7695,0.0,0.0,0.0,0.0,0.0,0.0,0.0,-7.3984,-7.3867,-7.2383,-7.3476,-7.414,-7.3476,-7.2578,-7.2344,-7.3203,0.0,0.0,0.0,0.0,0.0,0.0,0.0,0.0,-7.7187,-7.7187,-7.7617,-7.8515,-7.8555,-7.8984,-7.9687,-7.9687,-7.9687,-7.9687,-7.9687,-7.9687,-7.9765,-8.0625,-8.1015,-8.1094,-8.1953,-8.2304,0.0,0.0,0.0,0.0,0.0,0.0,0.0,0.0,0.0,0.0,0.0,0.0,0.0,0.0,0.0,0.0,0.0,-8.3003,-8.3835,-8.2788,-8.2538,-8.2312,-8.135,0.0,0.0,0.0,0.0,0.0,0.0,-7.9838,-8.0161,-8.0977,-8.1124,0.0,0.0,-8.2401,0.0,0.0,-8.5681,-8.6223,-8.648,-8.8028,-8.8778,-8.8248,-8.9683,-9.0664,-9.0703,-9.068,-9.1119,-9.2186,-9.2229,-9.2348,-9.2617,-9.2617,-9.2617,-9.2695,-9.3594,-9.4453,-9.5312,-9.6172,-9.6992,-9.7695,-9.7695,-9.7695,-9.7695,-9.7695,-9.7695,-9.7695,-9.7695,-9.7695,-9.7695,-9.7695,-9.7695,-9.7695,0.0,0.0,0.0,0.0,0.0,0.0,0.0,0.0,0.0,0.0,-7.3164,-7.3047,-7.418,-7.293,-7.2344,0.0,0.0,0.0,0.0,0.0,0.0,0.0,0.0,0.0,-7.7187,-7.7187,-7.7617,-7.8515,-7.9101,-7.9492,-7.9687,-7.9687,-7.9687,-7.9687,-7.9687,-7.9687,-7.9765,-8.0625,-8.1015,-8.1094,-8.1953,-8.2304,0.0,0.0,0.0,0.0,-8.2304,-8.2304,0.0,0.0,0.0,0.0,0.0,0.0,0.0,0.0,-8.0859,-8.1172,-8.2028,0.0,-8.2609,-8.2046,-8.2036,-8.2052,0.0,0.0,0.0,0.0,0.0,0.0,0.0,0.0,-8.1053,-8.11,-8.1228,-8.1542,-8.2217,0.0,0.0,-8.5976,-8.6287,-8.6492,-8.671,-8.8254,-8.9176,-8.9035,-9.019,-9.1158,-9.1783,-9.1396,-9.1548,-9.2494,-9.2495,-9.2537,-9.2617,-9.2617,-9.2929,-9.3594,-9.4492,-9.5351,-9.6211,-9.7031,-9.7539,-9.7695,-9.7695,-9.7695,-9.7695,-9.7695,-9.7695,-9.7695,-9.7695,-9.7695,-9.7695,-9.7695,-9.7695,-9.7695,0.0,0.0,0.0,0.0,0.0,0.0,0.0,0.0,0.0,0.0,0.0,-7.2812,-7.3359,-7.293,0.0,0.0,0.0,0.0,0.0,0.0,0.0,0.0,0.0,-7.543,-7.7148,-7.7187,-7.8008,-7.9648,-8.0078,-8.0508,-8.0898,-8.0898,-8.0898,-8.0898,-8.0898,-8.0898,-8.0937,-8.1836,-8.1953,-8.1679,-8.2539,0.0,0.0,0.0,0.0,0.0,-8.2304,-8.2304,0.0,-8.2304,-8.1992,-8.1445,0.0,0.0,0.0,0.0,-8.0117,-8.0508,-8.0976,-8.1679,-8.2221,-8.1904,-8.1904,-8.1845,-8.1226,0.0,0.0,0.0,0.0,0.0,0.0,0.0,0.0,0.0,-8.2139,0.0,0.0,0.0,-8.6001,-8.656,-8.6648,-8.6875,-8.7481,-8.8709,-8.9676,-9.0169,-9.1162,-9.1926,-9.2358,-9.2067,-9.2109,-9.2578,-9.2617,-9.2617,-9.2617,-9.2617,-9.3047,-9.3906,-9.4765,-9.5664,-9.6523,-9.7344,-9.7695,-9.7695,-9.7695,-9.7695,-9.7695,-9.7695,-9.7695,-9.7695,-9.7695,-9.7695,-9.7695,-9.7695,-9.7695,-9.7695,0.0,0.0,0.0,0.0,0.0,0.0,0.0,0.0,0.0,0.0,0.0,0.0,0.0,0.0,0.0,0.0,0.0,0.0,0.0,0.0,0.0,0.0,-7.4062,-7.539,-7.7539,-7.7461,-7.8594,-8.1015,-8.1133,-8.1562,-8.2304,-8.2304,-8.2304,-8.2304,-8.2304,-8.2304,-8.2344,-8.3086,-8.2969,-8.2344,-8.3086,0.0,0.0,0.0,0.0,0.0,0.0,0.0,0.0,-8.2304,-8.2109,-8.1601,-8.0039,0.0,0.0,0.0,0.0,0.0,-7.9687,-8.0898,-8.2069,-8.1876,-8.174,-8.1446,-8.068,0.0,0.0,0.0,0.0,0.0,0.0,-8.1212,0.0,0.0,0.0,0.0,-8.5385,-8.6233,-8.6825,-8.6826,-8.6864,-8.7254,-8.833,-8.9239,-9.0164,-9.1211,-9.2109,-9.2617,-9.2617,-9.2617,-9.2617,-9.2617,-9.2617,-9.2617,-9.2617,-9.2734,-9.3242,-9.4101,-9.4961,-9.5859,-9.6719,-9.7383,-9.7695,-9.7695,-9.7695,-9.7695,-9.7695,-9.7695,-9.7695,-9.7695,-9.7695,-9.7695,-9.7695,-9.7695,-9.7695,-9.7695,0.0,0.0,0.0,0.0,0.0,0.0,0.0,0.0,0.0,0.0,0.0,0.0,0.0,0.0,0.0,0.0,0.0,0.0,0.0,0.0,0.0,-7.4375,-7.3828,-7.5312,-7.9219,-7.8633,-7.918,-8.1015,-8.1758,-8.2187,-8.2304,-8.2304,-8.2304,-8.2304,-8.2304,-8.2304,-8.2304,-8.2422,-8.2422,-8.2304,-8.2461,0.0,0.0,0.0,0.0,0.0,0.0,0.0,0.0,-8.2304,-8.1328,-7.9922,-7.8984,0.0,0.0,0.0,0.0,0.0,-7.9492,-8.0429,-8.1172,-8.117,-8.0584,-8.0193,0.0,0.0,0.0,0.0,0.0,0.0,0.0,-8.1738,-8.2128,0.0,0.0,-8.4521,0.0,0.0,-8.6841,-8.7024,-8.7039,-8.7475,-8.855,-8.9451,-9.0311,-9.1211,-9.2109,-9.2617,-9.2617,-9.2617,-9.2617,-9.2617,-9.2617,-9.2617,-9.2617,-9.332,-9.414,-9.5,-9.5898,-9.6719,-9.7539,-9.7656,-9.7695,-9.7695,-9.7695,-9.7695,-9.7695,-9.7695,-9.7695,-9.7695,-9.7695,-9.7695,-9.7695,-9.7695,-9.7695,-9.7695,0.0,0.0,0.0,0.0,0.0,0.0,0.0,0.0,0.0,0.0,0.0,0.0,0.0,0.0,0.0,0.0,0.0,0.0,0.0,0.0,-7.5039,-7.5976,-7.5156,-7.6055,-7.8984,-7.9101,-8.0,-8.1719,-8.2109,-8.2304,-8.2304,-8.2304,-8.2304,-8.2304,-8.2304,-8.2304,-8.2304,-8.2304,-8.2304,-8.2304,0.0,0.0,0.0,0.0,0.0,0.0,0.0,0.0,0.0,0.0,-7.9726,-7.8828,-7.75,0.0,0.0,0.0,0.0,0.0,-7.8242,-7.8984,-7.9765,-8.0195,-8.0703,-8.1328,0.0,0.0,0.0,0.0,0.0,0.0,0.0,0.0,-8.3999,-8.5218,0.0,-8.5598,-8.6457,-8.6925,-8.7212,-8.7323,-8.7327,-8.7882,-8.9258,-8.9765,-9.0547,-9.1914,-9.2383,-9.2617,-9.2617,-9.2617,-9.2617,-9.2617,-9.2617,-9.2617,-9.2617,-9.3945,-9.4804,-9.5195,-9.6094,-9.6914,-9.7695,-9.7695,-9.7695,-9.7695,-9.7695,-9.7695,-9.7695,-9.7695,-9.7695,-9.7695,-9.7695,-9.7695,-9.7695,-9.7695,-9.7695,-9.7695,0.0,0.0,0.0,0.0,0.0,0.0,0.0,0.0,0.0,0.0,0.0,0.0,0.0,0.0,0.0,0.0,0.0,0.0,0.0,-7.5195,-7.5781,-7.7148,-7.6758,-7.7226,-7.875,-7.9219,-8.0273,-8.1992,-8.1992,-8.2109,-8.2304,-8.2304,-8.2304,-8.2304,-8.2304,-8.2304,-8.2304,-8.2304,-8.2304,-8.2304,0.0,0.0,0.0,0.0,0.0,0.0,0.0,0.0,0.0,0.0,0.0,0.0,0.0,0.0,0.0,-7.5586,-7.6211,-7.6953,-7.7148,-7.7851,-7.8672,-7.9492,0.0,0.0,0.0,0.0,0.0,0.0,0.0,0.0,0.0,-8.4453,0.0,-8.6679,-8.6484,-8.6484,-8.7383,-8.75,-8.75,-8.75,-8.7656,-8.8359,-8.9844,-9.0195,-9.0937,-9.2461,-9.2617,-9.2617,-9.2617,-9.2617,-9.2617,-9.2617,-9.2617,-9.2695,-9.289,-9.4414,-9.5195,-9.5195,-9.6289,-9.7109,-9.7695,-9.7695,-9.7695,-9.7695,-9.7695,-9.7695,-9.7695,-9.7695,-9.7695,-9.7695,-9.7695,-9.7695,-9.7695,-9.7695,-9.7695,-9.7695,0.0,0.0,0.0,0.0,0.0,0.0,0.0,0.0,0.0,0.0,0.0,0.0,0.0,0.0,0.0,0.0,0.0,0.0,0.0,-7.6992,-7.707,-7.7187,-7.789,-7.8711,-7.9609,-7.8945,-7.9414,-8.1094,-8.1094,-8.1523,-8.2304,-8.2304,-8.2304,-8.2304,-8.2304,-8.2304,-8.2304,-8.2304,-8.2304,-8.2304,-8.2304,0.0,0.0,0.0,0.0,0.0,0.0,0.0,0.0,0.0,0.0,0.0,0.0,0.0,-7.4687,-7.4687,-7.5312,-7.6172,-7.6992,-7.7851,-7.8672,-7.9492,-7.9805,0.0,-8.1992,-8.3008,0.0,-8.3594,0.0,0.0,0.0,-8.4844,-8.4922,-8.5078,-8.5703,-8.6484,-8.7383,-8.75,-8.75,-8.75,-8.8164,-8.8984,-8.9922,-9.0742,-9.1601,-9.2539,-9.2617,-9.2617,-9.2617,-9.2617,-9.2617,-9.2617,-9.2617,-9.3008,-9.3789,-9.4726,-9.5195,-9.5234,-9.6836,-9.7656,-9.7695,-9.7695,-9.7695,-9.7695,-9.7695,-9.7695,-9.7695,-9.7695,-9.7695,-9.7695,-9.7695,-9.7695,-9.7695,-9.7695,-9.7695,-9.7695,0.0,0.0,0.0,0.0,0.0,0.0,0.0,0.0,0.0,0.0,0.0,0.0,0.0,0.0,0.0,0.0,0.0,0.0,0.0,-7.7187,-7.7187,-7.7187,-7.7539,-7.7812,-7.8125,-7.9414,-8.0351,-8.1015,-8.1523,-8.1992,-8.2304,-8.2304,-8.2304,-8.2304,-8.2304,-8.2304,-8.2304,-8.2304,-8.2304,-8.2304,-8.2304,-8.2304,0.0,0.0,0.0,0.0,0.0,0.0,0.0,0.0,-7.6914,-7.625,-7.5351,-7.4883,-7.4609,-7.4609,-7.5234,-7.6094,-7.6953,-7.8203,-7.9453,-8.0312,0.0,0.0,0.0,0.0,0.0,0.0,-8.5469,0.0,0.0,0.0,-8.6523,-8.6523,-8.6797,-8.7109,-8.7461,-8.7929,-8.8242,-8.8242,-8.8984,-8.9844,-9.0703,-9.1094,-9.164,-9.2539,-9.2617,-9.2617,-9.2617,-9.2617,-9.2617,-9.2617,-9.2617,-9.3008,-9.3906,-9.4765,-9.5469,-9.6015,-9.7148,-9.7695,-9.7695,-9.7695,-9.7695,-9.7695,-9.7695,-9.7695,-9.7695,-9.7695,-9.7695,-9.7695,-9.7695,-9.7695,-9.7695,-9.7695,-9.7695,-9.7695,0.0,0.0,0.0,0.0,0.0,0.0,0.0,0.0,0.0,0.0,0.0,0.0,0.0,0.0,0.0,0.0,0.0,0.0,-7.7187,-7.7187,-7.7187,-7.7187,-7.7187,-7.7187,-7.7187,-7.918,-8.0351,-8.0586,-8.1758,-8.2304,-8.2304,-8.2304,-8.2304,-8.2304,-8.2304,-8.2304,-8.2304,-8.2304,-8.2304,-8.2304,-8.2304,-8.2304,0.0,0.0,0.0,0.0,0.0,0.0,0.0,0.0,-7.6133,-7.5781,-7.5195,-7.4805,-7.4648,-7.4922,-7.5625,-7.6562,-7.7695,-7.9023,-8.0312,0.0,0.0,0.0,0.0,0.0,0.0,0.0,0.0,0.0,0.0,0.0,0.0,0.0,-8.7304,-8.7578,-8.7851,-8.8359,-8.8789,-8.9062,-8.9883,-9.0625,-9.125,-9.1562,-9.1953,-9.2578,-9.2617,-9.2617,-9.2617,-9.2617,-9.2617,-9.2617,-9.2617,-9.3164,-9.4297,-9.4883,-9.5742,-9.6875,-9.7422,-9.7695,-9.7695,-9.7695,-9.7695,-9.7695,-9.7695,-9.7695,-9.7695,-9.7695,-9.7695,-9.7695,-9.7695,-9.7695,-9.7656,-9.7422,-9.7461,-9.7656,0.0,0.0,0.0,0.0,0.0,0.0,0.0,0.0,-7.7187,-7.7187,-7.7187,0.0,0.0,0.0,0.0,0.0,0.0,0.0,-7.7187,-7.7187,-7.7187,-7.7187,-7.7187,-7.7187,-7.7187,-7.8047,-7.8906,-7.9687,-8.1445,-8.2304,-8.2304,-8.2304,-8.2304,-8.2304,-8.2304,-8.2304,-8.2304,-8.2304,-8.2304,-8.2304,-8.2304,-8.2265,-8.2187,0.0,0.0,0.0,0.0,0.0,0.0,0.0,-7.664,-7.5898,-7.5898,-7.5312,-7.4805,-7.5664,-7.6523,-7.7578,-7.9258,-8.0351,-8.1211,0.0,0.0,0.0,0.0,0.0,0.0,0.0,0.0,-8.6211,-8.6211,0.0,0.0,-8.6211,-8.6953,-8.7773,-8.8594,-8.8711,-8.9023,-8.9922,-9.0781,-9.1328,-9.1328,-9.2109,-9.2617,-9.2617,-9.2617,-9.2617,-9.2617,-9.2617,-9.2617,-9.2617,-9.2617,-9.3437,-9.5195,-9.5195,-9.6054,-9.7695,-9.7695,-9.7695,-9.7695,-9.7695,-9.7695,-9.7695,-9.7695,-9.7695,-9.7695,-9.7695,-9.7695,-9.7695,-9.7695,-9.7695,-9.7617,-9.6797,-9.7031,-9.7578,0.0,0.0,0.0,0.0,0.0,0.0,0.0,0.0,-7.7187,-7.7187,-7.7187,0.0,0.0,0.0,0.0,0.0,0.0,0.0,-7.7187,-7.7187,-7.7187,-7.7187,-7.7187,-7.7187,-7.7187,-7.8047,-7.8906,-7.9687,-8.1445,-8.1992,-8.1406,-8.1992,-8.2304,-8.2304,-8.2304,-8.2304,-8.2304,-8.2304,-8.1953,-8.1406,-8.1406,-8.1015,-8.0429,0.0,0.0,0.0,0.0,0.0,0.0,0.0,0.0,0.0,-7.6797,-7.664,-7.6484,-7.6758,-7.6992,-7.7695,-8.0,-8.0781,0.0,-8.2851,0.0,0.0,0.0,0.0,0.0,0.0,0.0,-8.6406,-8.6992,0.0,0.0,-8.7109,-8.7344,-8.7773,-8.8594,-8.9219,-8.9922,-9.082,-9.1679,-9.2226,-9.2226,-9.2461,-9.2617,-9.2617,-9.2617,-9.2617,-9.2617,-9.2617,-9.2617,-9.2617,-9.3203,-9.4062,-9.5195,-9.582,-9.664,-9.7695,-9.7695,-9.7695,-9.7695,-9.7695,-9.7695,-9.7695,-9.7695,-9.7695,-9.7695,-9.7695,-9.7695,-9.7695,-9.7695,-9.7695,-9.7656,-9.7422,-9.75,-9.7656,0.0,0.0,0.0,0.0,0.0,0.0,-7.7187,-7.7187,-7.7187,-7.7187,-7.7187,-7.7187,0.0,0.0,0.0,-7.7187,-7.7187,-7.7187,-7.7187,-7.7187,-7.7187,-7.7187,-7.7187,-7.7187,-7.7187,-7.8047,-7.875,-7.9219,-8.0937,-8.1679,-8.1523,-8.1719,-8.1797,-8.1758,-8.1406,-8.1289,-8.1289,-8.1289,-8.0976,-8.0469,-8.0469,-8.0156,-7.9687,0.0,0.0,0.0,0.0,0.0,0.0,0.0,0.0,0.0,-7.7187,-7.7187,-7.7265,-7.7617,-7.8203,-7.9101,-8.1015,-8.2031,0.0,-8.3437,-8.3594,-8.3554,-8.3359,0.0,0.0,0.0,0.0,-8.7461,-8.832,-8.8476,0.0,-8.8476,-8.8476,-8.8789,-8.9609,-9.0195,-9.0859,-9.1719,-9.2265,-9.2617,-9.2617,-9.2617,-9.2617,-9.2617,-9.2617,-9.2617,-9.2617,-9.2617,-9.2617,-9.2617,-9.3437,-9.4336,-9.5195,-9.6054,-9.6914,-9.7695,-9.7695,-9.7695,-9.7695,-9.7695,-9.7695,-9.7695,-9.7695,-9.7695,-9.7695,-9.7695,-9.7695,-9.7656,-9.7344,-9.7422,-9.7617,-9.6953,-9.7148,-9.7656,0.0,0.0,0.0,0.0,0.0,0.0,-7.7187,-7.7187,-7.7187,-7.7187,-7.7187,-7.7187,0.0,0.0,0.0,-7.6953,-7.6953,-7.6992,-7.707,-7.707,-7.7109,-7.7187,-7.7187,-7.7226,-7.7305,-7.8008,-7.8476,-7.8594,-8.0195,-8.1367,-8.2031,-8.1328,-8.0976,-8.0859,-8.0039,-7.9687,-7.9687,-7.9687,-7.9648,-7.9609,-7.9609,-7.9531,-7.9375,-7.8672,0.0,0.0,0.0,0.0,0.0,0.0,0.0,0.0,-7.7187,-7.7187,-7.7344,-7.8164,-7.957,-8.1094,-8.2031,-8.3476,0.0,-8.3867,-8.3672,0.0,-8.4804,-8.5078,-8.539,-8.625,0.0,-8.8984,-8.9844,-9.0,-9.0,-9.0,-9.0,-9.0312,-9.1172,-9.1289,-9.1601,-9.25,-9.2617,-9.2617,-9.2617,-9.2617,-9.2617,-9.2617,-9.2617,-9.2617,-9.2617,-9.2617,-9.2656,-9.2734,-9.3554,-9.4453,-9.5312,-9.6172,-9.6992,-9.7695,-9.7695,-9.7695,-9.7695,-9.7695,-9.7695,-9.7695,-9.7695,-9.7695,-9.7695,-9.7695,-9.7695,-9.7617,-9.6875,-9.707,-9.7539,-9.5976,-9.6406,-9.7617,0.0,0.0,0.0,0.0,0.0,0.0,-7.7187,-7.7187,-7.7187,-7.7187,-7.7187,-7.6953,-7.625,-7.6172,0.0,-7.5234,-7.5156,-7.5469,-7.6133,-7.6172,-7.6484,-7.7187,-7.7187,-7.7539,-7.8203,-7.7734,-7.8125,-7.9453,-8.0508,-8.0742,-8.0273,-8.0781,-8.0625,-7.9961,-7.9765,-7.9687,-7.9687,-7.9687,-7.9336,-7.875,-7.875,-7.8359,-7.7734,-7.7539,-7.7461,0.0,0.0,0.0,0.0,0.0,0.0,0.0,-7.7187,-7.7187,-7.7226,-7.7422,-7.8672,-8.0312,0.0,-8.2578,0.0,0.0,-8.4101,-8.4023,-8.5586,-8.6445,-8.7187,-8.8008,-8.8437,-8.8984,-8.9844,-9.0,-9.0,-9.0,-9.0,-9.0312,-9.1172,-9.1289,-9.1601,-9.25,-9.2617,-9.2617,-9.2617,-9.2617,-9.2617,-9.2617,-9.2617,-9.2617,-9.2617,-9.2617,-9.289,-9.3594,-9.4453,-9.5351,-9.6211,-9.7031,-9.7539,-9.7695,-9.7695,-9.7695,-9.7695,-9.7695,-9.7695,-9.7695,-9.7695,-9.7695,-9.7695,-9.7695,-9.7695,-9.7695,-9.75,-9.7539,-9.7656,-9.7304,-9.7383,-9.7695,0.0,0.0,0.0,0.0,0.0,0.0,0.0,0.0,-7.7656,-7.7265,-7.6836,-7.6406,-7.5937,-7.5547,0.0,0.0,-7.4609,-7.4805,-7.5234,-7.5273,-7.5664,-7.6523,-7.6992,-7.7226,-7.7265,-7.7226,-7.7617,-7.8515,-7.9375,-7.9765,-7.9687,-7.9765,-7.957,-7.9101,-7.8672,-7.8515,-7.8515,-7.8515,-7.8242,-7.789,-7.789,-7.7617,-7.7187,-7.7187,-7.7187,-7.7187,-7.7187,0.0,0.0,0.0,0.0,0.0,0.0,0.0,-7.7265,-7.7695,-7.8711,0.0,0.0,0.0,0.0,-8.457,0.0,-8.5195,-8.6523,-8.7773,-8.8945,-8.9765,-8.9922,-9.0195,-9.1094,-9.125,-9.125,-9.125,-9.125,-9.1406,-9.1875,-9.1914,-9.2109,-9.2539,-9.2617,-9.2617,-9.2617,-9.2617,-9.2617,-9.2617,-9.2617,-9.2617,-9.2617,-9.2617,-9.3008,-9.3867,-9.4765,-9.5625,-9.6484,-9.7304,-9.7695,-9.7695,-9.7695,-9.7695,-9.7695,-9.7695,-9.7695,-9.7695,-9.7695,-9.7695,-9.7695,-9.7695,-9.7695,-9.7656,-9.7265,-9.7344,-9.7656,-9.7265,-9.7383,-9.7695,0.0,0.0,0.0,0.0,0.0,0.0,0.0,0.0,0.0,-7.707,-7.6211,-7.5625,-7.5469,-7.4805,-7.4336,0.0,0.0,0.0,-7.4375,-7.4531,-7.5,-7.5859,-7.6445,-7.6601,-7.6367,-7.6758,-7.7109,-7.7422,-7.8008,-7.8633,-7.9258,-7.875,-7.8437,-7.8242,-7.7539,-7.7187,-7.7187,-7.7187,-7.7187,-7.7187,-7.7187,-7.7187,-7.7187,-7.7187,-7.7187,-7.7187,-7.7187,-7.7187,-7.7187,-7.7187,0.0,0.0,0.0,0.0,-7.7344,-7.8047,-7.8945,0.0,0.0,0.0,-8.3984,-8.4726,-8.5664,0.0,-8.75,-8.9023,-9.0469,-9.1328,-9.1523,-9.1758,-9.2461,-9.2617,-9.2617,-9.2617,-9.2617,-9.2617,-9.2617,-9.2617,-9.2617,-9.2617,-9.2617,-9.2617,-9.2617,-9.2617,-9.2617,-9.2617,-9.2617,-9.2617,-9.2617,-9.2617,-9.3086,-9.4101,-9.4804,-9.5703,-9.6719,-9.7383,-9.7695,-9.7695,-9.7695,-9.7695,-9.7695,-9.7695,-9.7695,-9.7695,-9.7695,-9.7695,-9.7695,-9.7695,-9.7695,-9.7617,-9.6953,-9.7109,-9.7617,-9.6953,-9.7148,-9.7695,0.0,0.0,0.0,0.0,0.0,0.0,0.0,0.0,0.0,0.0,-7.5312,-7.4492,-7.3711,-7.3555,-7.3164,-7.2422,-7.2344,-7.2656,-7.3437,0.0,0.0,-7.5859,-7.5273,-7.5937,-7.8125,-7.6797,-7.6797,-7.832,-7.7695,-7.7422,-7.7539,-7.8203,-7.8086,-7.7383,-7.7265,-7.7187,-7.7187,-7.7187,-7.7187,-7.7187,-7.7187,-7.7187,-7.7187,-7.7187,-7.7187,-7.7187,-7.7187,-7.7187,-7.7187,-7.7187,-7.7187,0.0,0.0,0.0,-7.7226,-7.7344,-7.8476,0.0,0.0,0.0,-8.4765,0.0,-8.6133,-8.7539,0.0,0.0,-9.1367,0.0,-9.2422,-9.2461,-9.2578,-9.2617,-9.2617,-9.2617,-9.2617,-9.2617,-9.2617,-9.2617,-9.2617,-9.2617,-9.2617,-9.2617,-9.2617,-9.2617,-9.2617,-9.2617,-9.2617,-9.2617,-9.2617,-9.2617,-9.3359,-9.4961,-9.5156,-9.5937,-9.7539,-9.7656,-9.7695,-9.7695,-9.7695,-9.7695,-9.7695,-9.7695,-9.7695,-9.7695,-9.7695,-9.7695,-9.7695,-9.7695,-9.7695,-9.7695,-9.7578,-9.7617,-9.7695,-9.7578,-9.7617,-9.7695,0.0,0.0,0.0,0.0,0.0,0.0,0.0,0.0,0.0,0.0,0.0,-7.3711,-7.3359,-7.2851,-7.2422,-7.2031,-7.1992,-7.2148,-7.2539,-7.4297,-7.5078,-7.4453,-7.5469,-7.6133,-7.6328,-7.6523,-7.6758,-7.7031,-7.7148,-7.7187,-7.7226,-7.7578,-7.7578,-7.7187,-7.7187,-7.7187,0.0,0.0,-7.7187,-7.7226,-7.7734,-7.793,-7.7969,-7.8437,-7.8594,-7.8555,-7.8086,-7.793,-7.7851,-7.7344,-7.7187,-7.7187,-7.7187,0.0,0.0,0.0,-7.7734,0.0,-8.0508,0.0,0.0,0.0,0.0,0.0,-8.914,0.0,-9.0976,-9.2304,-9.2617,-9.2617,-9.2617,-9.2617,-9.2617,-9.2617,-9.2617,-9.2617,-9.2617,-9.2617,-9.2617,-9.2617,-9.2617,-9.2617,-9.2617,-9.2617,-9.2617,-9.2617,-9.2617,-9.2617,-9.2617,-9.3047,-9.3906,-9.5156,-9.5664,-9.6484,-9.7695,-9.7695,-9.7695,-9.7695,-9.7695,-9.7695,-9.7695,-9.7695,-9.7695,-9.7695,-9.7695,-9.7695,-9.7695,-9.7695,-9.7695,-9.7695,-9.7695,-9.7695,-9.7695,-9.7695,-9.7695,-9.7695,0.0,0.0,0.0,0.0,0.0,0.0,0.0,0.0,0.0,0.0,0.0,-7.3047,-7.3281,0.0,0.0,0.0,-7.2148,-7.2109,-7.2305,-7.414,-7.4844,-7.3984,-7.539,-7.5898,-7.5273,-7.6328,-7.664,-7.6211,-7.6875,-7.7109,-7.6875,-7.6875,-7.6758,-7.6562,-7.6758,-7.6992,-7.7187,-7.6953,-7.7148,0.0,-7.8242,-7.8633,-7.8867,-7.9453,-7.9844,-7.9961,-7.9336,-7.914,-7.8984,-7.8125,-7.7695,-7.75,-7.7265,-7.7031,0.0,0.0,0.0,0.0,0.0,0.0,0.0,0.0,0.0,0.0,0.0,0.0,-9.0429,0.0,-9.2265,-9.2344,-9.2578,-9.2617,-9.2617,-9.2617,-9.2617,-9.2617,-9.2617,-9.2617,-9.2617,-9.2617,-9.2617,-9.2617,-9.2617,-9.2617,-9.2617,-9.2617,-9.2617,-9.2617,-9.2617,-9.3437,-9.4297,-9.5156,-9.6054,-9.6875,-9.7695,-9.7695,-9.7695,-9.7695,-9.7695,-9.7695,-9.7695,-9.7695,-9.7695,-9.7695,-9.7695,-9.7695,-9.7695,-9.7695,-9.7695,-9.7695,-9.7695,-9.7695,-9.7695,-9.7695,-9.7695,-9.7734,0.0,0.0,0.0,0.0,0.0,0.0,0.0,0.0,0.0,0.0,0.0,-7.2383,-7.3203,-7.2539,-7.2344,-7.3164,-7.2461,-7.2344,-7.3164,-7.3359,-7.414,-7.5703,-7.4297,0.0,-7.6992,-7.6328,-7.6367,-7.7148,0.0,0.0,-7.5976,-7.5976,-7.5547,-7.4765,-7.5586,-7.6445,-7.7148,-7.6328,-7.6914,0.0,-7.8476,-7.8945,-7.9648,-7.9687,-8.0195,-8.0937,-8.0898,-8.0859,-8.0742,-7.9844,-7.9062,-7.8281,-7.7461,-7.664,-7.5976,0.0,0.0,0.0,0.0,0.0,0.0,0.0,0.0,0.0,0.0,0.0,-9.0273,-9.1172,-9.1367,-9.1601,-9.2461,-9.2617,-9.2617,-9.2617,-9.2617,-9.2617,-9.2617,-9.2617,-9.2617,-9.2617,-9.2617,-9.2617,-9.2617,-9.2617,-9.2617,-9.2617,-9.2617,-9.2617,-9.2617,-9.3437,-9.4297,-9.5156,-9.6054,-9.6875,-9.7695,-9.7695,-9.7695,-9.7695,-9.7695,-9.7695,-9.7695,-9.7695,-9.7695,-9.7695,-9.7695,-9.7695,-9.7695,-9.7695,-9.7695,-9.7695,-9.7695,-9.7695,-9.7695,-9.7695,-9.7695,-9.7812,0.0,0.0,0.0,0.0,0.0,0.0,0.0,0.0,0.0,0.0,0.0,0.0,0.0,-7.3867,-7.3789,-7.4101,-7.4375,-7.4414,-7.414,-7.5195,-7.5586,-7.5078,-7.5547,-7.5976,-7.6367,-7.6601,-7.6875,0.0,0.0,-7.6211,-7.5898,-7.5312,-7.4883,-7.4609,-7.4922,-7.5234,-7.5547,-7.5781,-7.6562,-7.7773,-7.8828,-8.0117,-8.1445,-8.1992,-8.2734,-8.3437,-8.2851,-8.2656,-8.2461,-8.1015,-8.0351,-7.9844,-7.8476,-7.7422,-7.6523,-7.539,-7.5273,0.0,0.0,0.0,0.0,0.0,0.0,0.0,0.0,-8.8359,-8.957,-9.1015,-9.1289,-9.1562,-9.2422,-9.2617,-9.2617,-9.2617,-9.2617,-9.2617,-9.2617,-9.2617,-9.2617,-9.2617,-9.2617,-9.2617,-9.2617,-9.2617,-9.2617,-9.2617,-9.2617,-9.2617,-9.2617,-9.3945,-9.4883,-9.5195,-9.6562,-9.7422,-9.7695,-9.7695,-9.7695,-9.7695,-9.7695,-9.7695,-9.7695,-9.7695,-9.7695,-9.7695,-9.7695,-9.7695,-9.7695,-9.7695,-9.7695,-9.7695,-9.7695,-9.7695,-9.7695,-9.7695,-9.8047,-9.8594,0.0,0.0,0.0,0.0,0.0,0.0,0.0,0.0,-7.6445,-7.5586,0.0,0.0,0.0,0.0,-7.4609,-7.4609,-7.5664,-7.5976,-7.5078,-7.6133,-7.6367,-7.5508,-7.6015,-7.6172,-7.5898,-7.6172,-7.6328,0.0,0.0,0.0,0.0,-7.4414,-7.4023,-7.3711,-7.3711,-7.4062,0.0,-7.5547,-7.6562,-7.7773,-7.9453,-8.1367,-8.3203,-8.3476,-8.4687,-8.6015,-8.4883,-8.4648,-8.4648,-8.289,-8.2109,-8.1562,-7.9883,-7.8164,-7.6406,-7.4687,-7.414,0.0,-7.5586,0.0,0.0,0.0,0.0,0.0,0.0,0.0,-8.8359,-9.0078,-9.0429,-9.0703,-9.1562,-9.1719,-9.1914,-9.25,-9.2617,-9.2617,-9.2617,-9.2617,-9.2617,-9.2617,-9.2617,-9.2617,-9.2617,-9.2617,-9.2617,-9.2617,-9.2617,-9.2617,-9.2617,-9.4258,-9.5469,-9.6015,-9.7109,-9.7695,-9.7695,-9.7695,-9.7695,-9.7695,-9.7695,-9.7695,-9.7695,-9.7695,-9.7695,-9.7695,-9.7695,-9.7695,-9.7695,-9.7695,-9.7695,-9.7695,-9.7695,-9.7695,-9.7695,-9.7695,-9.8242,-9.9023,0.0,0.0,0.0,0.0,0.0,0.0,0.0,0.0,-7.6289,-7.7109,0.0,0.0,0.0,0.0,0.0,-7.4687,-7.6211,-7.6836,-7.5976,-7.5898,-7.6289,-7.7109,-7.5508,-7.5,-7.5859,-7.5039,-7.4609,0.0,0.0,0.0,0.0,0.0,-7.2812,-7.1992,-7.1992,-7.2969,-7.4609,0.0,-7.6875,-7.8594,-8.0351,-8.2617,-8.4804,-8.4023,-8.582,-8.8476,-8.6875,-8.6836,-8.7265,-8.5547,-8.4414,-8.3359,-8.1562,-7.8672,-7.5586,-7.3867,-7.332,0.0,0.0,0.0,0.0,0.0,0.0,0.0,0.0,0.0,-8.664,-8.832,-8.8672,-8.8945,-8.9844,-9.0,-9.0547,-9.2265,-9.2539,-9.2578,-9.2578,-9.2578,-9.2617,-9.2617,-9.2617,-9.2617,-9.2617,-9.2617,-9.2617,-9.2617,-9.2617,-9.2617,-9.2656,-9.4297,-9.5976,-9.7656,-9.7695,-9.7695,-9.7695,-9.7695,-9.7695,-9.7695,-9.7695,-9.7695,-9.7695,-9.7695,-9.7695,-9.7695,-9.7695,-9.7695,-9.7695,-9.7695,-9.7695,-9.7695,-9.7695,-9.7695,-9.7695,-9.7734,-9.8281,-9.914,0.0,0.0,0.0,0.0,0.0,-8.0703,-7.9844,-7.8594,-7.7656,0.0,0.0,0.0,-7.6797,-7.664,-7.6484,-7.6484,-7.6914,-7.7109,-7.6875,-7.625,-7.6015,-7.625,-7.5195,-7.4726,-7.4961,-7.4726,-7.4609,-7.4609,0.0,0.0,0.0,0.0,0.0,0.0,-7.1992,-7.2617,-7.375,-7.5273,0.0,-7.7851,-8.1445,-8.3672,-8.5078,-8.6679,-8.789,-8.8711,-8.8906,-8.8711,-8.8203,-8.7148,-8.6211,-8.4961,-8.1953,-7.9101,-7.6484,-7.4765,-7.3789,0.0,-7.3281,0.0,0.0,0.0,0.0,0.0,0.0,0.0,-8.5742,-8.7461,-8.7812,-8.8281,-8.9726,-9.0,-9.0156,-9.0625,-9.125,-9.164,-9.164,-9.2187,-9.2617,-9.2617,-9.2617,-9.2617,-9.2617,-9.2617,-9.2617,0.0,-9.2617,-9.289,-9.3515,-9.5195,-9.6601,-9.7656,-9.7695,-9.7695,-9.7695,-9.7695,-9.7695,-9.7695,-9.7695,-9.7695,-9.7695,-9.7695,-9.7695,-9.7695,-9.7695,-9.7695,-9.7695,-9.7695,-9.7695,-9.7695,-9.7695,-9.7695,-9.7773,-9.8398,-9.9179,-10.0117,0.0,0.0,-8.2304,-8.2304,-8.1562,-8.082,-8.0312,-7.9258,-7.832,0.0,0.0,0.0,-7.7187,-7.7187,-7.7187,-7.7187,-7.7187,-7.7187,-7.7187,-7.6719,-7.6445,-7.6445,-7.5273,-7.4609,-7.4609,-7.3906,-7.3515,-7.3515,0.0,0.0,0.0,0.0,0.0,0.0,-7.1992,-7.2461,0.0,0.0,0.0,-7.8086,-8.2031,-8.4336,-8.5625,-8.75,-8.8867,-8.9804,-8.9961,-9.0156,-9.0078,-8.8515,-8.6953,-8.5234,-8.2851,-7.9844,-7.6914,-7.5547,-7.4023,0.0,0.0,0.0,0.0,0.0,0.0,0.0,0.0,0.0,0.0,0.0,-8.75,-8.7695,-8.8281,-8.8984,-8.9336,-8.9023,-9.0273,-9.1289,-9.1289,-9.1758,-9.2187,-9.2578,-9.2617,-9.2617,-9.2617,-9.2617,-9.2617,-9.2617,-9.2617,-9.3125,-9.4375,-9.5742,-9.6875,-9.7656,-9.7695,-9.7695,-9.7695,-9.7695,-9.7695,-9.7695,-9.7695,-9.7695,-9.7695,-9.7344,-9.7383,-9.7695,-9.7344,-9.7383,-9.7695,-9.7695,-9.7695,-9.7695,-9.7695,-9.7929,-9.8281,-9.8828,-9.9765,-10.0898,0.0,0.0,-8.2187,-8.2265,-8.164,-8.1094,-8.1015,-7.9726,-7.875,0.0,-7.7969,-7.7461,-7.7461,-7.7383,-7.7344,-7.7344,-7.7265,-7.7187,-7.7187,-7.7109,-7.707,-7.707,-7.539,-7.4453,-7.4453,-7.2851,-7.1992,-7.1992,-7.1992,-7.1992,-7.1992,0.0,0.0,0.0,-7.2148,-7.2695,-7.375,0.0,0.0,-7.9062,-8.25,-8.4765,-8.6172,-8.7461,-8.9258,-9.1054,-9.039,-9.1133,-9.207,-8.9531,-8.7148,-8.5039,-8.4062,-8.1054,-7.7695,-7.6523,-7.4531,0.0,0.0,0.0,0.0,0.0,0.0,0.0,0.0,0.0,0.0,0.0,-8.6992,-8.6875,-8.6172,-8.7265,-8.8047,-8.7344,-8.9101,-9.0703,-9.1094,-9.125,-9.1562,-9.2226,-9.2304,-9.2344,-9.2461,-9.2461,-9.25,-9.2578,-9.2773,-9.3554,-9.5117,-9.6094,-9.6953,-9.7695,-9.7695,-9.7695,-9.7695,-9.7695,-9.7695,-9.7695,-9.7695,-9.7656,-9.7539,-9.6914,-9.6953,-9.7539,-9.6914,-9.7031,-9.7695,-9.7695,-9.7695,-9.7695,-9.7812,-9.832,-9.9023,-9.9219,-10.0312,-10.1601,-8.1094,-8.125,-8.1484,-8.2187,-8.2148,-8.1797,-8.1094,-8.0703,-8.0273,-7.957,-7.9336,-7.9219,-7.9219,-7.8633,-7.8242,-7.8242,-7.7617,-7.7187,-7.7187,-7.6523,-7.6133,-7.6133,-7.4492,-7.3555,-7.3555,-7.2539,-7.1992,-7.1992,-7.1992,-7.1992,-7.1992,-7.1992,0.0,0.0,-7.3047,-7.3906,-7.5508,0.0,0.0,-8.082,-8.4297,-8.5469,-8.5547,-8.9179,-9.0429,-9.0312,-9.0859,-9.125,-9.125,-8.9336,-8.7929,-8.6719,-8.5156,-8.3594,-8.1797,-7.8867,-7.7617,0.0,0.0,0.0,0.0,0.0,-7.4883,0.0,0.0,-7.9375,-8.1211,0.0,-8.3867,-8.4531,-8.5078,-8.5429,-8.5586,-8.5429,-8.582,-8.7109,-8.9883,-9.0859,-9.1094,-9.0586,-9.0508,-9.0781,-9.1484,-9.1562,-9.1836,-9.2539,-9.3906,-9.4844,-9.5195,-9.664,-9.7539,-9.7695,-9.7695,-9.7695,-9.7695,-9.7695,-9.7695,-9.7695,-9.7695,-9.7344,-9.6758,-9.7226,-9.7187,-9.6758,-9.7265,-9.7539,-9.7695,-9.7695,-9.7695,-9.7773,-9.8476,-9.8867,-9.9179,-10.0586,-10.1289,-10.1719,-8.0609,-8.084,-8.1105,-8.1886,-8.1992,-8.1836,-8.1407,-8.1368,-8.1055,-8.0158,-7.9765,-7.9549,-7.9549,-7.9294,-7.9101,-7.9101,-7.8711,-7.8281,-7.7851,-7.7422,-7.6992,-7.6562,-7.4883,-7.3945,-7.3945,-7.2656,-7.2226,-7.2656,-7.2226,-7.2422,-7.3281,-7.2851,0.0,0.0,0.0,0.0,0.0,0.0,-8.0351,-8.25,-8.4687,-8.5547,-8.5937,-8.9336,-9.039,-9.0156,-9.1484,-9.1679,-9.1211,-9.0781,-8.9258,-8.7344,-8.6484,-8.4687,-8.2539,-8.039,-7.914,-7.793,0.0,0.0,0.0,-7.418,-7.5273,0.0,0.0,0.0,-8.0703,-8.2031,-8.2656,-8.3086,-8.3515,-8.4297,-8.4883,-8.4883,-8.5976,-8.7109,-8.7969,-8.8867,-8.9531,-8.9961,-9.0,-9.0156,-9.0625,-9.1054,-9.164,-9.2539,-9.3828,-9.4726,-9.5195,-9.6406,-9.7304,-9.7695,-9.7695,-9.7695,-9.7695,-9.7695,-9.7695,-9.7695,-9.7695,-9.7265,-9.6523,-9.6914,-9.6875,-9.6523,-9.6914,-9.7344,-9.7695,-9.7695,-9.7969,-9.8398,-9.8828,-9.9258,-9.9804,-10.1094,-10.1914,-10.2304,-8.0103,-8.0397,-8.0675,-8.1555,-8.1688,-8.1688,-8.1688,-8.1688,-8.1447,-8.0746,-8.0347,-8.0154,-8.0154,-8.0339,-8.0469,-8.0469,-8.0312,-7.9844,-7.9023,-7.8984,-7.8672,-7.7969,-7.6094,-7.5195,-7.5351,-7.3476,-7.2851,-7.3555,-7.2851,-7.3203,0.0,0.0,0.0,0.0,0.0,0.0,0.0,0.0,0.0,-8.3945,-8.5156,-8.625,-8.7422,-8.9648,-9.0703,-9.1172,-9.2422,-9.2304,-9.164,-9.2344,-9.0664,-8.8203,-8.8047,-8.5937,-8.3242,0.0,0.0,0.0,0.0,0.0,0.0,0.0,-7.5898,-7.7148,0.0,0.0,0.0,0.0,0.0,0.0,0.0,0.0,0.0,0.0,0.0,0.0,0.0,0.0,0.0,-8.9062,-8.9531,-8.9804,-8.9961,-9.1094,-9.1953,-9.2304,-9.3476,-9.4453,-9.5156,-9.6015,-9.6875,-9.7656,-9.7695,-9.7695,-9.7695,-9.7695,-9.7695,-9.7695,-9.7695,-9.7265,-9.6523,-9.664,-9.664,-9.6523,-9.664,-9.7109,-9.7695,-9.789,-9.8359,-9.9023,-9.9179,-9.9765,-10.0703,-10.1484,-10.2304,-10.289,-7.8954,-7.9265,-7.9803,-8.1415,-8.1688,-8.1688,-8.1688,-8.1688,-8.1641,-8.1563,-8.2307,-8.2851,-8.2851,-8.3034,-8.3164,-8.3164,-8.2461,-8.164,-8.0781,-8.0703,-8.0664,-8.0586,-7.8203,-7.7265,-7.8047,-7.5586,-7.4336,-7.4453,-7.4336,0.0,0.0,0.0,0.0,0.0,-7.8203,0.0,0.0,0.0,-8.5195,0.0,-8.7304,-8.9258,-9.0859,-9.1914,-9.3242,-9.4531,-9.3945,-9.3203,-9.2461,-9.2578,-9.1836,-9.0742,-8.9961,-8.8906,-8.7344,-8.4219,0.0,0.0,0.0,0.0,0.0,0.0,-7.5898,-7.6055,-7.6172,0.0,-7.789,-7.875,0.0,0.0,0.0,0.0,0.0,0.0,0.0,0.0,0.0,0.0,0.0,0.0,0.0,-8.914,-8.9922,-9.2187,-9.3008,-9.1562,-9.3672,-9.5117,-9.5195,-9.6015,-9.6875,-9.7656,-9.7695,-9.7695,-9.7695,-9.7695,-9.7695,-9.7695,-9.7695,-9.7265,-9.6523,-9.7226,-9.7187,-9.6523,-9.7265,-9.7617,-9.7773,-9.8515,-9.8906,-9.9062,-9.9844,-10.0703,-10.1601,-10.2383,-10.2812,-10.289,-7.8059,-7.8593,-7.928,-8.0392,-8.1025,-8.1335,-8.1335,-8.1335,-8.1335,-8.1335,-8.2251,-8.2876,-8.2876,-8.4059,-8.4893,-8.4893,-8.4683,-8.4179,-8.332,-8.2773,0.0,-8.1054,-7.9492,-7.8359,-7.7773,-7.6172,-7.5351,-7.5351,-7.4844,0.0,0.0,0.0,0.0,0.0,-7.9219,0.0,-8.2109,0.0,-8.6367,0.0,0.0,-9.1875,-9.414,-9.2461,-9.2929,-9.4453,-9.4609,-9.4101,-9.3359,-9.3359,-9.2773,-9.1914,0.0,0.0,0.0,-8.6719,0.0,0.0,0.0,0.0,0.0,0.0,0.0,-7.7969,-7.7539,-7.7305,-7.7305,0.0,0.0,0.0,0.0,0.0,0.0,0.0,-8.0117,0.0,0.0,0.0,0.0,0.0,0.0,0.0,0.0,-9.1914,-9.2851,-9.2109,-9.3554,-9.4687,-9.5156,-9.5547,-9.6367,-9.7656,-9.7695,-9.7695,-9.7695,-9.7695,-9.7695,-9.7695,-9.7695,-9.7265,-9.6523,-9.7344,-9.7265,-9.6523,-9.7344,-9.7695,-9.7773,-9.8633,-9.9297,-9.9844,-10.0703,-10.1289,-10.1719,-10.2617,-10.289,-10.289,-7.782,-7.8321,-7.8941,-7.9676,-8.0516,-8.1093,-8.1093,-8.1093,-8.117,-8.14,-8.2328,-8.3149,-8.3614,-8.5166,-8.6363,-8.6827,-8.6862,-8.6601,-8.5976,-8.5156,-8.4219,-8.3164,-8.1367,-8.0078,-7.9336,-7.7734,-7.6836,-7.6601,-7.5976,0.0,0.0,0.0,0.0,0.0,0.0,-8.1719,-8.4062,0.0,-8.7734,-9.0117,-9.1211,-9.332,-9.5586,-9.375,-9.3711,-9.4687,-9.5312,-9.5156,-9.4609,-9.4609,-9.3867,-9.289,-9.25,-9.1875,-9.0859,0.0,0.0,0.0,-8.3828,0.0,0.0,-8.0898,-8.0039,-7.9531,-7.8945,-7.8164,0.0,0.0,0.0,0.0,0.0,0.0,0.0,0.0,0.0,0.0,0.0,0.0,0.0,0.0,0.0,0.0,0.0,0.0,0.0,0.0,0.0,-9.4297,-9.5156,-9.5195,-9.5976,-9.7656,-9.7695,-9.7695,-9.7695,-9.7695,-9.7695,-9.7695,-9.7695,-9.7383,-9.6836,-9.7422,-9.7383,-9.6875,-9.7461,-9.7695,-9.7773,-9.8906,-9.9726,-10.039,-10.1484,-10.1992,-10.1992,-10.2695,-10.289,-10.289,-7.8468,-7.8507,-7.8761,-7.9669,-8.0516,-8.1093,-8.1093,-8.1093,-8.1362,-8.217,-8.3178,-8.4517,-8.6209,-8.6763,-8.7729,-8.9442,-8.8971,-8.8594,-8.8594,-8.7812,-8.7695,-8.8437,-8.4453,-8.2969,-8.4609,-8.1328,-7.9219,-7.8437,-7.8398,-7.7969,0.0,0.0,0.0,0.0,-8.1133,-8.3203,-8.5078,-8.8437,-8.9883,-9.0156,-9.1875,-9.3125,-9.4258,-9.6601,-9.7031,-9.6406,-9.6445,-9.6445,-9.6406,-9.6406,-9.5273,-9.3984,-9.4804,-9.3359,0.0,0.0,0.0,0.0,0.0,-8.3594,-8.2304,-8.2226,-8.0937,-7.9687,-7.9687,-7.9023,-7.8476,0.0,0.0,0.0,0.0,0.0,0.0,0.0,0.0,0.0,0.0,0.0,0.0,0.0,0.0,0.0,0.0,0.0,0.0,0.0,0.0,0.0,-9.5156,-9.5195,-9.5976,-9.7656,-9.7695,-9.7695,-9.7695,-9.7695,-9.7695,-9.7695,-9.7695,-9.7695,-9.7656,-9.7695,-9.7695,-9.7656,-9.7695,-9.7695,-9.7812,-9.9531,-10.0312,-10.0508,-10.2187,-10.289,-10.289,-10.289,-10.289,-10.3008,-7.8592,-7.8977,-7.9438,-7.9746,-8.0516,-8.1093,-8.1093,-8.1554,-8.2208,-8.3054,-8.4451,-8.5814,-8.6956,-8.8991,-9.0514,-9.1098,-9.1216,-9.1289,-9.1289,-9.0508,-8.9609,-8.875,-8.7304,-8.5742,-8.4062,-8.2304,-8.0469,-7.8515,-7.8515,-7.8047,0.0,0.0,0.0,0.0,0.0,-8.2734,0.0,0.0,0.0,0.0,0.0,-9.5508,-9.7187,-9.6367,-9.6211,-9.6562,-9.7109,-9.6953,-9.6484,-9.6484,-9.6094,-9.5469,-9.4609,-9.414,-9.3437,-9.1094,-9.0234,-8.9531,-8.7226,-8.6992,-8.6836,-8.4609,-8.4453,-8.4258,-8.1953,-8.1211,0.0,0.0,0.0,0.0,0.0,0.0,0.0,0.0,0.0,0.0,0.0,0.0,0.0,0.0,0.0,0.0,0.0,0.0,0.0,0.0,0.0,0.0,0.0,-9.5195,-9.5976,-9.7656,-9.7695,-9.7695,-9.7695,-9.7695,-9.7695,-9.7695,-9.7695,-9.7695,-9.7695,-9.7695,-9.7695,-9.7695,-9.7695,-9.8047,-9.8633,-9.9804,-10.0586,-10.1289,-10.2383,-10.289,-10.289,-10.289,-10.3281,-10.3984,-7.9515,-7.9862,-8.0169,-7.9862,-8.0516,-8.1208,-8.1477,-8.2208,-8.317,-8.4324,-8.5978,-8.7478,-8.8632,-9.0547,-9.2054,-9.274,-9.2884,-9.3079,-9.3515,-9.2422,-9.1406,-9.0586,-8.9101,-8.7539,-8.5898,-8.3828,-8.1953,-8.0312,-7.9375,-7.8476,0.0,0.0,0.0,0.0,0.0,-8.2812,-8.5937,-8.7344,-8.957,0.0,0.0,-9.6094,0.0,-9.6289,-9.6562,-9.7851,-9.7734,-9.7383,-9.6914,-9.6914,-9.6758,-9.6289,-9.5195,-9.5,-9.4687,-9.207,-9.1289,-9.082,-8.8554,-8.8515,-8.8594,-8.6367,-8.6445,-8.6445,-8.4219,-8.3203,-8.2422,0.0,0.0,0.0,0.0,0.0,0.0,0.0,0.0,0.0,0.0,0.0,0.0,0.0,0.0,0.0,0.0,0.0,0.0,0.0,0.0,0.0,0.0,0.0,-9.5859,-9.7226,-9.7539,-9.7695,-9.7695,-9.7695,-9.7695,-9.7695,-9.7695,-9.7695,-9.7695,-9.7695,-9.7695,-9.7695,-9.7695,-9.8203,-9.9062,-9.9922,-10.0781,-10.1719,-10.2617,-10.289,-10.289,-10.289,-10.3594,-10.4883,-8.1131,-8.117,-8.09,-8.0092,-8.0631,-8.1439,-8.2247,-8.3131,-8.4324,-8.6055,-8.7709,-8.9402,-9.1095,-9.1415,-9.2327,-9.4164,-9.3803,-9.3973,-9.5038,-9.3593,-9.3008,-9.375,-8.9922,-8.8437,-8.9844,-8.5937,-8.375,-8.3554,-8.1054,0.0,0.0,0.0,0.0,0.0,-8.1015,0.0,-8.7539,-8.8359,-8.9765,-9.164,-9.3281,-9.5078,-9.6679,-9.6601,-9.8125,-10.0117,-9.832,-9.7695,-9.7695,-9.7695,-9.7187,-9.6484,-9.6445,-9.5859,-9.4648,-9.2109,-9.1367,-9.1015,-8.9336,-8.832,-8.7734,-8.7695,-8.7109,-8.6484,-8.6367,-8.5039,-8.3828,0.0,0.0,0.0,0.0,0.0,0.0,0.0,0.0,0.0,0.0,0.0,0.0,0.0,0.0,0.0,0.0,0.0,0.0,0.0,0.0,0.0,0.0,0.0,-9.5625,-9.6484,-9.7265,-9.7695,-9.7695,-9.7695,-9.7695,-9.7695,-9.7695,-9.7695,-9.7695,-9.7695,-9.7695,-9.7695,-9.7695,-9.8203,-9.914,-9.9961,-10.0781,-10.1719,-10.2617,-10.289,-10.3008,-10.3008,-10.4101,-10.5703,-8.1862,-8.1977,-8.19,-8.1708,-8.1823,-8.2285,-8.3131,-8.4516,-8.6286,-8.8632,-8.9325,-9.0248,-9.1979,-9.2334,-9.2677,-9.3165,-9.3383,-9.3634,-9.3937,-9.3704,-9.3086,-9.1992,-9.1523,-9.0312,-8.8203,-8.7656,-8.582,-8.2617,-8.1953,0.0,-7.8476,0.0,0.0,0.0,0.0,0.0,-8.7539,-8.8359,-9.082,-9.4258,-9.4687,-9.664,-9.9179,-9.789,-9.8594,-10.0117,-9.832,-9.7695,-9.7695,-9.7695,-9.7187,-9.6406,-9.5742,-9.4922,-9.3984,-9.2656,-9.2265,-9.2187,-9.1719,-9.1445,-9.1133,-9.0508,-9.0625,-9.0469,-8.8515,-8.7695,-8.7031,-8.5781,-8.4648,0.0,0.0,0.0,0.0,0.0,0.0,0.0,0.0,0.0,0.0,0.0,0.0,0.0,0.0,0.0,0.0,0.0,0.0,0.0,0.0,0.0,0.0,-9.6484,-9.7265,-9.7695,-9.7695,-9.7695,-9.7695,-9.7695,-9.7695,-9.7695,-9.7695,-9.7695,-9.7695,-9.7695,-9.7695,-9.8554,-9.9961,-10.0195,-10.1211,-10.2617,-10.2812,-10.3281,-10.3906,-10.4609,-10.5508,-10.6484,-8.2785,-8.317,-8.3555,-8.3901,-8.4286,-8.4439,-8.4209,-8.6555,-8.8863,-9.0287,-9.1441,-9.2518,-9.348,-9.3335,-9.3263,-9.3496,-9.3748,-9.3978,-9.4228,-9.402,-9.3281,-9.1914,-9.1953,-9.0937,-8.8633,-8.832,-8.6992,-8.457,-8.3437,0.0,-8.0156,0.0,0.0,0.0,0.0,-8.4336,-8.8125,-8.9726,-9.2461,-9.5781,-9.5781,-9.7148,0.0,-9.8086,-9.832,-9.9023,-9.8047,-9.7695,-9.7695,-9.7695,-9.7383,-9.6953,-9.6445,-9.5976,-9.5234,-9.3633,-9.3437,-9.3554,-9.2812,-9.289,-9.3047,-9.2578,-9.2539,-9.2226,-9.0742,-8.9804,-8.8984,-8.8047,-8.6875,-8.5898,-8.539,0.0,0.0,0.0,0.0,0.0,0.0,0.0,0.0,0.0,0.0,0.0,0.0,0.0,0.0,0.0,0.0,0.0,0.0,0.0,0.0,-9.5937,-9.7461,-9.8086,-9.7695,-9.8086,-9.8086,-9.7695,-9.7695,-9.7695,-9.7695,-9.7695,-9.7695,-9.7734,-9.8086,-9.9023,-10.0312,-10.0703,-10.1719,-10.289,-10.289,-10.3711,-10.4804,-10.5312,-10.6015,-10.6797,-8.3939,-8.4632,-8.5478,-8.6286,-8.7132,-8.7248,-8.5786,-8.8671,-9.1133,-9.1325,-9.321,-9.4557,-9.4634,-9.3903,-9.3531,-9.3946,-9.4057,-9.429,-9.4756,-9.41,-9.3398,-9.2617,-9.1875,-9.1054,-9.0195,-8.875,-8.789,-8.7656,-8.5156,0.0,0.0,0.0,0.0,0.0,0.0,0.0,0.0,-9.1719,-9.414,-9.6328,-9.6445,-9.6992,-9.7695,-9.7695,-9.7695,-9.7695,-9.7695,-9.7695,-9.7695,-9.7695,-9.7617,-9.7539,-9.7539,-9.7461,-9.6953,-9.4726,-9.4531,-9.4726,-9.332,-9.3398,-9.3945,-9.4023,-9.3515,-9.2929,-9.2929,-9.1679,-9.0469,-9.0351,-8.9101,-8.7969,-8.7851,0.0,0.0,0.0,0.0,0.0,0.0,0.0,0.0,0.0,0.0,0.0,0.0,0.0,0.0,0.0,0.0,0.0,0.0,0.0,0.0,-9.5234,-9.7578,-9.8515,-9.789,-9.8515,-9.8515,-9.7851,-9.7851,-9.7812,-9.7695,-9.7812,-9.7812,-9.7734,-9.8633,-9.9492,-10.039,-10.1211,-10.2109,-10.289,-10.289,-10.3984,-10.5508,-10.5508,-10.6093,-10.6992,-8.567,-8.6363,-8.7209,-8.8094,-8.894,-8.9363,-8.9094,-8.9671,-9.0633,-9.2095,-9.2018,-9.2133,-9.2864,-9.2172,-9.1664,-9.1737,-9.2127,-9.2377,-9.2455,-9.2702,-9.2773,-9.2617,-9.2461,-9.1953,-9.1094,-9.0781,-8.9922,-8.8476,-8.664,-8.5312,0.0,0.0,0.0,0.0,0.0,0.0,-9.0976,-9.2851,0.0,-9.5508,-9.6211,-9.6992,-9.7695,-9.7695,-9.7695,-9.7695,-9.7695,-9.7695,-9.7695,-9.7695,-9.7265,-9.6719,-9.6719,-9.6211,-9.5547,-9.5117,-9.457,-9.4219,-9.4648,-9.4336,-9.4062,-9.4804,-9.4844,-9.4726,-9.4726,-9.3945,-9.3008,-9.2304,-9.1328,-9.039,-8.9687,-8.832,0.0,0.0,0.0,0.0,0.0,0.0,0.0,0.0,0.0,0.0,0.0,0.0,0.0,0.0,0.0,0.0,0.0,0.0,0.0,0.0,-9.6953,0.0,0.0,0.0,-9.8203,-9.8789,-9.8789,-9.8398,-9.7734,-9.8437,-9.8398,-9.7734,-9.8633,-9.9492,-10.039,-10.1211,-10.2109,-10.289,-10.289,-10.3984,-10.5508,-10.5508,-10.6484,-10.789,-8.8556,-8.9094,-8.9633,-9.0517,-9.0979,-9.1248,-9.1248,-9.1248,-9.1556,-9.2402,-9.2479,-9.2672,-9.3095,-9.1979,-9.1219,-9.1331,-9.1684,-9.1926,-9.2068,-9.2825,-9.3086,-9.2617,-9.3476,-9.3125,-9.1328,-9.1758,-9.1133,-8.9375,-8.8554,-8.75,0.0,0.0,0.0,0.0,0.0,-9.0,0.0,0.0,-9.5078,-9.5937,-9.6797,-9.7344,-9.7695,-9.7695,-9.7695,-9.7695,-9.7695,-9.7695,-9.7695,-9.7695,-9.7422,-9.7109,-9.7109,-9.6836,-9.6406,-9.6015,-9.5859,-9.5859,-9.5859,-9.5859,-9.5976,-9.6406,-9.6172,-9.5859,-9.5859,-9.5195,-9.4453,-9.4023,-9.289,-9.1719,-9.082,-9.0,-8.9336,-8.8867,0.0,0.0,0.0,0.0,0.0,0.0,0.0,0.0,0.0,0.0,0.0,0.0,0.0,0.0,0.0,0.0,0.0,0.0,0.0,0.0,-9.832,0.0,-9.8594,-9.8984,-9.8984,-9.8789,-9.8398,-9.8828,-9.8515,-9.7773,-9.9101,-9.9922,-10.039,-10.1719,-10.25,-10.289,-10.3398,-10.4414,-10.5586,-10.6015,-10.6914,-10.8086,-9.1248,-9.1479,-9.171,-9.2364,-9.2479,-9.2556,-9.271,-9.2749,-9.2672,-9.2518,-9.3056,-9.3364,-9.3172,-9.1979,-9.127,-9.1402,-9.1728,-9.2028,-9.2407,-9.3341,-9.375,-9.3437,-9.457,-9.4258,-9.2187,-9.2422,-9.1914,-9.0547,-9.0195,-8.914,-8.75,0.0,0.0,0.0,0.0,0.0,-9.3242,-9.4804,-9.5859,-9.6562,-9.7383,-9.7695,-9.7695,-9.7695,-9.7695,-9.7695,-9.7695,-9.7695,-9.7695,-9.7695,-9.7695,-9.7695,-9.7695,-9.7695,-9.7578,-9.6953,-9.707,-9.7304,-9.6679,-9.6953,-9.7422,-9.7422,-9.7109,-9.6758,-9.6758,-9.6211,-9.5664,-9.5508,-9.4258,-9.289,-9.1992,-9.1719,-9.1484,-9.1172,0.0,0.0,0.0,0.0,0.0,0.0,0.0,0.0,0.0,0.0,0.0,0.0,0.0,0.0,0.0,0.0,0.0,0.0,0.0,-9.8086,-9.8242,0.0,-9.8906,-9.9297,-9.9297,-9.9179,-9.9023,-9.9179,-9.8711,-9.7812,-9.9531,-10.0508,-10.1015,-10.2304,-10.289,-10.3008,-10.3906,-10.4804,-10.5898,-10.6719,-10.7617,-10.8711,-9.2479,-9.2364,-9.2402,-9.2479,-9.2479,-9.2749,-9.348,-9.3595,-9.3326,-9.2595,-9.2556,-9.2326,-9.1518,-9.1287,-9.1227,-9.1224,-9.1653,-9.2243,-9.3047,-9.3589,-9.457,-9.6054,-9.5547,-9.5078,-9.4844,-9.3359,-9.2539,-9.2344,-9.0781,-8.914,-8.7539,0.0,0.0,0.0,-9.2383,-9.3398,-9.5039,-9.5976,-9.6445,-9.6562,-9.7383,-9.7695,-9.7695,-9.7695,-9.7695,-9.7695,-9.7695,-9.7695,-9.7695,-9.7695,-9.7695,-9.7695,-9.7695,-9.7695,-9.7695,-9.7617,-9.7109,-9.6601,-9.6523,-9.6562,-9.6601,-9.6601,-9.7109,-9.7578,-9.7578,-9.7539,-9.7265,-9.6523,-9.5625,-9.4687,-9.3828,-9.3008,-9.2969,-9.4453,0.0,0.0,0.0,0.0,0.0,0.0,0.0,0.0,0.0,0.0,0.0,0.0,0.0,0.0,0.0,0.0,0.0,-9.6406,0.0,-9.9258,-10.0,-9.8554,-9.8594,-10.0195,-10.0195,-9.9765,-9.9023,-9.9804,-9.9258,-9.7812,-9.9531,-10.1211,-10.2695,-10.2812,-10.289,-10.3008,-10.3906,-10.5195,-10.6719,-10.7617,-10.8906,-11.0508,-9.3172,-9.2826,-9.2633,-9.3133,-9.321,-9.3518,-9.4326,-9.4018,-9.3595,-9.3249,-9.2787,-9.2172,-9.1287,-9.1672,-9.1979,-9.1979,-9.2831,-9.3549,-9.3899,-9.4874,-9.5781,-9.6484,-9.664,-9.6484,-9.5976,-9.4765,-9.3906,-9.3398,-9.2695,-9.1445,-8.9804,-9.0469,-9.0859,-9.1094,-9.2695,-9.3789,-9.4492,-9.5898,-9.6484,-9.6562,-9.7383,-9.7695,-9.7695,-9.7695,-9.7695,-9.7695,-9.7695,-9.7695,-9.7695,-9.7695,-9.7695,-9.7695,-9.7695,-9.7695,-9.7695,-9.7695,-9.7461,-9.7226,-9.7226,-9.7226,-9.7226,-9.7226,-9.7461,-9.7695,-9.7695,-9.7695,-9.7617,-9.7304,-9.6562,-9.5703,-9.4844,-9.4804,-9.4844,-9.4492,-9.3672,0.0,0.0,0.0,0.0,0.0,0.0,0.0,0.0,0.0,0.0,0.0,0.0,0.0,0.0,0.0,0.0,-9.7187,0.0,-9.8164,-9.9492,-9.832,-9.8554,-10.0312,-10.0312,-10.0117,-9.9804,-10.0117,-9.9922,-9.9336,-10.0586,-10.1797,-10.289,-10.289,-10.289,-10.3008,-10.4414,-10.539,-10.6211,-10.8086,-10.9218,-11.0,-9.4018,-9.3633,-9.3326,-9.3633,-9.3903,-9.4287,-9.4903,-9.4711,-9.4364,-9.4134,-9.3595,-9.2826,-9.171,-9.2326,-9.2864,-9.2864,-9.38,-9.4522,-9.4755,-9.5847,-9.6601,-9.6836,-9.7383,-9.7304,-9.6523,-9.5664,-9.4765,-9.3906,-9.3633,-9.25,-9.0547,-9.0547,-9.0898,-9.1601,-9.3203,-9.4336,-9.5078,-9.6094,-9.664,-9.6914,-9.7461,-9.7695,-9.7695,-9.7695,-9.7695,-9.7695,-9.7695,-9.7695,-9.7695,-9.7695,-9.7695,-9.7695,-9.7695,-9.7695,-9.7695,-9.7695,-9.7695,-9.7695,-9.7695,-9.7695,-9.7695,-9.7695,-9.7695,-9.7695,-9.7695,-9.7695,-9.7695,-9.7695,-9.7265,-9.6601,-9.5742,-9.6094,-9.6172,-9.5195,-9.5117,-9.4922,0.0,-9.3906,0.0,0.0,0.0,0.0,-9.289,0.0,0.0,0.0,0.0,0.0,0.0,0.0,0.0,0.0,0.0,0.0,-9.8984,-9.8398,-9.8828,-10.0312,-10.0586,-10.0508,-10.0312,-10.0,-10.0117,-10.0312,-10.1211,-10.2109,-10.289,-10.289,-10.289,-10.3086,-10.4804,-10.5781,-10.6484,-10.8789,-11.0,-11.0586,-9.5134,-9.498,-9.4711,-9.3826,-9.4403,-9.498,-9.498,-9.5711,-9.5942,-9.5095,-9.498,-9.4326,-9.2672,-9.321,-9.3672,-9.3672,-9.411,-9.4755,-9.562,-9.6202,-9.6836,-9.7656,-9.7695,-9.7304,-9.6523,-9.5664,-9.4765,-9.3906,-9.3047,-9.1289,-8.8711,-8.8711,-9.1015,-9.5117,-9.4258,-9.5312,-9.7617,-9.6836,-9.6953,-9.7695,-9.7695,-9.7695,-9.7695,-9.7695,-9.7695,-9.7695,-9.7695,-9.7695,-9.7695,-9.7695,-9.7695,-9.7695,-9.7695,-9.7695,-9.7695,-9.7695,-9.7695,-9.7695,-9.7695,-9.7695,-9.7695,-9.7695,-9.7695,-9.7695,-9.7695,-9.7695,-9.7695,-9.7695,-9.7695,-9.7422,-9.664,-9.6484,-9.6758,-9.7539,-9.6289,-9.5781,0.0,-9.6953,0.0,0.0,-9.7656,-9.7304,-9.6523,0.0,0.0,0.0,0.0,0.0,0.0,0.0,0.0,-9.7734,-9.8515,0.0,-9.8984,-9.8984,-9.9414,-10.0312,-10.1211,-10.1094,-10.0312,-9.9414,-9.9492,-10.0312,-10.1211,-10.2109,-10.289,-10.289,-10.289,-10.3086,-10.4804,-10.6484,-10.8203,-10.9883,-11.1718,-11.3203,-9.5057,-9.4518,-9.421,-9.4518,-9.4826,-9.5211,-9.5788,-9.5634,-9.5288,-9.5018,-9.498,-9.4788,-9.4249,-9.4441,-9.4595,-9.4595,-9.5545,-9.6273,-9.6584,-9.7057,-9.7422,-9.7695,-9.7695,-9.7578,-9.7304,-9.6523,-9.5937,-9.5664,-9.539,-9.4531,-9.3125,-9.3125,-9.3554,-9.4336,-9.5273,-9.6133,-9.6914,-9.7187,-9.7461,-9.7695,-9.7695,-9.7695,-9.7695,-9.7695,-9.7695,-9.7695,-9.7695,-9.7695,-9.7695,-9.7695,-9.7695,-9.7695,-9.7695,-9.7695,-9.7695,-9.7695,-9.7695,-9.7695,-9.7695,-9.7695,-9.7695,-9.7695,-9.7695,-9.7695,-9.7695,-9.7695,-9.7695,-9.7695,-9.7695,-9.7617,-9.7383,-9.7304,-9.7383,-9.7656,-9.6797,-9.6289,-9.6797,0.0,-9.5703,-9.5976,-9.6015,-9.5898,-9.5625,-9.5898,0.0,0.0,0.0,0.0,0.0,0.0,0.0,0.0,-9.8281,0.0,-9.8984,-9.8984,-9.9453,-10.0312,-10.0586,-10.0586,-10.0312,-10.0586,-10.0898,-10.1211,-10.2109,-10.2617,-10.289,-10.289,-10.289,-10.3086,-10.4804,-10.6211,-10.7383,-10.9687,-11.1289,-11.2383,-9.548,-9.5057,-9.4864,-9.5403,-9.548,-9.5672,-9.6211,-9.5826,-9.548,-9.548,-9.548,-9.548,-9.548,-9.548,-9.548,-9.548,-9.6437,-9.7012,-9.7012,-9.7448,-9.7695,-9.7695,-9.7695,-9.7695,-9.7695,-9.6914,-9.6484,-9.6484,-9.6172,-9.5742,-9.5195,-9.5195,-9.5078,-9.4922,-9.6015,-9.6679,-9.6992,-9.75,-9.7695,-9.7695,-9.7695,-9.7695,-9.7695,-9.7695,-9.7695,-9.7695,-9.7695,-9.7695,-9.7695,-9.7695,-9.7695,-9.7695,-9.7695,-9.7695,-9.7695,-9.7695,-9.7695,-9.7695,-9.7695,-9.7695,-9.7695,-9.7695,-9.7695,-9.7695,-9.7695,-9.7695,-9.7695,-9.7695,-9.7695,-9.7695,-9.7695,-9.7695,-9.7695,-9.7695,-9.7265,-9.6953,-9.6953,-9.6484,-9.6367,0.0,0.0,-9.664,0.0,-9.6836,-9.6914,0.0,0.0,0.0,0.0,0.0,-9.8281,-9.8515,-9.7969,-9.8125,-9.8984,-9.9336,-9.9922,-10.0781,-10.0781,-10.0781,-10.0781,-10.1719,-10.2109,-10.2109,-10.3008,-10.3594,-10.3789,-10.3203,-10.3281,-10.3984,-10.539,-10.6719,-10.8008,-11.0195,-11.1601,-11.25,-9.6288,-9.6288,-9.6288,-9.6288,-9.6288,-9.6288,-9.6288,-9.6288,-9.6288,-9.6288,-9.6288,-9.6288,-9.6288,-9.6288,-9.6288,-9.6288,-9.6747,-9.7012,-9.7012,-9.7448,-9.7695,-9.7695,-9.7695,-9.7695,-9.7695,-9.6953,-9.6562,-9.6562,-9.5781,-9.5351,-9.5351,-9.5351,-9.582,-9.6562,-9.6562,-9.6992,-9.7695,-9.7695,-9.7695,-9.7695,-9.7695,-9.7695,-9.7695,-9.7695,-9.7695,-9.7695,-9.7695,-9.7695,-9.7695,-9.7695,-9.7695,-9.7695,-9.7695,-9.7695,-9.7695,-9.7695,-9.7695,-9.7695,-9.7695,-9.7695,-9.7695,-9.7695,-9.7695,-9.7695,-9.7695,-9.7695,-9.7695,-9.7695,-9.7695,-9.7695,-9.7695,-9.7695,-9.7695,-9.7695,-9.7695,-9.7695,-9.7695,-9.7695,-9.8281,-9.9922,-9.9414,-9.8906,-9.8906,-9.8164,-9.707,0.0,0.0,0.0,0.0,0.0,-9.8594,-9.7734,-9.7773,-9.8164,-9.8984,-9.9922,-10.0781,-10.1601,-10.1719,-10.1719,-10.1601,-10.2617,-10.3008,-10.289,-10.3789,-10.4687,-10.5312,-10.3594,-10.3906,-10.5586,-10.6406,-10.7812,-10.9492,-11.1289,-11.25,-11.3203,-9.6288,-9.6288,-9.6288,-9.6288,-9.6288,-9.6288,-9.6288,-9.6288,-9.6288,-9.6288,-9.6288,-9.6288,-9.6288,-9.6288,-9.6288,-9.6288,-9.6747,-9.7012,-9.7012,-9.7448,-9.7695,-9.7695,-9.7695,-9.7695,-9.7695,-9.75,-9.7422,-9.7422,-9.7226,-9.7109,-9.7109,-9.7109,-9.7226,-9.7422,-9.7422,-9.7539,-9.7695,-9.7695,-9.7695,-9.7695,-9.7695,-9.7695,-9.7695,-9.7695,-9.7695,-9.7695,-9.7695,-9.7695,-9.7695,-9.7695,-9.7695,-9.7695,-9.7695,-9.7695,-9.7695,-9.7695,-9.7695,-9.7695,-9.7695,-9.7695,-9.7695,-9.7695,-9.7695,-9.7695,-9.7695,-9.7695,-9.7695,-9.7695,-9.7695,-9.7695,-9.7695,-9.7695,-9.7695,-9.7695,-9.7695,-9.7695,-9.7695,-9.7695,-9.7851,-9.8281,-9.8125,-9.8008,-9.8008,-9.7812,-9.7812,-9.8086,0.0,-9.8398,-9.8398,-9.8789,-9.8594,-9.7734,-9.8359,-9.8789,-9.8984,-10.0508,-10.1406,-10.1601,-10.2304,-10.2187,-10.1719,-10.3203,-10.3515,-10.289,-10.3789,-10.4297,-10.4414,-10.3281,-10.3906,-10.5586,-10.6406,-10.7812,-10.9492,-11.1289,-11.25,-11.3203,-9.6288,-9.6288,-9.6288,-9.6288,-9.6288,-9.6288,-9.6288,-9.6288,-9.6288,-9.6288,-9.6288,-9.6288,-9.6288,-9.6288,-9.6288,-9.6288,-9.6747,-9.7012,-9.7012,-9.7448,-9.7695,-9.7695,-9.7695,-9.7695,-9.7695,-9.7695,-9.7695,-9.7695,-9.7695,-9.7695,-9.7695,-9.7695,-9.7695,-9.7695,-9.7695,-9.7695,-9.7695,-9.7695,-9.7695,-9.7695,-9.7695,-9.7695,-9.7695,-9.7695,-9.7695,-9.7695,-9.7695,-9.7695,-9.7695,-9.7695,-9.7695,-9.7695,-9.7695,-9.7695,-9.7695,-9.7695,-9.7695,-9.7695,-9.7695,-9.7695,-9.7695,-9.7695,-9.7695,-9.7695,-9.7695,-9.7695,-9.7695,-9.7695,-9.7695,-9.7695,-9.7695,-9.7695,-9.7695,-9.7695,-9.7695,-9.7695,-9.7695,-9.7695,-9.7695,-9.7695,-9.7695,-9.7695,-9.7695,-9.7695,-9.789,-9.8359,-9.8398,0.0,-9.8398,-9.8398,-9.8203,-9.7695,-9.8554,-9.9179,-9.9609,-10.1289,-10.2187,-10.2187,-10.2695,-10.2695,-10.2304,-10.3984,-10.4492,-10.4101,-10.5,-10.5586,-10.5781,-10.4609,-10.5117,-10.6719,-10.7617,-10.8711,-11.0117,-11.1914,-11.2812,-11.3203,-9.6288,-9.6288,-9.6288,-9.6288,-9.6288,-9.6288,-9.6288,-9.6288,-9.6288,-9.6288,-9.6288,-9.6288,-9.6288,-9.6304,-9.6322,-9.6288,-9.6759,-9.7048,-9.7012,-9.7448,-9.7695,-9.7695,-9.7695,-9.7695,-9.7695,-9.7695,-9.7695,-9.7695,-9.7695,-9.7695,-9.7695,-9.7695,-9.7695,-9.7695,-9.7695,-9.7695,-9.7695,-9.7695,-9.7695,-9.7695,-9.7695,-9.7695,-9.7695,-9.7695,-9.7695,-9.7695,-9.7695,-9.7695,-9.7695,-9.7695,-9.7695,-9.7695,-9.7695,-9.7695,-9.7695,-9.7695,-9.7695,-9.7695,-9.7695,-9.7695,-9.7695,-9.7695,-9.7695,-9.7695,-9.7695,-9.7695,-9.7695,-9.7695,-9.7695,-9.7695,-9.7695,-9.7695,-9.7734,-9.7851,-9.7773,-9.7734,-9.789,-9.7773,-9.7695,-9.7695,-9.7695,-9.7695,-9.7695,-9.7695,-9.7695,-9.7695,-9.7695,-9.7695,-9.7695,-9.7812,-9.789,-9.789,-9.875,-9.9687,-10.0703,-10.2187,-10.289,-10.289,-10.289,-10.3008,-10.3203,-10.4804,-10.5508,-10.5508,-10.6406,-10.7109,-10.7695,-10.6093,-10.6484,-10.8086,-10.8984,-10.9804,-11.0781,-11.2617,-11.3203,-11.3203,-9.6288,-9.6288,-9.6288,-9.6288,-9.6288,-9.6288,-9.6288,-9.6288,-9.6288,-9.6288,-9.6288,-9.6288,-9.6288,-9.6442,-9.6483,-9.6325,-9.6953,-9.724,-9.7021,-9.7448,-9.7695,-9.7695,-9.7695,-9.7695,-9.7695,-9.7695,-9.7695,-9.7695,-9.7695,-9.7695,-9.7695,-9.7695,-9.7695,-9.7695,-9.7695,-9.7695,-9.7695,-9.7695,-9.7695,-9.7695,-9.7695,-9.7695,-9.7695,-9.7695,-9.7695,-9.7695,-9.7695,-9.7695,-9.7695,-9.7695,-9.7695,-9.7695,-9.7695,-9.7695,-9.7695,-9.7695,-9.7695,-9.7695,-9.7695,-9.7695,-9.7695,-9.7695,-9.7695,-9.7695,-9.7695,-9.7695,-9.7695,-9.7695,-9.7695,-9.7695,-9.7695,-9.7695,-9.7929,-9.8672,-9.8164,-9.7969,-9.8672,-9.8164,-9.7695,-9.7695,-9.7695,-9.7695,-9.7695,-9.7695,-9.7695,-9.7695,-9.7695,-9.7695,-9.7695,-9.8398,-9.8789,-9.8789,-9.9648,-10.0898,-10.25,-10.2812,-10.289,-10.289,-10.289,-10.3281,-10.3984,-10.5,-10.5508,-10.5508,-10.6406,-10.6797,-10.6797,-10.5898,-10.6484,-10.8086,-10.8984,-10.9804,-11.0781,-11.2617,-11.3203,-11.3203,-9.6288,-9.6288,-9.6288,-9.6288,-9.6288,-9.6288,-9.6288,-9.6288,-9.6288,-9.6288,-9.6288,-9.6288,-9.6288,-9.6467,-9.6556,-9.649,-9.703,-9.7343,-9.7233,-9.7511,-9.7695,-9.7695,-9.7695,-9.7695,-9.7695,-9.7695,-9.7695,-9.7695,-9.7695,-9.7695,-9.7695,-9.7695,-9.7695,-9.7695,-9.7695,-9.7695,-9.7695,-9.7695,-9.7695,-9.7695,-9.7695,-9.7695,-9.7695,-9.7695,-9.7695,-9.7695,-9.7695,-9.7695,-9.7695,-9.7695,-9.7695,-9.7695,-9.7695,-9.7695,-9.7695,-9.7695,-9.7695,-9.7695,-9.7695,-9.7695,-9.7695,-9.7695,-9.7695,-9.7695,-9.7695,-9.7695,-9.7695,-9.7695,-9.7695,-9.7695,-9.7695,-9.7695,-9.7812,-9.8242,-9.7969,-9.7851,-9.8242,-9.7969,-9.7695,-9.7695,-9.7695,-9.7695,-9.7695,-9.7695,-9.7695,-9.7695,-9.8125,-9.8398,-9.8398,-9.9219,-9.9687,-9.9687,-10.0508,-10.1601,-10.289,-10.289,-10.289,-10.289,-10.289,-10.3398,-10.4219,-10.5117,-10.5703,-10.6211,-10.6992,-10.7383,-10.7383,-10.6992,-10.7304,-10.8086,-10.9492,-11.0195,-11.0781,-11.2617,-11.3203,-11.3203,-9.6288,-9.6288,-9.6288,-9.6288,-9.6288,-9.6288,-9.6288,-9.6288,-9.6288,-9.6288,-9.6288,-9.6288,-9.6288,-9.6545,-9.6682,-9.6602,-9.7138,-9.7554,-9.7685,-9.7682,-9.7695,-9.7695,-9.7695,-9.7695,-9.7695,-9.7695,-9.7695,-9.7695,-9.7695,-9.7695,-9.7695,-9.7695,-9.7695,-9.7695,-9.7695,-9.7695,-9.7695,-9.7695,-9.7695,-9.7695,-9.7695,-9.7695,-9.7695,-9.7695,-9.7695,-9.7695,-9.7695,-9.7695,-9.7695,-9.7695,-9.7695,-9.7695,-9.7695,-9.7695,-9.7695,-9.7695,-9.7695,-9.7695,-9.7695,-9.7695,-9.7695,-9.7695,-9.7695,-9.7695,-9.7695,-9.7695,-9.7695,-9.7695,-9.7695,-9.7695,-9.7695,-9.7695,-9.7773,-9.7969,-9.7812,-9.7773,-9.7969,-9.7812,-9.7695,-9.7695,-9.789,-9.8008,-9.8008,-9.8203,-9.8281,-9.8281,-9.8906,-9.9297,-9.9297,-10.0117,-10.0703,-10.0898,-10.1406,-10.1992,-10.289,-10.289,-10.289,-10.289,-10.3086,-10.3711,-10.4492,-10.539,-10.6211,-10.6992,-10.7695,-10.8008,-10.8008,-10.8008,-10.8008,-10.8203,-10.9883,-11.0586,-11.0781,-11.2617,-11.3203,-11.3203,-9.6288,-9.6288,-9.6288,-9.6288,-9.6288,-9.6288,-9.6288,-9.6288,-9.6288,-9.6288,-9.6288,-9.6288,-9.6288,-9.6708,-9.6882,-9.6616,-9.7249,-9.7959,-9.8552,-9.8034,-9.7695,-9.7695,-9.7695,-9.7695,-9.7695,-9.7695,-9.7695,-9.7695,-9.7695,-9.7695,-9.7695,-9.7695,-9.7695,-9.7695,-9.7695,-9.7695,-9.7695,-9.7695,-9.7695,-9.7695,-9.7695,-9.7695,-9.7695,-9.7695,-9.7695,-9.7695,-9.7695,-9.7695,-9.7695,-9.7695,-9.7695,-9.7695,-9.7695,-9.7695,-9.7695,-9.7695,-9.7695,-9.7695,-9.7695,-9.7695,-9.7695,-9.7695,-9.7695,-9.7695,-9.7695,-9.7695,-9.7695,-9.7695,-9.7695,-9.7695,-9.7695,-9.7695,-9.7969,-9.8789,-9.8242,-9.7969,-9.8789,-9.8203,-9.7695,-9.7695,-9.8398,-9.8906,-9.8906,-9.9648,-10.0117,-10.0117,-10.0195,-10.0195,-10.0195,-10.1015,-10.1914,-10.2695,-10.1992,-10.1992,-10.289,-10.289,-10.289,-10.289,-10.3711,-10.4609,-10.539,-10.6211,-10.7109,-10.789,-10.8008,-10.8008,-10.8008,-10.8008,-10.8008,-10.8203,-10.9883,-11.0586,-11.0781,-11.2617,-11.3203,-11.3086,-9.6288,-9.6288,-9.6288,-9.6288,-9.6288,-9.6288,-9.6288,-9.6288,-9.6288,-9.6288,-9.642,-9.6483,-9.6483,-9.6944,-9.722,-9.7107,-9.7965,-9.8593,-9.8855,-9.863,-9.8242,-9.7734,-9.7695,-9.7695,-9.7695,-9.7695,-9.7695,-9.7695,-9.7695,-9.7695,-9.7695,-9.7695,-9.7695,-9.7695,-9.7695,-9.7695,-9.7695,-9.7695,-9.7695,-9.7695,-9.7695,-9.7695,-9.7695,-9.7695,-9.7695,-9.7695,-9.7695,-9.7695,-9.7695,-9.7695,-9.7695,-9.7695,-9.7695,-9.7695,-9.7695,-9.7695,-9.7695,-9.7695,-9.7695,-9.7695,-9.7695,-9.7695,-9.7695,-9.7695,-9.7695,-9.7695,-9.7695,-9.7695,-9.7695,-9.7695,-9.7695,-9.7695,-9.7812,-9.8125,-9.7929,-9.7812,-9.8164,-9.789,-9.789,-9.8437,-9.8789,-9.9219,-9.9765,-10.0117,-10.0312,-10.0312,-10.0781,-10.1094,-10.1094,-10.1914,-10.2617,-10.289,-10.2617,-10.2617,-10.289,-10.289,-10.289,-10.289,-10.3789,-10.4687,-10.5508,-10.6289,-10.7187,-10.8008,-10.8008,-10.8008,-10.8008,-10.8008,-10.8008,-10.8203,-10.9883,-11.0586,-11.0781,-11.2617,-11.3203,-11.3086,-9.6288,-9.6288,-9.6288,-9.6288,-9.6288,-9.6288,-9.6288,-9.6288,-9.6288,-9.6288,-9.649,-9.6588,-9.6588,-9.7082,-9.7529,-9.7763,-9.8541,-9.9219,-9.9765,-9.957,-9.8906,-9.7734,-9.7695,-9.7695,-9.7695,-9.7695,-9.7695,-9.7695,-9.7695,-9.7695,-9.7695,-9.7695,-9.7695,-9.7695,-9.7695,-9.7695,-9.7695,-9.7695,-9.7695,-9.7695,-9.7695,-9.7695,-9.7695,-9.7695,-9.7695,-9.7695,-9.7695,-9.7695,-9.7695,-9.7695,-9.7695,-9.7695,-9.7695,-9.7695,-9.7695,-9.7695,-9.7695,-9.7695,-9.7695,-9.7695,-9.7695,-9.7695,-9.7695,-9.7695,-9.7695,-9.7695,-9.7695,-9.7695,-9.7695,-9.7695,-9.7695,-9.7695,-9.7695,-9.7695,-9.7929,-9.8125,-9.8125,-9.8359,-9.875,-9.9336,-9.9648,-10.0117,-10.0703,-10.1015,-10.1094,-10.1094,-10.1719,-10.1992,-10.1992,-10.2617,-10.289,-10.289,-10.289,-10.289,-10.289,-10.289,-10.3008,-10.3281,-10.4219,-10.5117,-10.5898,-10.6719,-10.7383,-10.8008,-10.8008,-10.8008,-10.8008,-10.8008,-10.8008,-10.8086,-10.9609,-11.039,-11.0781,-11.2187,-11.3008,-11.3008,-9.6288,-9.6288,-9.6288,-9.6288,-9.6288,-9.6288,-9.6288,-9.6288,-9.6288,-9.6288,-9.6467,-9.6602,-9.6641,-9.7091,-9.7763,-9.8621,-9.8893,-9.9765,-10.1484,-10.0781,-9.9531,-9.7773,-9.7695,-9.7695,-9.7695,-9.7695,-9.7695,-9.7695,-9.7695,-9.7695,-9.7695,-9.7695,-9.7695,-9.7695,-9.7695,-9.7695,-9.7695,-9.7695,-9.7695,-9.7695,-9.7695,-9.7695,-9.7695,-9.7695,-9.7695,-9.7695,-9.7695,-9.7695,-9.7695,-9.7695,-9.7695,-9.7734,-9.7734,-9.7734,-9.7734,-9.7734,-9.7734,-9.7734,-9.7734,-9.7734,-9.7734,-9.7695,-9.7695,-9.7695,-9.7695,-9.7695,-9.7695,-9.7695,-9.7695,-9.7695,-9.7695,-9.7695,-9.7695,-9.7695,-9.8437,-9.9023,-9.9023,-9.9765,-10.0312,-10.0312,-10.1094,-10.1601,-10.1601,-10.2383,-10.289,-10.289,-10.289,-10.289,-10.289,-10.289,-10.289,-10.289,-10.289,-10.289,-10.289,-10.289,-10.3281,-10.4219,-10.5117,-10.5898,-10.6719,-10.7617,-10.8008,-10.8008,-10.8008,-10.8008,-10.8008,-10.8008,-10.8008,-10.8086,-10.8984,-10.9804,-11.0703,-11.1601,-11.25,-11.3008,-9.6288,-9.6288,-9.6288,-9.6288,-9.6288,-9.6288,-9.6288,-9.6288,-9.6338,-9.6499,-9.7251,-9.7869,-9.8034,-9.8885,-9.9522,-9.9796,-10.0389,-10.1015,-10.1601,-10.1406,-10.039,-9.8672,-9.8047,-9.7695,-9.7695,-9.7695,-9.7695,-9.7695,-9.7695,-9.7695,-9.7695,-9.7695,-9.7695,-9.7695,-9.7695,-9.7695,-9.7695,-9.7695,-9.7695,-9.7695,-9.7695,-9.7695,-9.7695,-9.7695,-9.7695,-9.7695,-9.7695,-9.8086,-9.8594,-9.8594,-9.9023,-9.9531,-9.9531,-9.9531,-9.9531,-9.9531,-9.9531,-9.9531,-9.9531,-9.9531,-9.9219,-9.8008,-9.7695,-9.7695,-9.7695,-9.7695,-9.7695,-9.7695,-9.7695,-9.7695,-9.7695,-9.8203,-9.8594,-9.8594,-9.9336,-9.9922,-9.9922,-10.0117,-10.0508,-10.1094,-10.1406,-10.1797,-10.25,-10.2695,-10.289,-10.289,-10.289,-10.289,-10.289,-10.289,-10.289,-10.289,-10.289,-10.289,-10.289,-10.289,-10.3281,-10.4219,-10.5117,-10.5898,-10.6719,-10.7617,-10.8008,-10.8008,-10.8008,-10.8008,-10.8008,-10.8008,-10.8008,-10.8086,-10.8984,-10.9804,-11.0703,-11.1601,-11.25,-11.3008,-9.6575,-9.649,-9.6415,-9.6415,-9.6415,-9.6415,-9.6415,-9.6522,-9.6623,-9.6732,-9.7751,-9.852,-9.869,-9.9672,-10.039,-10.0781,-10.1601,-10.2109,-10.2109,-10.1797,-10.1015,-9.957,-9.8672,-9.8047,-9.7695,-9.7695,-9.7695,-9.7695,-9.7695,-9.7695,-9.7695,-9.7695,-9.7695,-9.7695,-9.7695,-9.7695,-9.7695,-9.7695,-9.7695,-9.7695,-9.7695,-9.7695,-9.7695,-9.7695,-9.7695,-9.7734,-9.8086,-9.8554,-9.9062,-9.9414,-9.9844,-10.0312,-10.0312,-10.0312,-10.0312,-10.0312,-10.0312,-10.0312,-10.0312,-10.0312,-10.0,-9.8984,-9.8711,-9.8711,-9.8711,-9.8711,-9.8711,-9.8711,-9.8711,-9.8711,-9.8711,-9.914,-9.9492,-9.9492,-10.0195,-10.0781,-10.0781,-10.1094,-10.1484,-10.2109,-10.2109,-10.2304,-10.2812,-10.289,-10.289,-10.289,-10.289,-10.289,-10.289,-10.289,-10.289,-10.289,-10.289,-10.3086,-10.3398,-10.3398,-10.3906,-10.4687,-10.5586,-10.6406,-10.7187,-10.7812,-10.8008,-10.8008,-10.8008,-10.8008,-10.8008,-10.8008,-10.8008,-10.8086,-10.8593,-10.9297,-11.0195,-11.1093,-11.1718,-11.1992,-9.7012,-9.6804,-9.6643,-9.6643,-9.6643,-9.6643,-9.6643,-9.6849,-9.706,-9.7156,-9.8111,-9.886,-9.8947,-9.991,-10.0898,-10.1601,-10.2383,-10.289,-10.289,-10.2187,-10.1289,-10.0312,-9.9531,-9.8672,-9.7734,-9.7695,-9.7695,-9.7695,-9.7695,-9.7695,-9.7695,-9.7695,-9.7695,-9.7695,-9.7695,-9.7695,-9.7695,-9.7695,-9.7695,-9.7695,-9.7695,-9.7695,-9.7695,-9.7695,-9.7734,-9.7929,-9.8711,-9.9101,-9.9375,-10.0195,-10.0508,-10.0508,-10.0508,-10.0508,-10.0508,-10.0508,-10.0508,-10.0508,-10.0508,-10.0508,-10.0508,-10.0508,-10.0508,-10.0508,-10.0312,-10.0312,-10.0312,-10.0312,-10.0312,-10.0312,-10.0312,-10.039,-10.039,-10.039,-10.1094,-10.1719,-10.1719,-10.2383,-10.289,-10.289,-10.289,-10.289,-10.289,-10.289,-10.289,-10.289,-10.289,-10.289,-10.289,-10.289,-10.289,-10.289,-10.3008,-10.3398,-10.4219,-10.4297,-10.4804,-10.5586,-10.6289,-10.7187,-10.8008,-10.8008,-10.8008,-10.8008,-10.8008,-10.8008,-10.8008,-10.8008,-10.8008,-10.8008,-10.8008,-10.8515,-10.9414,-11.0195,-11.0508,-11.0508,-9.7012,-9.6964,-9.6924,-9.6924,-9.6924,-9.6924,-9.6924,-9.6974,-9.7316,-9.8207,-9.9114,-9.9982,-10.0892,-10.1796,-10.2383,-10.2617,-10.2812,-10.289,-10.289,-10.2695,-10.1914,-10.039,-10.0117,-9.9297,-9.7734,-9.7695,-9.7695,-9.7695,-9.7695,-9.7695,-9.7695,-9.7695,-9.7695,-9.7695,-9.7695,-9.7695,-9.7695,-9.7695,-9.7695,-9.7695,-9.7695,-9.7695,-9.7695,-9.7695,-9.8125,-9.875,-9.8945,-9.9883,-10.1211,-10.1992,-10.2304,-10.2304,-10.2304,-10.2304,-10.2304,-10.2304,-10.2304,-10.2304,-10.2304,-10.2304,-10.2304,-10.2304,-10.2304,-10.1992,-10.0586,-10.0312,-10.0312,-10.0312,-10.0312,-10.0312,-10.0312,-10.0898,-10.1289,-10.1289,-10.1992,-10.2617,-10.2617,-10.2812,-10.289,-10.289,-10.289,-10.289,-10.289,-10.289,-10.289,-10.289,-10.289,-10.289,-10.289,-10.289,-10.289,-10.289,-10.3594,-10.3984,-10.4219,-10.5508,-10.6289,-10.6406,-10.6601,-10.7187,-10.8008,-10.8008,-10.8008,-10.8008,-10.8008,-10.8008,-10.8008,-10.8008,-10.8008,-10.8008,-10.8008,-10.8515,-10.9297,-10.9492,-10.9609,-10.9492,-9.7319,-9.7265,-9.7206,-9.7206,-9.7206,-9.7206,-9.7206,-9.7277,-9.7537,-9.8136,-9.9312,-10.0299,-10.0898,-10.2109,-10.289,-10.289,-10.289,-10.289,-10.289,-10.289,-10.2109,-10.039,-10.0312,-9.9492,-9.7734,-9.7695,-9.7695,-9.7695,-9.7695,-9.7695,-9.7695,-9.7695,-9.7695,-9.7695,-9.7695,-9.7695,-9.7695,-9.7695,-9.7695,-9.7695,-9.7695,-9.7695,-9.7695,-9.7695,-9.8242,-9.9062,-9.9453,-10.0703,-10.2304,-10.2695,-10.289,-10.289,-10.289,-10.289,-10.289,-10.289,-10.289,-10.289,-10.289,-10.289,-10.289,-10.289,-10.289,-10.2695,-10.1719,-10.1484,-10.1484,-10.1484,-10.1484,-10.1484,-10.1484,-10.1914,-10.2109,-10.1719,-10.2304,-10.2812,-10.2304,-10.2617,-10.289,-10.289,-10.289,-10.289,-10.289,-10.289,-10.289,-10.289,-10.289,-10.289,-10.289,-10.3281,-10.3515,-10.3515,-10.4414,-10.5,-10.539,-10.6289,-10.6914,-10.7304,-10.7304,-10.7617,-10.8008,-10.8008,-10.8008,-10.8008,-10.8008,-10.8008,-10.8008,-10.8008,-10.8008,-10.8008,-10.8008,-10.8281,-10.8711,-10.9101,-10.8984,-10.8515,-9.7695,-9.7559,-9.7437,-9.7437,-9.7437,-9.7437,-9.7437,-9.7606,-9.7734,-9.789,-9.9297,-10.039,-10.0508,-10.1914,-10.289,-10.289,-10.289,-10.289,-10.289,-10.2812,-10.1992,-10.039,-10.0195,-9.9336,-9.7734,-9.7695,-9.7695,-9.7695,-9.7695,-9.7695,-9.7695,-9.7695,-9.7695,-9.7695,-9.7695,-9.7695,-9.7695,-9.7695,-9.7695,-9.7695,-9.7695,-9.7695,-9.7734,-9.7851,-9.8476,-9.9336,-10.0195,-10.1484,-10.289,-10.289,-10.289,-10.289,-10.289,-10.289,-10.289,-10.289,-10.289,-10.289,-10.289,-10.289,-10.289,-10.289,-10.289,-10.289,-10.289,-10.289,-10.289,-10.2695,-10.2695,-10.2695,-10.2695,-10.2617,-10.2304,-10.1719,-10.2187,-10.2383,-10.1719,-10.2383,-10.289,-10.289,-10.289,-10.289,-10.289,-10.289,-10.289,-10.289,-10.3008,-10.3086,-10.3086,-10.3906,-10.4414,-10.4414,-10.5312,-10.6015,-10.6719,-10.6797,-10.7304,-10.8008,-10.8008,-10.8008,-10.8008,-10.8008,-10.8008,-10.8008,-10.8008,-10.8008,-10.8008,-10.8008,-10.8008,-10.8008,-10.8008,-10.8008,-10.8086,-10.8515,-10.8203,-10.7383,-9.7695,-9.7695,-9.7655,-9.7655,-9.7655,-9.7655,-9.7655,-9.7695,-9.7969,-9.8711,-9.9687,-10.0586,-10.1289,-10.2304,-10.289,-10.289,-10.289,-10.289,-10.289,-10.2187,-10.1289,-10.0312,-9.957,-9.8711,-9.7734,-9.7695,-9.7695,-9.7695,-9.7695,-9.7695,-9.7695,-9.7695,-9.7695,-9.7695,-9.7695,-9.7695,-9.7695,-9.7695,-9.7695,-9.7695,-9.7695,-9.7695,-9.7773,-9.8554,-9.9375,-10.0195,-10.1094,-10.2109,-10.289,-10.289,-10.289,-10.289,-10.289,-10.289,-10.289,-10.289,-10.289,-10.289,-10.289,-10.289,-10.289,-10.289,-10.289,-10.289,-10.289,-10.289,-10.2695,-10.1914,-10.1797,-10.1797,-10.1797,-10.1211,-10.0898,-10.1484,-10.1719,-10.1719,-10.1601,-10.2383,-10.289,-10.289,-10.289,-10.289,-10.289,-10.289,-10.289,-10.289,-10.3594,-10.3984,-10.3984,-10.4883,-10.5312,-10.5312,-10.6093,-10.6601,-10.6719,-10.7383,-10.789,-10.8008,-10.8008,-10.8008,-10.8008,-10.8008,-10.8008,-10.8008,-10.8008,-10.8008,-10.8008,-10.8008,-10.8008,-10.8008,-10.8008,-10.8008,-10.7812,-10.6484,-10.5898,-10.5703,-9.7695,-9.7695,-9.7695,-9.7695,-9.7695,-9.7695,-9.7695,-9.7695,-9.7851,-9.8203,-9.9023,-9.9922,-10.0781,-10.2109,-10.289,-10.289,-10.289,-10.2695,-10.2187,-10.1797,-10.1015,-9.9648,-9.9219,-9.8594,-9.7734,-9.7695,-9.7695,-9.7695,-9.7695,-9.7695,-9.7695,-9.7695,-9.7695,-9.7695,-9.7695,-9.7695,-9.7695,-9.7695,-9.7695,-9.7695,-9.7695,-9.8008,-9.8476,-9.8867,-9.9844,-10.1094,-10.1992,-10.2617,-10.289,-10.289,-10.289,-10.289,-10.289,-10.289,-10.289,-10.289,-10.289,-10.289,-10.289,-10.25,-10.2304,-10.2812,-10.2187,-10.1601,-10.2109,-10.1797,-10.1484,-10.1601,-10.1211,-10.0898,-10.0898,-10.0586,-10.0312,-10.0195,-10.0586,-10.0703,-10.0195,-10.0898,-10.1601,-10.2109,-10.2617,-10.289,-10.289,-10.3281,-10.3594,-10.3594,-10.4414,-10.4883,-10.4883,-10.5703,-10.6211,-10.6211,-10.6992,-10.7383,-10.7383,-10.7812,-10.8008,-10.8008,-10.8008,-10.8008,-10.8008,-10.8008,-10.8008,-10.8008,-10.8008,-10.8008,-10.8008,-10.75,-10.7304,-10.7187,-10.6797,-10.6601,-10.6484,-10.5195,-10.4804,-10.4609]},{"header":{"parameterUnit":"m.s-1","parameterCategory":1,"la1":30.6,"la2":28.766,"lo1":-90.7593,"lo2":-88.6598,"dx":0.0162,"dy":0.0183,"nx":116,"ny":114,"refTime":"2023-01-12T06:00:00:Z","depth":0,"parameterNumber":3,"parameterNumberName":"V-component_of_WINDS"},"data":[0.0,0.0,0.0,0.0,0.0,0.0,0.0,0.0,0.0,0.0,0.0,0.0,0.0,0.0,0.0,0.0,0.0,0.0,0.0,0.0,0.0,0.0,0.0,0.0,0.0,0.0,0.0,0.0,0.0,0.0,0.0,0.0,0.0,0.0,0.0,0.0,0.0,0.0,0.0,0.0,0.0,0.0,0.0,0.0,0.0,0.0,0.0,0.0,0.0,0.0,0.0,0.0,0.0,0.0,0.0,0.0,0.0,0.0,0.0,0.0,0.0,0.0,0.0,0.0,0.0,0.0,0.0,0.0,0.0,0.0,0.0,0.0,0.0,0.0,0.0,0.0,0.0,0.0,0.0,0.0,0.0,0.0,0.0,0.0,0.0,0.0,0.0,0.0,0.0,0.0,0.0,0.0,0.0,0.0,0.0,0.0,0.0,0.0,0.0,0.0,0.0,0.0,0.0,0.0,0.0,0.0,0.0,0.0,0.0,0.0,0.0,0.0,0.0,0.0,0.0,0.0,0.0,0.0,0.0,0.0,0.0,0.0,0.0,0.0,0.0,0.0,0.0,0.0,0.0,0.0,0.0,0.0,0.0,0.0,0.0,0.0,0.0,0.0,0.0,0.0,0.0,0.0,0.0,0.0,0.0,0.0,0.0,0.0,0.0,0.0,0.0,0.0,0.0,0.0,0.0,0.0,0.0,0.0,0.0,0.0,0.0,0.0,0.0,0.0,0.0,0.0,0.0,0.0,0.0,0.0,0.0,0.0,0.0,0.0,0.0,0.0,0.0,0.0,0.0,0.0,0.0,0.0,0.0,0.0,0.0,0.0,0.0,0.0,0.0,0.0,0.0,0.0,0.0,0.0,0.0,0.0,0.0,0.0,0.0,0.0,0.0,0.0,0.0,0.0,0.0,0.0,0.0,0.0,0.0,0.0,0.0,0.0,0.0,0.0,0.0,0.0,0.0,0.0,0.0,0.0,0.0,0.0,0.0,0.0,0.0,0.0,0.0,0.0,0.0,0.0,0.0,0.0,0.0,0.0,0.0,0.0,0.0,0.0,0.0,0.0,0.0,0.0,0.0,0.0,0.0,0.0,0.0,0.0,0.0,0.0,0.0,0.0,0.0,0.0,0.0,0.0,0.0,0.0,0.0,0.0,0.0,0.0,0.0,0.0,0.0,0.0,0.0,0.0,0.0,0.0,0.0,0.0,0.0,0.0,0.0,0.0,0.0,0.0,0.0,0.0,0.0,0.0,0.0,0.0,0.0,0.0,0.0,0.0,0.0,0.0,0.0,0.0,0.0,0.0,0.0,0.0,0.0,0.0,0.0,0.0,0.0,0.0,0.0,0.0,0.0,0.0,0.0,0.0,0.0,0.0,0.0,0.0,0.0,0.0,0.0,0.0,0.0,0.0,0.0,0.0,0.0,0.0,0.0,0.0,0.0,0.0,0.0,0.0,0.0,0.0,0.0,0.0,0.0,0.0,0.0,0.0,0.0,0.0,0.0,0.0,0.0,0.0,0.0,0.0,0.0,0.0,0.0,0.0,0.0,0.0,0.0,0.0,0.0,0.0,0.0,0.0,0.0,0.0,0.0,0.0,0.0,0.0,0.0,0.0,0.0,0.0,0.0,0.0,0.0,0.0,0.0,0.0,0.0,0.0,0.0,0.0,0.0,0.0,0.0,0.0,0.0,0.0,0.0,0.0,0.0,0.0,0.0,0.0,0.0,0.0,0.0,0.0,0.0,0.0,0.0,0.0,0.0,0.0,0.0,0.0,0.0,0.0,0.0,0.0,0.0,0.0,0.0,0.0,0.0,0.0,0.0,0.0,0.0,0.0,0.0,0.0,0.0,0.0,0.0,0.0,0.0,0.0,0.0,0.0,0.0,0.0,0.0,0.0,0.0,0.0,0.0,0.0,0.0,0.0,0.0,0.0,0.0,0.0,0.0,0.0,0.0,0.0,0.0,0.0,0.0,0.0,0.0,0.0,0.0,0.0,0.0,0.0,0.0,0.0,0.0,0.0,0.0,0.0,0.0,0.0,0.0,0.0,0.0,0.0,0.0,0.0,0.0,0.0,0.0,0.0,0.0,0.0,0.0,0.0,0.0,0.0,0.0,0.0,0.0,0.0,0.0,0.0,0.0,0.0,0.0,0.0,0.0,0.0,0.0,0.0,0.0,0.0,0.0,0.0,0.0,0.0,0.0,0.0,0.0,0.0,0.0,0.0,0.0,0.0,0.0,0.0,0.0,0.0,0.0,0.0,0.0,0.0,0.0,0.0,0.0,0.0,0.0,0.0,0.0,0.0,0.0,0.0,0.0,0.0,0.0,0.0,0.0,0.0,0.0,0.0,0.0,0.0,0.0,0.0,0.0,0.0,0.0,0.0,0.0,0.0,0.0,0.0,0.0,0.0,0.0,0.0,0.0,0.0,0.0,0.0,0.0,0.0,0.0,0.0,0.0,0.0,0.0,0.0,0.0,0.0,0.0,0.0,0.0,0.0,0.0,0.0,0.0,0.0,0.0,0.0,0.0,0.0,0.0,0.0,0.0,0.0,0.0,0.0,0.0,0.0,0.0,0.0,0.0,0.0,0.0,0.0,0.0,0.0,0.0,0.0,0.0,0.0,0.0,0.0,0.0,0.0,0.0,0.0,0.0,0.0,0.0,0.0,0.0,0.0,0.0,0.0,0.0,0.0,0.0,0.0,0.0,0.0,0.0,0.0,0.0,0.0,0.0,0.0,0.0,0.0,0.0,0.0,0.0,0.0,0.0,0.0,0.0,0.0,0.0,0.0,0.0,0.0,0.0,0.0,0.0,0.0,0.0,0.0,0.0,0.0,0.0,0.0,0.0,0.0,0.0,0.0,0.0,0.0,0.0,0.0,0.0,0.0,0.0,0.0,0.0,0.0,0.0,0.0,0.0,0.0,0.0,0.0,0.0,0.0,0.0,0.0,0.0,0.0,0.0,0.0,0.0,0.0,0.0,0.0,0.0,0.0,0.0,0.0,0.0,0.0,0.0,0.0,0.0,0.0,0.0,0.0,0.0,0.0,0.0,0.0,0.0,0.0,0.0,0.0,0.0,0.0,0.0,0.0,0.0,0.0,0.0,0.0,0.0,0.0,0.0,0.0,0.0,0.0,0.0,0.0,0.0,0.0,0.0,0.0,0.0,0.0,0.0,0.0,0.0,0.0,0.0,0.0,0.0,0.0,0.0,0.0,0.0,0.0,0.0,0.0,0.0,0.0,0.0,0.0,0.0,0.0,0.0,0.0,0.0,0.0,0.0,0.0,0.0,0.0,0.0,0.0,0.0,0.0,0.0,0.0,0.0,0.0,0.0,0.0,0.0,0.0,0.0,0.0,0.0,0.0,0.0,0.0,0.0,0.0,0.0,0.0,0.0,0.0,0.0,0.0,0.0,0.0,0.0,0.0,0.0,0.0,0.0,0.0,0.0,0.0,0.0,0.0,0.0,0.0,0.0,0.0,0.0,0.0,0.0,0.0,0.0,0.0,0.0,0.0,0.0,0.0,0.0,0.0,0.0,0.0,0.0,0.0,0.0,0.0,0.0,0.0,0.0,0.0,0.0,0.0,0.0,0.0,0.0,0.0,0.0,0.0,0.0,0.0,0.0,0.0,0.0,0.0,0.0,0.0,0.0,0.0,0.0,0.0,0.0,0.0,0.0,0.0,0.0,0.0,0.0,0.0,0.0,0.0,0.0,0.0,0.0,0.0,0.0,0.0,0.0,0.0,0.0,0.0,0.0,0.0,0.0,0.0,0.0,0.0,0.0,0.0,0.0,0.0,0.0,0.0,0.0,0.0,0.0,0.0,0.0,0.0,0.0,0.0,0.0,0.0,0.0,0.0,0.0,0.0,0.0,0.0,0.0,0.0,0.0,0.0,0.0,0.0,0.0,0.0,0.0,0.0,0.0,0.0,0.0,0.0,0.0,0.0,0.0,0.0,0.0,0.0,0.0,0.0,0.0,0.0,0.0,0.0,0.0,0.0,0.0,0.0,0.0,0.0,0.0,0.0,0.0,0.0,0.0,0.0,0.0,0.0,0.0,0.0,0.0,0.0,0.0,0.0,0.0,0.0,0.0,0.0,0.0,0.0,0.0,0.0,0.0,0.0,0.0,0.0,0.0,0.0,0.0,0.0,0.0,0.0,0.0,0.0,0.0,0.0,0.0,0.0,0.0,0.0,0.0,0.0,0.0,0.0,0.0,0.0,0.0,0.0,0.0,0.0,0.0,0.0,0.0,0.0,0.0,0.0,0.0,0.0,0.0,0.0,0.0,0.0,0.0,0.0,0.0,0.0,0.0,0.0,0.0,0.0,0.0,0.0,0.0,0.0,0.0,0.0,0.0,0.0,0.0,0.0,0.0,0.0,0.0,0.0,0.0,0.0,0.0,0.0,0.0,0.0,0.0,0.0,0.0,0.0,0.0,0.0,0.0,0.0,0.0,0.0,0.0,0.0,0.0,0.0,0.0,0.0,0.0,0.0,0.0,0.0,0.0,0.0,0.0,0.0,0.0,0.0,0.0,0.0,0.0,0.0,0.0,0.0,0.0,0.0,0.0,0.0,0.0,0.0,0.0,0.0,0.0,0.0,0.0,0.0,0.0,0.0,0.0,0.0,0.0,0.0,0.0,0.0,0.0,0.0,0.0,0.0,0.0,0.0,0.0,0.0,0.0,0.0,0.0,0.0,0.0,0.0,0.0,0.0,0.0,0.0,0.0,0.0,0.0,0.0,0.0,0.0,0.0,0.0,0.0,0.0,0.0,0.0,0.0,0.0,0.0,0.0,0.0,0.0,0.0,0.0,0.0,0.0,0.0,0.0,0.0,0.0,0.0,0.0,0.0,0.0,0.0,0.0,0.0,0.0,0.0,0.0,0.0,0.0,0.0,0.0,0.0,0.0,0.0,0.0,0.0,0.0,0.0,0.0,0.0,0.0,0.0,0.0,0.0,0.0,0.0,0.0,0.0,0.0,0.0,0.0,0.0,0.0,0.0,0.0,0.0,0.0,0.0,0.0,0.0,0.0,0.0,0.0,0.0,0.0,0.0,0.0,0.0,0.0,0.0,0.0,0.0,0.0,0.0,0.0,0.0,0.0,0.0,0.0,0.0,0.0,0.0,0.0,0.0,0.0,0.0,0.0,0.0,0.0,0.0,0.0,0.0,0.0,0.0,0.0,0.0,0.0,0.0,0.0,0.0,0.0,0.0,0.0,0.0,0.0,0.0,0.0,0.0,0.0,0.0,0.0,0.0,0.0,0.0,0.0,0.0,0.0,0.0,0.0,0.0,0.0,0.0,0.0,0.0,0.0,0.0,0.0,0.0,0.0,0.0,0.0,0.0,0.0,0.0,0.0,0.0,0.0,0.0,0.0,0.0,0.0,0.0,0.0,0.0,0.0,0.0,0.0,0.0,0.0,0.0,0.0,0.0,0.0,0.0,0.0,0.0,0.0,0.0,0.0,0.0,0.0,0.0,0.0,0.0,0.0,0.0,0.0,0.0,0.0,0.0,0.0,0.0,0.0,0.0,0.0,0.0,0.0,0.0,0.0,0.0,0.0,0.0,0.0,0.0,0.0,0.0,0.0,0.0,0.0,0.0,0.0,0.0,0.0,0.0,0.0,0.0,0.0,0.0,0.0,0.0,0.0,0.0,0.0,0.0,0.0,0.0,0.0,0.0,0.0,0.0,0.0,0.0,0.0,0.0,0.0,0.0,0.0,0.0,0.0,0.0,0.0,0.0,0.0,0.0,0.0,0.0,0.0,0.0,0.0,0.0,0.0,0.0,0.0,0.0,0.0,0.0,0.0,0.0,0.0,0.0,0.0,0.0,0.0,0.0,0.0,0.0,0.0,0.0,0.0,0.0,0.0,0.0,0.0,0.0,0.0,0.0,0.0,0.0,0.0,0.0,0.0,0.0,0.0,0.0,0.0,0.0,0.0,0.0,0.0,0.0,0.0,0.0,0.0,0.0,0.0,0.0,0.0,0.0,0.0,0.0,0.0,0.0,0.0,0.0,0.0,0.0,0.0,0.0,0.0,0.0,0.0,0.0,0.0,0.0,0.0,0.0,0.0,0.0,0.0,0.0,0.0,0.0,0.0,1.223,1.2135,0.0,0.0,0.0,0.0,0.0,0.0,0.0,0.0,0.0,0.0,0.0,0.0,0.0,0.0,0.0,0.0,0.0,0.0,0.0,0.0,0.0,0.0,0.0,0.0,0.0,0.0,0.0,0.0,0.0,0.0,0.0,0.0,0.0,0.0,0.0,0.1789,0.268,0.27,0.5469,0.7285,0.8314,0.8179,0.76,0.6675,0.0,0.0,0.0,0.0,0.0,0.0,0.0,0.0,0.0,0.0,0.0,0.0,0.0,0.0,0.0,0.0,0.0,0.0,0.0,0.0,0.0,0.0,0.0,0.0,0.0,0.0,0.0,0.0,0.0,0.0,0.0,0.0,0.0,0.0,0.0,0.0,0.0,0.0,0.0,0.0,0.0,0.0,0.0,0.0,0.0,0.0,0.0,0.0,0.0,0.0,0.0,0.0,0.0,0.0,0.0,0.0,0.0,0.0,0.0,0.0,0.0,0.0,0.0,0.0,0.0,0.0,0.0,0.0,0.0,0.0,1.2372,1.2271,0.0,0.0,0.0,0.0,0.0,0.0,0.0,0.0,0.0,0.0,0.0,0.0,0.0,0.0,0.0,0.0,0.0,0.0,0.0,0.0,0.0,0.0,0.0,0.0,0.0,0.0,0.0,0.0,0.0,0.0,0.0,0.0,0.0,0.0,0.0,0.2078,0.325,0.321,0.7045,0.9689,1.1246,1.1369,1.0461,0.8673,0.9941,0.0,0.0,0.0,0.0,0.0,0.0,0.0,0.0,0.0,0.0,0.0,0.0,0.0,0.0,0.0,0.0,0.0,0.0,0.0,0.0,0.0,0.0,0.0,0.0,0.0,0.0,0.0,0.0,0.0,0.0,0.0,0.0,0.0,0.0,0.0,0.0,0.0,0.0,0.0,0.0,0.0,0.0,0.0,0.0,0.0,0.0,0.0,0.0,0.0,0.0,0.0,0.0,0.0,0.0,0.0,0.0,0.0,0.0,0.0,0.0,0.0,0.0,0.0,1.2501,1.2515,1.2542,1.2542,1.2556,1.2583,1.2583,1.2549,1.2501,1.2501,0.0,0.0,0.0,0.0,0.0,0.0,0.0,0.0,0.0,0.0,0.0,0.0,0.0,0.0,0.0,0.0,0.0,0.0,0.0,0.0,0.0,0.0,0.0,0.0,0.0,0.0,0.0,0.0,0.0,0.0,0.0,0.0,0.0,0.3423,0.5288,0.5411,0.9269,1.1304,1.1558,1.1579,1.1402,1.1102,1.1237,1.1104,1.0793,0.0,0.0,0.0,0.0,0.0,0.0,0.0,0.0,0.0,0.0,0.0,0.0,0.0,0.0,0.0,0.0,0.0,0.0,0.0,0.0,0.0,0.0,0.0,0.0,0.0,0.0,0.0,0.0,0.0,0.0,0.0,0.0,0.0,0.0,0.0,0.0,0.0,0.0,0.0,0.0,0.0,1.2311,1.2461,0.0,0.0,0.0,0.0,0.0,0.0,0.0,0.0,0.0,0.0,0.0,0.0,0.0,1.2501,1.2501,1.2501,1.2501,1.2501,1.2501,1.2569,1.2698,1.2698,1.2773,1.2901,1.2901,0.0,1.2501,1.2501,0.0,0.0,0.0,0.0,0.0,0.0,0.0,0.0,0.0,0.0,0.0,0.0,0.0,0.0,0.0,0.0,0.0,0.0,0.0,0.0,0.0,0.0,0.0,0.0,0.0,0.0,0.0,0.0,0.0,0.0,0.0,0.0,0.0,0.2619,0.5178,0.7566,1.0462,1.1911,1.1999,1.1999,1.1952,1.187,1.1891,1.1586,1.1077,1.1158,0.0,0.0,0.0,0.0,0.0,0.0,0.0,0.0,0.0,0.0,0.0,0.0,0.0,0.0,0.0,0.0,0.0,0.0,0.0,0.0,0.0,0.0,0.0,0.0,0.0,0.0,0.0,0.0,0.0,0.0,0.0,0.0,0.0,0.0,0.0,0.0,0.0,0.0,0.0,1.2366,1.2433,1.2494,1.2433,1.2413,0.0,0.0,0.0,0.0,0.0,0.0,0.0,0.0,0.0,1.2501,1.2583,1.263,1.263,1.2718,1.2759,1.2759,1.2759,1.2793,1.2861,1.2861,1.2895,1.2963,1.2963,1.2888,1.2752,1.2664,1.263,1.2623,0.0,0.0,0.0,0.0,1.2501,1.2508,0.0,0.0,0.0,0.0,0.0,0.0,0.0,0.0,0.0,0.0,0.0,0.0,0.0,0.0,0.0,0.0,0.0,0.0,0.0,0.0,0.0,0.0,0.0,0.0,0.0,0.2356,0.5367,0.8918,1.1064,1.2176,1.2291,1.2291,1.223,1.2128,1.2237,1.1959,1.1396,1.147,1.1436,1.1314,0.0,0.0,0.0,0.0,0.0,0.0,0.0,0.0,0.0,0.0,0.0,0.0,0.0,0.0,0.0,0.0,0.0,0.0,0.0,0.0,0.0,0.0,0.0,0.0,0.0,0.0,0.0,0.0,0.0,0.0,0.0,0.0,0.0,0.0,0.0,0.0,0.0,1.2501,1.2501,1.2501,1.2406,1.2386,0.0,0.0,0.0,0.0,0.0,0.0,1.2556,1.2562,1.2576,1.2617,1.2732,1.2786,1.2786,1.2901,1.2963,1.2963,1.2963,1.2983,1.3017,1.3017,1.3037,1.3071,1.3071,1.3071,1.3057,1.2868,1.2786,1.2779,1.2664,1.2623,1.2623,1.2623,1.2623,1.2637,0.0,0.0,0.0,0.0,0.0,0.0,0.0,0.0,0.0,0.0,0.0,0.0,0.0,0.0,0.0,0.0,0.0,0.0,0.0,0.0,0.0,0.0,0.0,0.0,0.0,0.3984,0.6997,0.8885,1.1208,1.2284,1.2291,1.2291,1.2284,1.2277,1.2284,1.2189,1.2006,1.187,1.1803,1.1762,0.0,0.0,0.0,0.0,0.0,0.0,0.0,0.0,0.0,0.0,0.0,0.0,0.0,0.0,0.0,0.0,0.0,0.0,0.0,0.0,0.0,0.0,0.0,0.0,0.0,0.0,0.0,0.0,0.0,0.0,0.0,0.0,0.0,0.0,0.0,0.0,0.0,0.0,0.0,1.2501,1.2494,0.0,0.0,0.0,0.0,1.2501,1.2501,1.2562,1.2712,1.2718,1.2786,1.2935,1.2942,1.2949,1.2949,1.2956,1.2963,1.2963,1.2963,1.303,1.3159,1.3159,1.3241,1.3376,1.3376,1.3376,1.3356,1.3071,1.2949,1.2949,1.2942,1.2935,1.2935,1.2935,1.2935,1.2942,0.0,0.0,0.0,-0.4823,-0.2127,0.0,0.0,0.0,0.0,0.0,0.0,0.0,0.0,0.0,0.0,0.0,0.0,0.0,0.0,0.0,0.0,0.0,0.0,0.0,0.0,0.4107,0.6586,0.7245,1.0727,1.2427,1.2427,1.2427,1.2427,1.2427,1.2427,1.2393,1.2332,1.2189,1.2067,1.1965,1.1809,1.166,0.0,0.0,0.0,0.0,0.0,0.0,0.0,0.0,0.0,0.0,0.0,0.0,0.0,0.0,0.0,0.0,0.0,0.0,0.0,0.0,0.0,0.0,0.0,0.0,0.0,0.0,0.0,0.0,0.0,0.0,0.0,0.0,0.0,0.0,0.0,0.0,0.0,1.2501,1.242,0.0,1.2494,1.2501,1.2542,1.2637,1.2739,1.282,1.2874,1.2881,1.2901,1.3043,1.3051,1.3098,1.3098,1.3193,1.3247,1.3247,1.3247,1.3268,1.3322,1.3424,1.3498,1.3553,1.3641,1.3682,1.3675,1.3566,1.3356,1.3085,1.2996,1.2963,1.2963,1.2963,1.2963,1.2963,0.0,0.0,0.0,-0.5027,-0.2657,-0.079,-0.0072,0.0,0.0,0.0,0.0,0.0,0.0,0.0,0.0,0.0,0.0,0.0,0.0,0.0,0.0,0.0,0.0,0.0,0.0,0.4176,0.6284,0.6337,1.0423,1.2501,1.2501,1.2501,1.2501,1.2501,1.2501,1.2501,1.2494,1.24,1.2305,1.2203,1.2176,1.1972,1.183,0.0,0.0,0.0,0.0,0.0,0.0,0.0,0.0,0.0,0.0,0.0,0.0,0.0,0.0,0.0,0.0,0.0,0.0,0.0,0.0,0.0,0.0,0.0,0.0,0.0,0.0,0.0,0.0,0.0,0.0,0.0,0.0,0.0,0.0,1.2501,1.2522,1.2569,1.2494,1.2494,1.2644,1.2657,1.2698,1.28,1.2901,1.2983,1.303,1.303,1.3057,1.3105,1.32,1.3247,1.3247,1.3349,1.3424,1.3478,1.3478,1.3505,1.3553,1.3654,1.3702,1.3702,1.3797,1.3838,1.3838,1.3838,1.3668,1.339,1.3295,1.3261,1.3261,1.3261,1.3261,1.3261,0.0,0.0,-0.7548,-0.378,-0.2981,-0.2266,-0.0371,-0.0074,0.0,0.0,0.0,0.0,0.0,0.0,0.0,0.0,0.0,0.0,0.0,0.0,0.0,0.0,0.0,0.0,0.0,0.404,0.6174,0.6183,1.0391,1.2424,1.2424,1.2431,1.2431,1.2501,1.2431,1.2431,1.2501,1.2501,1.2501,1.2474,1.2189,1.2162,1.2277,0.0,0.0,0.0,0.0,0.0,0.0,0.0,0.0,0.0,0.0,0.0,0.0,0.0,0.0,0.0,0.0,0.0,0.0,0.0,0.0,0.0,0.0,0.0,0.0,0.0,0.0,0.0,0.0,0.0,0.0,0.0,0.0,0.0,1.2508,1.2508,1.2562,1.2718,1.2739,1.2793,1.2949,1.2963,1.305,1.305,1.2969,1.3037,1.3173,1.318,1.3247,1.3397,1.3403,1.341,1.341,1.341,1.3492,1.3634,1.3634,1.3709,1.3838,1.3844,1.3844,1.3844,1.3851,1.3858,1.3858,1.3858,1.3858,1.3765,1.3759,1.3838,1.3838,1.3838,1.3838,1.3838,-1.135,-0.9945,-0.8533,-0.743,-0.4858,-0.2731,-0.215,-0.0898,0.0,0.0,0.0,0.0,0.0,0.0,0.0,0.0,0.0,0.0,0.0,0.0,0.0,0.0,0.0,0.0,0.0,0.2639,0.3976,0.3963,0.8159,1.023,1.0236,1.0247,1.1029,1.2424,1.0957,1.1107,1.2501,1.2501,1.2501,1.2494,1.2413,1.2345,1.2284,0.0,0.0,0.0,0.0,0.0,0.0,0.0,0.0,0.0,0.0,0.0,0.0,0.0,0.0,0.0,0.0,0.0,0.0,0.0,0.0,0.0,0.0,0.0,0.0,0.0,0.0,0.0,0.0,0.0,0.0,0.0,1.2596,1.2664,1.2664,1.2664,1.2725,1.2881,1.2895,1.2915,1.2956,1.3057,1.3112,1.3112,1.322,1.3295,1.3336,1.3336,1.3356,1.3397,1.3505,1.3566,1.3566,1.3668,1.3743,1.3783,1.3783,1.3718,1.3759,1.3953,1.4007,1.4014,1.4122,1.4177,1.4177,1.4177,1.4177,1.415,1.3926,1.3838,1.3838,1.3838,1.3838,1.3838,-1.2176,-1.1133,-0.9985,-0.9165,-0.6336,-0.3889,-0.3084,-0.129,0.0,0.0,0.0,0.0,0.0,0.0,0.0,0.0,0.0,0.0,0.0,0.0,0.0,0.0,0.0,0.0,0.0,0.2041,0.3089,0.3072,0.6445,0.8087,0.8089,0.8105,0.8716,0.9917,0.9514,1.006,1.1251,1.22,1.2562,1.2508,1.2569,1.2508,1.2379,1.2379,1.2325,1.2244,1.2244,1.2305,1.2372,1.2352,0.0,0.0,0.0,0.0,0.0,0.0,0.0,0.0,0.0,0.0,0.0,0.0,0.0,0.0,0.0,0.0,0.0,0.0,0.0,0.0,0.0,0.0,0.0,0.0,1.2725,1.2847,1.2908,1.2868,1.2881,1.303,1.3051,1.3078,1.3139,1.322,1.3268,1.3268,1.3349,1.3431,1.3492,1.3498,1.3526,1.3587,1.3675,1.3715,1.3715,1.3797,1.3871,1.3939,1.3939,1.3973,1.4034,1.4122,1.4163,1.417,1.4265,1.4299,1.4299,1.4299,1.4299,1.4285,0.0,0.0,0.0,0.0,1.4034,1.4034,-1.2318,-1.2189,-1.1557,-0.9885,-0.7774,-0.5685,-0.3763,-0.1696,-0.0235,0.0,0.0,0.0,0.0,0.0,0.0,0.0,0.0,0.0,0.0,0.0,0.0,0.0,0.0,0.0,0.0,0.1844,0.2762,0.2734,0.4924,0.5967,0.5932,0.5921,0.6048,0.6407,0.8012,0.8805,0.9183,1.1433,1.2318,1.2193,1.2588,1.2684,1.2501,1.2501,1.2501,1.2501,1.2501,1.2515,1.2549,1.2664,0.0,0.0,0.0,0.0,0.0,0.0,0.0,0.0,0.0,0.0,0.0,0.0,0.0,0.0,0.0,0.0,0.0,0.0,0.0,0.0,0.0,0.0,0.0,0.0,1.2888,1.303,1.3152,1.3078,1.3057,1.3186,1.32,1.3254,1.339,1.3403,1.3403,1.3403,1.3417,1.3485,1.362,1.3648,0.0,0.0,0.0,1.3865,1.3865,1.3885,1.396,1.4095,1.4095,1.417,1.4299,1.4299,1.4299,1.4299,1.4299,1.4299,1.4299,1.4319,1.4333,1.4346,1.4312,1.4299,1.4299,1.4299,1.4299,1.4299,-1.2461,-1.2345,-1.2168,-1.1782,-0.9937,-0.7879,-0.5756,-0.3796,-0.1892,-0.0243,0.0,0.0,0.0,0.0,0.0,0.0,0.0,0.0,0.0,0.0,0.0,0.0,0.0,0.0,0.0,0.0428,0.0597,0.0595,0.2697,0.3683,0.3751,0.3709,0.4626,0.6225,0.4944,0.5247,0.7037,0.9409,1.0372,1.0519,1.2464,1.2963,1.2501,1.2501,1.2501,1.2501,1.2501,1.2583,1.2671,1.2576,1.2712,1.2901,1.2807,0.0,0.0,0.0,0.0,0.0,0.0,0.0,0.0,0.0,0.0,0.0,0.0,0.0,0.0,0.0,0.0,0.0,0.0,0.0,0.0,1.2915,1.3037,1.3139,1.3166,1.3254,1.3322,1.3356,1.3356,1.337,1.3397,1.3403,1.3403,1.3403,1.3512,1.36,1.3627,1.3736,1.381,1.3838,1.396,1.4027,1.4027,1.415,1.4224,1.4258,1.4258,0.0,1.4299,1.4299,1.4299,1.4299,1.4299,1.4299,1.4306,1.4421,1.4543,1.4631,1.4394,1.4299,1.4299,1.4299,1.4299,1.4299,-1.2501,-1.2447,-1.2393,-1.2393,-1.0685,-0.8592,-0.6509,-0.4442,-0.2364,-0.0241,0.0,0.0,0.0,0.0,0.0,0.0,0.0,0.0,0.0,0.0,0.0,0.0,0.0,0.0,0.0,0.0,0.0,0.0,0.1043,0.1555,0.1538,0.1555,0.2152,0.3132,0.3151,0.373,0.4863,0.7161,0.8136,0.8223,1.067,1.1458,1.124,1.2383,1.2793,1.2732,1.2732,1.2779,1.2847,1.284,1.2942,1.3064,1.3064,1.3064,1.3037,0.0,0.0,0.0,0.0,0.0,0.0,0.0,0.0,0.0,0.0,0.0,0.0,0.0,0.0,1.2868,1.2949,0.0,1.3064,1.3064,1.3193,1.3288,1.3288,1.3356,1.3403,1.3403,1.3403,1.3403,1.3403,1.3471,1.3512,1.3512,1.3654,1.377,1.3844,1.3919,1.3994,1.4068,1.4143,1.4183,1.4183,1.4333,1.4407,1.4407,1.4407,1.4407,1.4407,1.4333,1.434,1.4407,1.4407,1.4448,1.4523,1.4597,1.4672,1.4726,1.4577,1.4523,1.4509,1.4434,1.4407,1.4407,-1.2501,-1.2501,-1.2501,-1.2501,-1.1095,-0.9138,-0.6644,-0.4849,-0.2831,-0.0319,0.0,0.0,0.0,0.0,0.0,0.0,0.0,0.0,0.0,0.0,0.0,0.0,0.0,0.0,0.0,0.0,0.0,0.0,0.0,0.0,0.0,0.0,0.0,0.0086,0.1726,0.2497,0.2664,0.4986,0.5895,0.6011,0.8471,0.9644,1.0131,1.1967,1.2805,1.3051,1.3051,1.3051,1.3064,1.318,1.3241,1.3281,1.3403,1.3363,1.3227,1.3051,1.2915,0.0,0.0,0.0,0.0,0.0,0.0,0.0,0.0,0.0,1.305,1.2996,1.3003,1.301,1.3037,1.3139,1.3214,1.3214,1.3322,1.3403,1.3403,1.3403,1.341,1.3444,1.3444,1.3444,1.3444,1.358,1.3668,1.3668,1.3804,1.3939,1.4061,1.4102,1.417,1.4299,1.4326,1.434,1.434,1.4482,1.4557,1.4557,1.4557,1.457,1.4597,1.4482,1.4496,1.4597,1.457,1.4645,1.4787,1.4787,1.4801,1.4828,1.4828,1.4841,1.4841,1.4631,1.4577,1.4604,-1.2501,-1.2501,-1.2501,-1.2501,-1.2347,-1.0856,-0.6878,-0.6098,-0.4481,-0.0558,0.0,0.0,0.0,0.0,0.0,0.0,0.0,0.0,0.0,0.0,0.0,0.0,0.0,0.0,0.0,0.0,0.0,0.0,0.0,0.0,0.0,0.0,0.0,0.0,0.0268,0.0355,0.0528,0.2928,0.3893,0.412,0.646,0.8648,1.0488,1.0738,1.1822,1.3349,1.3349,1.3349,1.3356,1.337,1.3464,1.358,1.36,1.3593,1.3519,1.3234,0.0,1.3064,1.2779,1.2807,1.2915,1.2929,1.2935,1.2942,0.0,1.2963,1.2996,1.3125,1.3152,1.3193,1.3329,1.3363,1.3376,1.3376,1.339,1.3403,1.3403,1.3403,1.3451,1.3587,1.36,1.36,1.36,1.3736,1.3817,1.3817,1.396,1.4055,1.4068,1.4197,1.4285,1.4299,1.4421,1.4489,1.4489,1.4638,1.4713,1.4713,1.4713,1.4787,1.4923,1.4903,1.4903,1.4909,1.4774,1.4801,1.4943,1.4943,1.5018,1.5133,1.5133,1.5215,1.5282,1.4869,1.4801,1.4923,-1.2522,-1.2501,-1.2501,-1.2501,-1.2501,-1.1482,-0.8517,-0.7111,-0.5251,-0.2208,-0.0711,0.0,0.0,0.0,0.0,0.0,0.0,0.0,0.0,0.0,0.0,0.0,0.0,0.0,0.0,0.0,0.0,0.0,0.0,0.0,0.0,0.0,0.0,0.0,0.0,0.0,0.0089,0.1074,0.152,0.1693,0.4109,0.5617,0.6656,0.7987,0.9061,1.0061,1.2602,1.3532,0.0,0.0,1.3573,1.3641,1.3729,1.3695,1.3587,1.337,1.3241,0.0,1.2922,1.2908,1.2983,1.3064,1.3085,1.3105,1.32,1.3214,1.3234,1.3295,1.3308,1.3322,1.339,1.3403,1.3403,1.3403,1.3403,1.3431,1.3519,1.3532,1.3587,1.3736,1.3831,1.3851,1.3763,1.3885,1.3973,1.3973,1.4116,1.4204,1.4204,1.4346,1.4421,1.4421,1.457,1.4645,1.4645,1.4794,1.4875,1.4875,1.4957,1.5031,1.5092,1.5092,1.5147,1.5228,1.5255,1.5296,1.5357,1.5357,1.5398,1.5445,1.5445,1.5486,1.5499,1.5133,1.5092,1.5228,-1.2651,-1.263,-1.2617,-1.2569,-1.2562,-1.1843,-0.9692,-0.7656,-0.5552,-0.3365,-0.1254,0.0,0.0,0.0,0.0,0.0,0.0,0.0,0.0,0.0,0.0,0.0,0.0,0.0,0.0,0.0,0.0,0.0,0.0,0.0,0.0,0.0,0.0,0.0,0.0,0.0,0.0,0.0,0.0,0.018,0.1882,0.3045,0.3759,0.5454,0.6513,0.7626,1.1349,1.2715,0.0,0.0,1.3688,1.3702,1.381,1.3743,1.36,1.3444,1.3295,1.3159,1.3098,0.0,0.0,1.3207,1.3234,1.3261,1.3376,1.3403,1.3403,1.3403,1.3403,1.3403,1.3403,1.3437,1.3464,1.3464,1.3498,1.3559,1.3675,1.3688,1.3743,1.3885,1.4007,1.4048,1.3973,1.4068,1.4136,1.4136,1.4238,1.4319,1.4353,1.4455,1.4529,1.457,1.4719,1.4801,1.4801,1.4997,1.5092,1.5092,1.5242,1.533,1.5371,1.5371,1.5425,1.5533,1.5608,1.5642,1.5642,1.5642,1.5642,1.5642,1.5642,1.5662,1.5669,1.5445,1.5438,1.5533,-1.3029,-1.2949,-1.2901,-1.2752,-1.2725,-1.1958,-0.9703,-0.7656,-0.5552,-0.3365,-0.1254,0.0,0.0,0.0,0.0,0.0,0.0,0.0,0.0,0.0,0.0,0.0,0.0,0.0,0.0,0.0,0.0,0.0,0.0,0.0,0.0,0.0,0.0,0.0,0.0,0.0,0.0,0.0,0.0,0.0,0.009,0.1524,0.358,0.3669,0.5154,0.7388,0.9748,0.0,0.0,0.0,1.3745,1.3752,1.3838,1.3743,1.36,1.3444,1.3295,1.3207,1.3349,0.0,1.339,1.339,1.3397,1.3397,1.3397,1.3403,1.3403,1.3403,1.3403,1.3403,1.3403,1.3519,1.362,1.362,1.3736,1.3831,1.3745,1.3745,1.3892,1.4048,1.4068,1.4129,1.4272,1.4292,1.4292,1.4292,1.4299,1.436,1.4496,1.4509,1.4577,1.4726,1.4882,1.4964,1.4964,1.5255,1.5398,1.5398,1.5554,1.5696,1.5832,1.5832,1.5839,1.5832,1.5696,1.5642,1.5642,1.5642,1.5642,1.5642,1.5642,1.5723,1.5845,1.5839,1.5839,1.5839,-1.3056,-1.2963,-1.2942,-1.2895,-1.2881,-1.2589,-1.1723,-0.9735,-0.7579,-0.5474,-0.2194,0.0,0.0,0.0,0.0,0.0,0.0,0.0,0.0,0.0,0.0,0.0,0.0,0.0,0.0,0.0,0.0,0.0,0.0,0.0,0.0,0.0,0.0,0.0,0.0,0.0,0.0,0.0,0.0,0.0,0.0,0.0449,0.1254,0.1246,0.1681,0.2639,0.0,0.0,0.0,0.0,0.0,1.3715,1.381,1.3743,1.36,1.3444,1.3363,1.3336,1.339,0.0,1.3403,1.3403,1.3478,1.3553,1.3553,1.3627,1.3695,1.3695,1.3695,1.3695,1.3695,1.3736,1.377,1.377,1.381,1.3878,1.398,1.3994,1.4055,1.4204,1.4224,1.4245,1.4292,1.4299,1.4299,1.4299,1.4387,1.4462,1.4509,1.4706,1.4841,1.4889,1.5031,1.5113,1.5113,1.5208,1.5262,1.5262,1.5411,1.5567,1.571,1.571,1.571,1.571,1.5662,1.5689,1.5784,1.5784,1.5839,1.5934,1.5934,1.5961,1.6001,1.6001,1.6001,1.6001,0.0,0.0,0.0,0.0,0.0,0.0,0.0,0.0,0.0,0.0,0.0,0.0,0.0,0.0,0.0,0.0,0.0,0.0,0.0,0.0,0.0,0.0,0.0,0.0,0.0,0.0,0.0,0.0,0.0,0.0,0.0,0.0,0.0,0.0,0.0,0.0,0.0,0.0,0.0,0.0,0.0,0.0,0.0,0.0,0.0,0.0,0.0,0.0,0.0,0.0,1.2869,1.3566,1.3654,1.362,1.3532,1.3431,1.3403,1.341,1.3464,1.3485,1.3492,1.3546,1.3634,1.3702,1.3702,1.3777,1.3838,1.3838,1.3838,1.3838,1.3838,1.3885,1.3926,1.3926,1.3966,1.4041,1.4143,1.415,1.419,1.4285,1.4299,1.4319,1.4373,1.4373,1.4373,1.4373,1.4509,1.4618,1.4672,1.4862,1.4991,1.5045,1.5133,1.5181,1.5181,1.5235,1.5289,1.535,1.5445,1.5547,1.5642,1.5642,1.5642,1.5642,1.5642,1.5689,1.5778,1.5778,1.5832,1.5927,1.5927,1.5954,1.6001,1.6001,1.5427,1.4769,0.0,0.0,0.0,0.0,0.0,0.0,0.0,0.0,0.0,0.0,0.0,0.0,0.0,0.0,0.0,0.0,0.0,0.0,0.0,0.0,0.0,0.0,0.0,0.0,0.0,0.0,0.0,0.0,0.0,0.0,0.0,0.0,0.0,0.0,0.0,0.0,0.0,0.0,0.0,0.0,0.0,0.0,0.0,0.0,0.0,0.0,0.0,0.0,0.0,0.0,1.1552,1.3403,1.3403,1.3403,1.3403,1.341,1.341,1.3444,1.36,1.3641,1.3675,1.3804,1.3844,1.3851,1.3851,1.3865,1.3871,1.3865,1.3871,1.3871,0.0,0.0,1.4082,1.4082,1.4204,1.4299,1.4299,1.4299,1.4299,0.0,0.0,0.0,0.0,0.0,1.4536,1.4536,1.4672,1.4814,1.4964,1.4977,1.5045,1.5187,1.5187,1.5187,1.5194,1.533,1.5472,1.5615,1.5615,1.5615,1.5615,1.5615,1.5525,1.5428,1.5421,1.5332,1.5248,1.5241,1.5241,1.5255,1.5171,1.5354,1.548,1.5486,1.397,1.2269,0.0,0.0,0.0,0.0,0.0,0.0,0.0,0.0,0.0,0.0,0.0,0.0,0.0,0.0,0.0,0.0,0.0,0.0,0.0,0.0,0.0,0.0,0.0,0.0,0.0,0.0,0.0,0.0,0.0,0.0,0.0,0.0,0.0,0.0,0.0,0.0,0.0,0.0,0.0,0.0,0.0,0.0,0.0,0.0,0.0,0.0,0.0,0.0,0.0,0.0,0.0,1.3403,1.3403,1.3403,1.3424,1.3539,1.3573,1.36,1.3749,1.3783,1.3797,1.3831,1.3926,1.4014,1.4014,1.4183,1.4312,1.4204,1.4265,1.4306,1.4204,1.4217,1.4245,1.4245,1.4278,1.4299,1.4299,1.4299,0.0,1.4299,0.0,1.4468,1.4509,1.4719,1.4855,1.4855,1.4889,1.493,1.497,1.5072,1.5201,1.535,1.5242,1.5235,1.535,1.5276,1.5262,1.5296,1.5296,1.5296,1.5296,1.5296,1.4298,1.2453,1.2466,1.1468,0.976,0.9788,0.9844,0.9977,0.9947,0.9932,1.002,0.999,0.962,0.9129,0.0,0.0,0.0,0.0,0.0,0.0,0.0,0.0,0.0,0.0,0.0,0.0,0.0,0.0,0.0,0.0,0.0,0.0,0.0,0.0,0.0,0.0,0.0,0.0,0.0,0.0,0.0,0.0,0.0,0.0,0.0,0.0,0.0,0.0,0.0,0.0,0.0,0.0,0.0,0.0,0.0,0.0,0.0,0.0,0.0,0.0,0.0,0.0,0.0,0.0,0.0,1.341,1.3478,1.3498,1.3532,1.3682,0.0,1.3756,1.3899,1.3939,1.396,1.4027,1.4109,1.417,1.417,1.4299,1.4394,1.4319,1.4367,1.4394,1.4312,1.4299,1.4299,0.0,0.0,0.0,1.4299,1.4353,1.4394,0.0,1.4523,0.0,1.4706,1.4869,1.4997,1.5059,1.5065,1.5065,1.5065,1.5201,1.5289,1.5309,1.5296,1.5289,1.5309,1.5221,1.5181,1.5181,1.5181,1.5181,1.5181,1.5181,1.3825,1.1443,1.1431,0.998,0.7716,0.7676,0.7726,0.7834,0.7808,0.7884,0.7954,0.7895,0.7208,0.6203,0.0,0.0,0.0,0.0,0.0,0.0,0.0,0.0,0.0,0.0,0.0,0.0,0.0,0.0,0.0,0.0,0.0,0.0,0.0,0.0,0.0,0.0,0.0,0.0,0.0,0.0,0.0,0.0,0.0,0.0,0.0,0.0,0.0,0.0,0.0,0.0,0.0,0.0,0.0,0.0,0.0,0.0,0.0,0.0,0.0,0.0,0.0,0.0,0.0,0.0,0.9825,1.3485,1.3614,1.3654,1.3688,1.3831,1.3871,1.3905,1.4061,1.4102,1.4136,1.4265,1.4312,1.4326,1.4306,1.4333,1.4346,1.4306,1.4312,1.4326,1.4306,1.4299,1.4299,1.4299,0.0,1.4326,1.4326,1.4448,1.4543,1.4543,1.4679,1.4821,1.4957,1.4991,1.5052,1.5174,1.5181,1.5194,1.5215,1.5316,1.5316,1.5187,1.533,1.5337,1.5181,1.5181,1.5181,1.5181,1.5181,1.4999,1.4731,1.4731,1.3097,1.0427,1.0344,0.8972,0.6578,0.6578,0.6612,0.6572,0.6634,0.6699,0.6755,0.6761,0.5359,0.3427,0.0,0.0,0.0,0.0,0.0,0.0,0.0,0.0,0.0,0.0,0.0,0.0,0.0,0.0,0.0,0.0,0.0,0.0,0.0,0.0,0.0,0.0,0.0,0.0,0.0,0.0,0.0,0.0,0.0,0.0,0.0,0.0,0.0,0.0,0.0,0.0,0.0,0.0,0.0,0.0,0.0,0.0,0.0,0.0,0.0,0.0,0.0,0.0,0.0,0.0,0.9902,1.377,1.3797,1.3804,1.3831,1.3987,1.4034,1.4061,1.4217,1.4258,1.4265,1.4292,1.4387,1.4441,1.4326,1.4489,0.0,0.0,1.4394,1.4441,1.4319,1.4299,1.4299,1.4299,1.4401,1.4475,1.4475,1.4604,1.4699,0.0,1.4835,1.4943,1.497,1.5079,0.0,1.5181,1.5181,1.5235,1.5364,1.5276,1.5208,1.5181,1.533,1.5337,1.5181,1.5181,1.5181,1.5181,1.5181,1.4096,1.209,1.209,0.9499,0.5133,0.5127,0.3671,0.1305,0.1305,0.1313,0.1325,0.1337,0.1349,0.1362,0.1371,0.1058,0.0742,0.0,0.0,0.0,0.0,0.0,0.0,0.0,-0.3023,-0.1178,-0.0168,0.0,0.0,0.0,0.0,0.0,0.0,0.0,0.0,0.0,0.0,0.0,0.0,0.0,0.0,0.0,0.0,0.0,0.0,0.0,0.0,0.0,0.0,0.0,0.0,0.0,0.0,0.0,0.0,0.0,0.0,0.0,0.0,0.0,0.0,0.0,0.0,0.0,0.0,0.0,0.0,0.7443,1.0719,1.3195,1.396,1.3994,1.4143,1.419,1.4204,1.4278,1.4299,1.4299,1.4299,1.4407,1.4475,1.4333,0.0,0.0,0.0,1.4353,1.438,1.4312,0.0,0.0,1.4299,1.4421,1.4509,1.4509,1.4713,1.4862,1.4862,1.4991,1.5079,1.5079,1.514,1.5181,1.5181,1.5255,1.5337,1.5404,1.5343,1.5303,1.5303,1.5296,1.5255,1.5181,1.5181,1.4549,1.3186,1.3216,1.1857,0.9406,0.9453,0.7323,0.3801,0.3783,0.2312,0.0,0.0,0.0,0.0,0.0,0.0,0.0,0.0,0.0,0.0,0.0,0.0,0.0,0.0,0.0,0.0,-0.3692,-0.1429,0.0,0.0,0.0,0.0,0.0,0.0,0.0,0.0,0.0,0.0,0.0,0.0,0.0,0.0,0.0,0.0,0.0,0.0,0.0,0.0,0.0,0.0,0.0,0.0,0.0,0.0,0.0,0.0,0.0,0.0,0.0,0.0,0.0,0.0,0.0,0.0,0.0,0.0,0.0,0.0,0.0,0.0,0.4797,0.7047,1.1319,1.2967,1.3436,1.3457,1.385,1.4299,1.4299,1.4326,1.4346,1.4346,1.4475,1.4563,1.4387,1.4455,0.0,0.0,1.4299,1.4299,1.4299,0.0,1.4299,0.0,1.4421,1.4523,1.4557,1.4801,1.4984,0.0,1.5113,0.0,1.5181,1.5181,0.0,1.5181,1.5323,1.5411,1.5411,1.5411,1.5398,1.5364,1.5248,1.5201,1.5228,1.4656,1.3382,1.1483,1.083,0.9252,0.6768,0.6827,0.5427,0.3033,0.3021,0.1835,0.0,0.0,0.0,0.0,0.0,0.0,0.0,0.0,0.0,0.0,0.0,0.0,0.0,0.0,0.0,0.0,-0.3692,-0.1429,0.0,0.0,0.0,0.0,0.0,0.0,0.0,0.0,0.0,0.0,0.0,0.0,0.0,0.0,0.0,0.0,0.0,0.0,0.0,0.0,0.0,0.0,0.0,0.0,0.0,0.0,0.0,0.0,0.0,0.0,0.0,0.0,0.0,0.0,0.0,0.0,0.0,0.0,0.0,0.0,0.0,0.0,0.0,0.4383,0.6961,0.9273,1.0973,1.1072,0.0,0.0,1.4299,1.4394,1.4489,1.4489,1.4713,1.4855,1.4557,0.0,1.4638,1.436,1.4299,1.4299,1.4299,0.0,0.0,0.0,0.0,1.4563,0.0,1.4862,1.5018,1.5147,0.0,0.0,1.5181,1.5181,1.5181,1.5181,1.5323,1.5411,1.5411,1.5411,1.535,1.5208,1.5187,1.5248,1.5391,1.2971,1.1685,1.1502,0.9067,0.6572,0.4167,0.4099,0.2727,0.0307,0.0312,0.021,0.0,0.0,0.0,0.0,0.0,0.0,0.0,0.0,0.0,0.0,0.0,0.0,0.0,0.0,0.0,0.0,-0.1666,-0.0583,0.0,0.0,0.0,0.0,0.0,0.0,0.0,0.0,0.0,0.0,0.0,0.0,0.0,0.0,0.0,0.0,0.0,0.0,0.0,0.0,0.0,0.0,0.0,0.0,0.0,0.0,0.0,0.0,0.0,0.0,0.0,0.0,0.0,0.0,0.0,0.0,0.0,0.0,0.0,0.0,0.0,0.0,0.0,0.0,0.2509,0.4472,0.0,0.0,1.1344,1.2432,1.4044,1.4468,1.4536,1.4624,1.474,1.4774,1.4563,0.0,1.4543,1.434,1.4299,1.4299,1.4299,0.0,0.0,0.0,0.0,0.0,1.459,0.0,0.0,1.5038,1.5059,0.0,0.0,0.0,1.5221,1.5309,1.5377,1.5411,1.5411,1.5411,1.5384,1.5323,1.5316,1.4616,1.3108,1.2036,0.995,0.6901,0.5786,0.3948,0.1505,0.1511,0.0916,0.0,0.0,0.0,0.0,0.0,0.0,0.0,0.0,0.0,0.0,0.0,0.0,0.0,0.0,0.0,0.0,0.0,0.0,-0.2583,-0.0332,0.0,0.0,0.0,0.0,0.0,0.0,0.0,0.0,0.0,0.0,0.0,0.0,0.0,0.0,0.0,0.0,0.0,0.0,0.0,0.0,0.0,0.0,0.0,0.0,0.0,0.0,0.0,0.0,0.0,0.0,0.0,0.0,0.0,0.0,0.0,0.0,0.0,0.0,0.0,0.0,0.0,0.0,0.0,0.0,0.0,0.0,0.0,0.0,0.0,0.9665,1.113,1.2896,1.3996,1.4658,1.4726,1.4774,1.4767,0.0,0.0,1.4468,1.4333,1.4299,1.4299,1.4299,0.0,0.0,0.0,0.0,1.4462,1.4509,0.0,0.0,0.0,0.0,1.5025,1.5167,1.5221,1.5296,1.5404,1.5411,1.5432,1.5479,1.5438,1.5023,1.4247,1.4291,1.3012,1.049,0.9709,0.7495,0.3889,0.3072,0.1696,0.0,0.0,0.0,0.0,0.0,0.0,0.0,0.0,0.0,0.0,0.0,0.0,0.0,0.0,0.0,0.0,0.0,0.0,0.0,0.0,0.0,0.0,-0.0331,0.0,0.0,0.0,0.0,0.0,0.0,0.0,0.0,0.0,0.0,0.0,0.0,0.0,0.0,0.0,0.0,0.0,0.0,0.0,0.0,0.0,0.0,0.0,0.0,0.0,0.0,0.0,0.0,0.0,0.0,0.0,0.0,0.0,0.0,0.0,0.0,0.0,0.0,0.0,0.0,0.0,0.0,0.0,0.0,0.0,0.0,0.0,0.0,0.0,0.7107,1.085,1.0748,1.2794,1.493,1.478,1.4855,1.493,0.0,0.0,1.4468,1.4333,1.4299,1.4299,1.4299,1.4299,1.4299,0.0,0.0,0.0,1.4489,1.4516,0.0,0.0,0.0,1.5025,1.5167,1.5316,1.5411,1.5411,1.5411,1.5479,1.5628,1.5493,1.4152,1.1543,1.1559,1.0397,0.7824,0.516,0.3891,0.3924,0.1311,0.0,0.0,0.0,0.0,0.0,0.0,0.0,0.0,0.0,0.0,0.0,0.0,0.0,0.0,0.0,0.0,0.0,0.0,0.0,0.0,0.0,0.0,0.0,0.0,0.0,0.0,0.0,0.0,0.0,0.0,0.0,0.0,0.0,0.0,0.0,0.0,0.0,0.0,0.0,0.0,0.0,0.0,0.0,0.0,0.0,0.0,0.0,0.0,0.0,0.0,0.0,0.0,0.0,0.0,0.0,0.0,0.0,0.0,0.0,0.0,0.0,0.0,0.0,0.0,0.0,0.0,0.0,0.0,0.0,0.0,0.0,0.0,0.0897,0.3409,0.6649,0.9913,1.0364,1.0633,1.3893,1.3406,1.2624,1.4229,0.0,0.0,1.4306,1.4299,1.4299,1.4299,1.4299,1.4299,1.4299,0.0,0.0,0.0,0.0,0.0,1.4787,1.4991,1.5133,1.5181,1.5418,1.552,1.5418,1.3855,1.2944,1.2886,1.1192,1.0625,1.1675,1.1716,0.9608,0.5206,0.4408,0.3014,0.1211,0.0407,0.0,0.0,0.0,0.0,0.0,0.0,0.0,0.0,0.0,0.0,0.0,0.0,0.0,0.0,0.0,0.0,0.0,0.0,0.0,0.0,0.0,0.0,0.0,0.0,0.0,0.0,0.0,0.0,0.0,0.0,0.0,0.0,0.0,0.0,0.0,0.0,0.0,0.0,0.0,0.0,0.0,0.0,0.0,0.0,0.0,0.0,0.0,0.0,0.0,0.0,0.0,0.0,0.0,0.0,0.0,0.0,0.0,0.0,0.0,0.0,0.0,0.0,0.0,0.0,0.0,0.0,0.0,0.0,0.0,0.0,0.0,0.0,0.0,0.1067,0.3122,0.0,0.7801,0.8399,1.2261,1.2114,1.1501,0.0,0.0,0.0,0.0,0.0,0.0,1.4204,1.4211,1.4231,1.4292,1.4299,0.0,0.0,0.0,0.0,1.4801,0.0,0.0,1.3852,1.4004,1.362,1.2521,1.111,1.021,1.0206,0.8641,0.8088,0.886,0.8864,0.6797,0.2519,0.2519,0.1614,0.0,0.0,0.0,0.0,0.0,0.0,0.0,0.0,0.0,0.0,0.0,0.0,0.0,0.0,0.0,0.0,0.0,0.0,0.0,0.0,0.0,0.0,0.0,0.0,0.0,0.0,0.0,0.0,0.0,0.0,0.0,0.0,0.0,0.0,0.0,0.0,0.0,0.0,0.0,0.0,0.0,0.0,0.0,0.0,0.0,0.0,0.0,0.0,0.0,0.0,0.0,0.0,0.0,0.0,0.0,0.0,0.0,0.0,0.0,0.0,0.0,0.0,0.0,0.0,0.0,0.0,0.0,0.0,0.0,0.0,0.0,0.0,0.0,0.0,0.0,0.0,0.0,0.0,0.5168,0.7611,1.0073,1.05,1.1019,1.3249,0.0,0.0,0.0,0.0,0.0,0.0,1.3988,1.3954,1.4278,1.4122,0.0,0.0,1.4529,0.0,0.0,1.4819,1.3946,1.1385,1.1296,1.0311,0.7818,0.7551,0.7534,0.7537,0.7336,0.6172,0.3823,0.3724,0.2519,0.0,0.0,0.0,0.0,0.0,0.0,0.0,0.0,0.0,0.0,0.0,0.0,0.0,0.0,0.0,0.0,0.0,0.0,0.0,0.0,0.0,0.0,0.0,0.0,0.0,0.0,0.0,0.0,0.0,0.0,0.0,0.0,0.0,0.0,0.0,0.0,0.0,0.0,0.0,0.0,0.0,0.0,0.0,0.0,0.0,0.0,0.0,0.0,0.0,0.0,0.0,0.0,0.0,0.0,0.0,0.0,0.0,0.0,0.0,0.0,0.0,0.0,0.0,0.0,0.0,0.0,0.0,0.0,0.0,0.0,0.0,0.0,0.0,0.0,0.0,0.0,0.0,0.0,0.0,0.0089,0.0716,0.0,0.2795,0.6998,0.6637,0.5918,0.0,0.0,0.0,0.0,0.0,0.0,0.0,0.0,1.2113,1.4027,1.2774,1.2277,1.422,0.0,0.0,1.2466,1.2223,1.1291,0.8731,0.8595,0.839,0.779,0.601,0.4877,0.4911,0.2992,0.1598,0.1009,0.0908,0.0606,0.0,0.0,0.0,0.0,0.0,0.0,0.0,0.0,0.0,0.0,0.0,0.0,0.0,0.0,0.0,0.0,0.0,0.0,0.0,0.0,0.0,0.0,0.0,0.0,0.0,0.0,0.0,0.0,0.0,0.0,0.0,0.0,0.0,0.0,0.0,0.0,0.0,0.0,0.0,0.0,0.0,0.0,0.0,0.0,0.0,0.0,0.0,0.0,0.0,0.0,0.0,0.0,0.0,0.0,0.0,0.0,0.0,0.0,0.0,0.0,0.0,0.0,0.0,0.0,0.0,0.0,0.0,0.0,0.0,0.0,0.0,0.0,0.0,0.0,0.0,0.0,0.0,0.0,0.0,0.0,0.0,0.0,0.0897,0.4561,0.4561,0.42,0.6482,0.0,0.0,0.0,0.0,0.0,0.0,0.0,0.0,0.0,0.9904,0.0,0.0,0.0,1.1131,0.9767,0.9681,0.8652,0.6117,0.5912,0.5485,0.4331,0.2984,0.2206,0.2116,0.0803,0.0,0.0,0.0,0.0,0.0,0.0,0.0,0.0,0.0,0.0,0.0,0.0,0.0,0.0,0.0,0.0,0.0,0.0,0.0,0.0,0.0,0.0,0.0,0.0,0.0,0.0,0.0,0.0,0.0,0.0,0.0,0.0,0.0,0.0,0.0,0.0,0.0,0.0,0.0,0.0,0.0,0.0,0.0,0.0,0.0,0.0,0.0,0.0,0.0,0.0,0.0,0.0,0.0,0.0,0.0,0.0,0.0,0.0,0.0,0.0,0.0,0.0,0.0,0.0,0.0,0.0,0.0,0.0,0.0,0.0,0.0,0.0,0.0,0.0,0.0,0.0,0.0,0.0,0.0,0.0,0.0,0.0,0.0,0.0,0.0,0.0,0.0448,0.2502,0.3033,0.3556,0.5376,0.0,0.0,0.0,0.0,0.0,0.0,0.6659,0.0,0.0,0.0,0.0,0.7376,0.7544,0.7501,0.7024,0.7027,0.6006,0.347,0.3214,0.2361,0.0199,0.0,0.0,0.0,0.0,0.0,0.0,0.0,0.0,0.0,0.0,0.0,0.0,0.0,0.0,0.0,0.0,0.0,0.0,0.0,0.0,0.0,0.0,0.0,0.0,0.0,0.0,0.0,0.0,0.0,0.0,0.0,0.0,0.0,0.0,0.0,0.0,0.0,0.0,0.0,0.0,0.0,0.0,0.0,0.0,0.0,0.0,0.0,0.0,0.0,0.0,0.0,0.0,0.0,0.0,0.0,0.0,0.0,0.0,0.0,0.0,0.0,0.0,0.0,0.0,0.0,0.0,0.0,0.0,0.0,0.0,0.0,0.0,0.0,0.0,0.0,0.0,0.0,0.0,0.0,0.0,0.0,0.0,0.0,0.0,0.0,0.0,0.0,0.0,0.0,0.0,0.0089,0.0443,0.0527,0.0612,0.0,0.0,0.0,0.0,0.0,0.0,0.0,0.5357,0.4753,0.0,0.0,0.7395,0.0,0.0,0.6835,0.4656,0.4371,0.3341,0.0869,0.0585,0.0394,0.0,0.0,0.0,0.0,0.0,0.0,0.0,0.0,0.0,0.0,0.0,0.0,0.0,0.0,0.0,0.0,0.0,0.0,0.0,0.0,0.0,0.0,0.0,0.0,0.0,0.0,0.0,0.0,0.0,0.0,0.0,0.0,0.0,0.0,0.0,0.0,0.0,0.0,0.0,0.0,0.0,0.0,0.0,0.0,0.0,0.0,0.0,0.0,0.0,0.0,0.0,0.0,0.0,0.0,0.0,0.0,0.0,0.0,0.0,0.0,0.0,0.0,0.0,0.0,0.0,0.0,0.0,0.0,0.0,0.0,0.0,0.0,0.0,0.0,0.0,0.0,0.0,0.0,0.0,0.0,0.0,0.0,0.0,0.0,0.0,0.0,0.0,0.0,0.0,0.0,0.0,0.0,0.0,0.0,0.0,0.0,0.0,0.0,0.0,0.0,0.0,0.0,0.0,0.2016,0.3069,0.0,0.3363,0.3397,0.3415,0.3046,0.1905,0.1715,0.1246,0.0097,0.0,0.0,0.0,0.0,0.0,0.0,0.0,0.0,0.0,0.0,0.0,0.0,0.0,0.0,0.0,0.0,0.0,0.0,0.0,0.0,0.0,0.0,0.0,0.0,0.0,0.0,0.0,0.0,0.0,0.0,0.0,0.0,0.0,0.0,0.0,0.0,0.0,0.0,0.0,0.0,0.0,0.0,0.0,0.0,0.0,0.0,0.0,0.0,0.0,0.0,0.0,0.0,0.0,0.0,0.0,0.0,0.0,0.0,0.0,0.0,0.0,0.0,0.0,0.0,0.0,0.0,0.0,0.0,0.0,0.0,0.0,0.0,0.0,0.0,0.0,0.0,0.0,0.0,0.0,0.0,0.0,0.0,0.0,0.0,0.0,0.0,0.0,0.0,0.0,0.0,0.0,0.0,0.0,0.0,0.0,0.0,0.0,0.0,0.0,0.0,0.0,0.0,0.0,0.0,0.0,0.0,0.0,0.0,0.0,0.0,0.0,0.0,0.0,0.0,0.0,0.0,0.0,0.0,0.0,0.0,0.0,0.0,0.0,0.0,0.0,0.0,0.0,0.0,0.0,0.0,0.0,0.0,0.0,0.0,0.0,0.0,0.0,0.0,0.0,0.0,0.0,0.0,0.0,0.0,0.0,0.0,0.0,0.0,0.0,0.0,0.0,0.0,0.0,0.0,0.0,0.0,0.0,0.0,0.0,0.0,0.0,0.0,0.0,0.0,0.0,0.0,0.0,0.0,0.0,0.0,0.0,0.0,0.0,0.0,0.0,0.0,0.0,0.0,0.0,0.0,0.0,0.0,0.0,0.0,0.0,0.0,0.0,0.0,0.0,0.0,0.0,0.0,0.0,0.0,0.0,0.0,0.0,0.0,0.0,0.0,0.0,0.0,0.0,0.0,0.0,0.0,0.0,0.0,0.0,0.0,0.0,0.0,0.0,0.0,0.0,0.0,0.0,0.0,0.0,0.0,0.0,0.0,0.0,0.0,0.0,0.0,0.0,0.0,0.0,0.0,0.0,0.0,0.0,0.0,0.0,0.0,0.0,0.0,0.0,0.0,0.0,0.0,0.0,0.0,0.0,0.0,0.0,0.0,0.0,0.0,0.0,0.0,0.0,0.0,0.0,0.0,0.0,0.0,0.0,0.0,0.0,0.0,0.0,0.0,0.0,0.0,0.0,0.0,0.0,0.0,0.0,0.0,0.0,0.0,0.0,0.0,0.0,0.0,0.0,0.0,0.0,0.0,0.0,0.0,0.0,0.0,0.0,0.0,0.0,0.0,0.0,0.0,0.0,0.0,0.0,0.0,0.0,0.0,0.0,0.0,0.0,0.0,0.0,0.0,0.0,0.0,0.0,0.0,0.0,0.0,0.0,0.0,0.0,0.0,0.0,0.0,0.0,0.0,0.0,0.0,0.0,0.0,0.0,0.0,0.0,0.0,0.0,0.0,0.0,0.0,0.0,0.0,0.0,0.0,0.0,0.0,0.0,0.0,0.0,0.0,0.0,0.0,0.0,0.0,0.0,0.0,0.0,0.0,0.0,0.0,0.0,0.0,0.0,0.0,0.0,0.0,0.0,0.0,0.0,0.0,0.0,0.0,0.0,0.0,0.0,0.0,0.0,0.0,0.0,0.0,0.0,0.0,0.0,0.0,0.0,0.0,0.0,0.0,0.0,0.0,0.0,0.0,0.0,0.0,0.0,0.0,0.0,0.0,0.0,0.0,0.0,0.0,0.0,0.0,0.0,0.0,0.0,0.0,0.0,0.0,0.0,0.0,0.0,0.0,0.0,0.0,0.0,0.0,0.0,0.0,0.0,0.0,0.0,0.0,0.0,0.0,0.0,0.0,0.0,0.0,0.0,0.0,0.0,0.0,0.0,0.0,0.0,0.0,0.0,0.0,0.0,0.0,0.0,0.0,0.0,0.0,0.0,0.0,0.0,0.0,0.0,0.0,0.0,0.0,0.0,0.0,0.0,0.0,0.0,0.0,0.0,0.0,0.0,0.0,0.0,0.0,0.0,0.0,0.0,0.0,0.0,0.0,0.0,0.0,0.0,0.0,0.0,0.0,0.0,0.0,0.0,0.0,0.0,0.0,0.0,0.0,0.0,0.0,0.0,0.0,0.0,0.0,0.0,0.0,0.0,0.0,0.0,0.0,0.0,0.0,0.0,0.0,0.0,0.0,0.0,0.0,0.0,0.0,0.0,0.0,0.0,0.0,0.0,0.0,0.0,0.0,0.0,0.0,0.0,0.0,0.0,0.0,0.0,0.0,0.0,0.0,0.0,0.0,0.0,0.0,0.0,0.0,0.0,0.0,0.0,0.0,0.0,0.0,0.0,0.0,0.0,0.0,0.0,0.0,0.0,0.0,0.0,0.0,0.0,0.0,0.0,0.0,0.0,0.0,0.0,0.0,0.0,0.0,0.0,0.0,0.0,0.0,0.0,0.0,0.0,0.0,0.0,0.0,0.0,0.0,0.0,0.0,0.0,0.0,0.0,0.0,0.0,0.0,0.0,0.0,0.0,0.0,0.0,0.0,0.0,0.0,0.0,0.0,0.0,0.0,0.0,0.0,0.0,0.0,0.0,0.0,0.0,0.0,0.0,0.0,0.0,0.0,0.0,0.0,0.0,0.0,0.0,0.0,0.0,0.0,0.0,0.0,0.0,0.0,0.0,0.0,0.0,0.0,0.0,0.0,0.0,0.0,0.0,0.0,0.0,0.0,0.0,0.0,0.0,0.0,0.0,0.0,0.0,0.0,0.0,0.0,0.0,0.0,0.0,0.0,0.0,0.0,0.0,0.0,0.0,0.0,0.0,0.0,0.0,0.0,0.0,0.0,0.0,0.0,0.0,0.0,0.0,0.0,0.0,0.0,0.0,0.0,0.0,0.0,0.0,0.0,0.0,0.0,0.0,0.0,0.0,0.0,0.0,0.0,0.0,0.0,0.0,0.0,0.0,0.0,0.0,0.0,0.0,0.0,0.0,0.0,0.0,0.0,0.0,0.0,0.0,0.0,0.0,0.0,0.0,0.0,0.0,0.0,0.0,0.0,0.0,0.0,0.0,0.0,0.0,0.0,0.0,0.0,0.0,0.0,0.0,0.0,0.0,0.0,0.0,0.0,0.0,0.0,0.0,0.0,0.0,0.0,0.0,0.0,0.0,0.0,0.0,0.0,0.0,0.0,0.0,0.0,0.0,0.0,0.0,0.0,0.0,0.0,0.0,0.0,0.0,0.0,0.0,0.0,0.0,0.0,0.0,0.0,0.0,0.0,0.0,0.0,0.0,0.0,0.0,0.0,0.0,0.0,0.0,0.0,0.0,0.0,0.0,0.0,0.0,0.0,0.0,0.0,0.0,0.0,0.0,0.0,0.0,0.0,0.0,0.0,0.0,0.0,0.0,0.0,0.0,0.0,0.0,0.0,0.0,0.0,0.0,0.0,0.0,0.0,0.0,0.0,0.0,0.0,0.0,0.0,0.0,0.0,0.0,0.0,0.0,0.0,0.0,0.0,0.0,0.0,0.0,0.0,0.0,0.0,0.0,0.0,0.0,0.0,0.0,0.0,0.0,0.0,0.0,0.0,0.0,0.0,0.0,0.0,0.0,0.0,0.0,0.0,0.0,0.0,0.0,0.0,0.0,0.0,0.0,0.0,0.0,0.0,0.0,0.0,0.0,0.0,0.0,0.0,0.0,0.0,0.0,0.0,0.0,0.0,0.0,0.0,0.0,0.0,0.0,0.0,0.0,0.0,0.0,0.0,0.0,0.0,0.0,0.0,0.0,0.0,0.0,0.0,0.0,0.0,0.0,0.0,0.0,0.0,0.0,0.0,0.0,0.0,0.0,0.0,0.0,0.0,0.0,0.0,0.0,0.0,0.0,0.0,0.0,0.0,0.0,0.0,0.0,0.0,0.0,0.0,0.0,0.0,0.0,0.0,0.0,0.0,0.0,0.0,0.0,0.0,0.0,0.0,0.0,0.0,0.0,0.0,0.0,0.0,0.0,0.0,0.0,0.0,0.0,0.0,0.0,0.0,0.0,0.0,0.0,0.0,0.0,0.0,0.0,0.0,0.0,0.0,0.0,0.0,0.0,0.0,0.0,0.0,0.0,0.0,0.0,0.0,0.0,0.0,0.0,0.0,0.0,0.0,0.0,0.0,0.0,0.0,0.0,0.0,0.0,0.0,0.0,0.0,0.0,0.0,0.0,0.0,0.0,0.0,0.0,0.0,0.0,0.0,0.0,0.0,0.0,0.0,0.0,0.0,0.0,0.0,0.0,0.0,0.0,0.0,0.0,0.0,0.0,0.0,0.0,0.0,0.0,0.0,0.0,0.0,0.0,0.0,0.0,0.0,0.0,0.0,0.0,0.0,0.0,0.0,0.0,0.0,0.0,0.0,0.0,0.0,0.0,0.0,0.0,0.0,0.0,0.0,0.0,0.0,0.0,0.0,0.0,0.0,0.0,0.0,0.0,0.0,0.0,0.0,0.0,0.0,0.0,0.0,0.0,0.0,0.0,0.0,0.0,0.0,0.0,0.0,0.0,0.0,0.0,0.0,0.0,0.0,0.0,0.0,0.0,0.0,0.0,0.0,0.0,0.0,0.0,0.0,0.0,0.0,0.0,0.0,0.0,0.0,0.0,0.0,0.0,0.0,0.0,0.0,0.0,0.0,0.0,0.0,0.0,0.0,0.0,0.0,0.0,0.0,0.0,0.0,0.0,0.0,0.0,0.0,0.0,0.0,0.0,0.0,0.0,0.0,0.0,0.0,0.0,0.0,0.0,0.0,0.0,0.0,0.0,0.0,0.0,0.0,0.0,0.0,0.0,0.0,0.0,0.0,0.0,0.0,0.0,0.0,0.0,0.0,0.0,0.0,0.0,0.0,0.0,0.0,0.0,0.0,0.0,0.0,0.0,0.0,0.0,0.0,0.0,0.0,0.0,0.0,0.0,0.0,0.0,0.0,0.0,0.0,0.0,0.0,0.0,0.0,0.0,0.0,0.0,0.0,0.0,0.0,0.0,0.0,0.0,0.0,0.0,0.0,0.0,0.0,0.0,0.0,0.0,0.0,0.0,0.0,0.0,0.0,0.0,0.0,0.0,0.0,0.0,0.0,0.0,0.0,0.0,0.0,0.0,0.0,0.0,0.0,0.0,0.0,0.0,0.0,0.0,0.0,0.0,0.0,0.0,0.0,0.0,0.0,0.0,0.0,0.0,0.0,0.0,0.0,0.0,0.0,0.0,0.0,0.0,0.0,0.0,0.0,0.0,0.0,0.0,0.0,0.0,0.0,0.0,0.0,0.0,0.0,0.0,0.0,0.0,0.0,0.0,0.0,0.0,0.0,0.0,0.0,0.0,0.0,0.0,0.0,0.0,0.0,0.0,0.0,0.0,0.0,0.0,0.0,0.0,0.0,0.0,0.0,0.0,0.0,0.0,0.0,0.0,0.0,0.0,0.0,0.0,0.0,0.0,0.0,0.0,0.0,0.0,0.0,0.0,0.0,0.0,0.0,0.0,0.0,0.0,0.0,0.0,0.0,0.0,0.0,0.0,0.0,0.0,0.0,0.0,0.0,0.0,0.0,0.0,0.0,0.0,0.0,0.0,0.0,0.0,0.0,0.0,0.0,0.0,0.0,0.0,0.0,0.0,0.0,0.0,0.0,0.0,0.0,0.0,0.0,0.0,0.0,0.0,0.0,0.0,0.0,0.0,0.0,0.0,0.0,0.0,0.0,0.0,0.0,0.0,0.0,0.0,0.0,0.0,0.0,0.0,0.0,0.0,0.0,0.0,0.0,0.0,0.0,0.0,0.0,0.0,0.0,0.0,0.0,0.0,0.0,0.0,0.0,0.0,0.0,0.0,0.0,0.0,0.0,0.0,0.0,0.0,0.0,0.0,0.0,0.0,0.0,0.0,0.0,0.0,0.0,0.0,0.0,0.0,0.0,0.0,0.0,0.0,0.0,0.0,0.0,0.0,0.0,0.0,0.0,0.0,0.0,0.0,0.0,0.0,0.0,0.0,0.0,0.0,0.0,0.0,0.0,0.0,0.0,0.0,0.0,0.0,0.0,0.0,0.0,0.0,0.0,0.0,0.0,0.0,0.0,0.0,0.0,0.0,0.0,0.0,0.0,0.0,0.0,0.0,0.0,0.0,0.0,0.0,0.0,0.0,0.0,0.0,0.0,0.0,0.0,0.0,0.0,0.0,0.0,0.0,0.0,0.0,0.0,0.0,0.0,0.0,0.0,0.0,0.0,0.0,0.0,0.0,0.0,0.0,0.0,0.0,0.0,0.0,0.0,0.0,0.0,0.0,0.0,0.0,0.0,0.0,0.0,0.0,0.0,0.0,0.0,0.0,0.0,0.0,0.0,0.0,0.0,0.0,0.0,0.0,0.0,0.0,0.0,0.0,0.0,0.0,0.0,0.0,0.0,0.0,0.0,0.0,0.0,0.0,0.0,0.0,0.0,0.0,0.0,0.0,0.0,0.0,0.0,0.0,0.0,0.0,0.0,0.0,0.0,0.0,0.0,0.0,0.0,0.0,0.0,0.0,0.0,0.0,0.0,0.0,0.0,0.0,0.0,0.0,0.0,0.0,0.0,0.0,0.0,0.0,0.0,0.0,0.0,0.0,0.0,0.0,0.0,0.0,0.0,0.0,0.0,0.0,0.0,0.0,0.0,0.0,0.0,0.0,0.0,0.0,0.0,0.0,0.0,0.0,0.0,0.0,0.0,0.0,0.0,0.0,0.0,0.0,0.0,0.0,0.0,0.0,0.0,0.0,0.0,0.0,0.0,0.0,0.0,0.0,0.0,0.0,0.0,0.0,0.0,0.0,0.0,0.0,0.0,0.0,0.0,0.0,0.0,0.0,0.0,0.0,0.0,0.0,0.0,0.0,0.0,0.0,0.0,0.0,0.0,0.0,0.0,0.0,0.0,0.0,0.0,0.0,0.0,0.0,0.0,0.0,0.0,0.0,0.0,0.0,0.0,0.0,0.0,0.0,0.0,0.0,0.0,0.0,0.0,0.0,0.0,0.0,0.0,0.0,0.0,0.0,0.0,0.0,0.0,0.0,0.0,0.0,0.0,0.0,0.0,0.0,0.0,0.0,0.0,0.0,0.0,0.0,0.0,0.0,0.0,0.0,0.0,0.0,0.0,0.0,0.0,0.0,0.0,0.0,0.0,0.0,0.0,0.0,0.0,0.0,0.0,0.0,0.0,0.0,0.0,0.0,0.0,0.0,0.0,0.0,0.0,0.0,0.0,0.0,0.0,0.0,0.0,0.0,0.0,0.0,0.0,0.0,0.0,0.0,0.0,0.0,0.0,0.0,0.0,0.0,0.0,0.0,0.0,0.0,0.0,0.0,0.0,0.0,0.0,0.0,0.0,0.0,0.0,0.0,0.0,0.0,0.0,0.0,0.0,0.0,0.0,0.0,0.0,0.0,0.0,0.0,0.0,0.0,0.0,0.0,0.0,0.0,0.0,0.0,0.0,0.0,0.0,0.0,0.0,0.0,0.0,0.0,0.0,0.0,0.0,0.0,0.0,0.0,0.0,0.0,0.0,0.0,0.0,0.0,0.0,0.0,0.0,0.0,0.0,0.0,0.0,0.0,0.0,0.0,0.0,0.0,0.0,0.0,0.0,0.0,0.0,0.0,0.0,0.0,0.0,0.0,0.0,0.0,0.0,0.0,0.0,0.0,0.0,0.0,0.0,0.0,0.0,0.0,0.0,0.0,0.0,0.0,0.0,0.0,0.0,0.0,0.0,0.0,0.0,0.0,0.0,0.0,0.0,0.0,0.0,0.0,0.0,0.0,0.0,0.0,0.0,0.0,0.0,0.0,0.0,0.0,0.0,0.0,0.0,0.0,0.0,0.0,0.0,0.0,0.0,0.0,0.0,0.0,0.0,0.0,0.0,0.0,0.0,0.0,0.0,0.0,0.0,0.0,0.0,0.0,0.0,0.0,0.0,0.0,0.0,0.0,0.0,0.0,0.0,0.0,0.0,0.0,0.0,0.0,0.0,0.0,0.0,0.0,0.0,0.0,0.0,0.0,0.0,0.0,0.0,0.0,0.0,0.0,0.0,0.0,0.0,0.0,0.0,0.0,0.0,0.0,0.0,0.0,0.0,0.0,0.0,0.0,0.0,0.0,0.0,0.0,0.0,0.0,0.0,0.0,0.0,0.0,0.0,0.0,0.0,0.0,0.0,0.0,0.0,0.0,0.0,0.0,0.0,0.0,0.0,0.0,0.0,0.0,0.0,0.0,0.0,0.0,0.0,0.0,0.0,0.0,0.0,0.0,0.0,0.0,0.0,0.0,0.0,0.0,0.0,0.0,0.0,0.0,0.0,0.0,0.0,0.0,0.0,0.0,0.0,0.0,0.0,0.0,0.0,0.0,0.0,0.0,0.0,0.0,0.0,0.0,0.0,0.0,0.0,0.0,0.0,0.0,0.0,0.0,0.0,0.0,0.0,0.0,0.0,0.0,0.0,0.0,0.0,0.0,0.0,0.0,0.0,0.0,0.0,0.0,0.0,0.0,0.0,0.0,0.0,0.0,0.0,0.0,0.0,0.0,0.0,0.0,0.0,0.0,0.0,0.0,0.0,0.0,0.0,0.0,0.0,0.0,0.0,0.0,0.0,0.0,0.0,0.0,0.0,0.0,0.0,0.0,0.0,0.0,0.0,0.0,0.0,0.0,0.0,0.0,0.0,0.0,0.0,0.0,0.0,0.0,0.0,0.0,0.0,0.0,0.0,0.0,0.0,0.0,0.0,0.0,0.0,0.0,0.0,0.0,0.0,0.0,0.0,0.0,0.0,0.0,0.0,0.0,0.0,0.0,0.0,0.0,0.0,0.0,0.0,0.0,0.0,0.0,0.0,0.0,0.0,0.0,0.0,0.0,0.0,0.0,0.0,0.0,0.0,0.0,0.0,0.0,0.0,0.0,0.0,0.0,0.0,0.0,0.0,0.0,0.0,0.0,0.0,0.0,0.0,0.0,0.0,0.0,0.0,0.0,0.0,0.0,0.0,0.0,0.0,0.0,0.0,0.0,0.0,0.0,0.0,0.0,0.0,0.0,0.0,0.0,0.0,0.0,0.0,0.0,0.0,0.0,0.0,0.0,0.0,0.0,0.0,0.0,0.0,0.0,0.0,0.0,0.0,0.0,0.0,0.0,0.0,0.0,0.0,0.0,0.0,0.0,0.0,0.0,0.0,0.0,0.0,0.0,0.0,0.0,0.0,0.0,0.0,0.0,0.0,0.0,0.0,0.0,0.0,0.0,0.0,0.0,0.0,0.0,0.0,0.0,0.0,0.0,0.0,0.0,0.0,0.0,0.0,0.0,0.0,0.0,0.0,0.0,0.0,0.0,0.0,0.0,0.0,0.0,0.0,0.0,0.0,0.0,0.0,0.0,0.0,0.0,0.0,0.0,0.0,0.0,0.0,0.0,0.0,0.0,0.0,0.0,0.0,0.0,0.0,0.0,0.0,0.0,0.0,0.0,0.0,0.0,0.0,0.0,0.0,0.0,0.0,0.0,0.0,0.0,0.0,0.0,0.0,0.0,0.0,0.0,0.0,0.0,0.0,0.0,0.0,0.0,0.0,0.0,0.0,0.0,0.0,0.0,0.0,0.0,0.0,0.0,0.0,0.0,0.0,0.0,0.0,0.0,0.0,0.0,0.0,0.0,0.0,0.0,0.0,0.0,0.0,0.0,0.0,0.0,0.0,0.0,0.0,0.0,0.0,0.0,0.0,0.0,0.0,0.0,0.0,0.0,0.0,0.0,0.0,0.0,0.0,0.0,0.0,0.0,0.0,0.0,0.0,0.0,0.0,0.0,0.0,0.0,0.0,0.0,0.0,0.0,0.0,0.0,0.0,0.0,0.0,0.0,0.0,0.0,0.0,0.0,0.0,0.0,0.0,0.0,0.0,0.0,0.0,0.0,0.0,0.0,0.0,0.0,0.0,0.0,0.0,0.0,0.0,0.0,0.0,0.0,0.0,0.0,0.0,0.0,0.0,0.0,0.0,0.0,0.0,0.0,0.0,0.0,0.0,0.0,0.0,0.0,0.0,0.0,0.0,0.0,0.0,0.0,0.0,0.0,0.0,0.0,0.0,0.0,0.0,0.0,0.0,0.0,0.0,0.0,0.0,0.0,0.0,0.0,0.0,0.0,0.0,0.0,0.0,0.0,0.0,0.0,0.0,0.0,0.0,0.0,0.0,0.0,0.0,0.0,0.0,0.0,0.0,0.0,0.0,0.0,0.0,0.0,0.0,0.0,0.0,0.0,0.0,0.0,0.0,0.0,0.0,0.0,0.0,0.0,0.0,0.0,0.0,0.0,0.0,0.0,0.0,0.0,0.0,0.0,0.0,0.0,0.0,0.0,0.0,0.0,0.0,0.0,0.0,0.0,0.0,0.0,0.0,0.0,0.0,0.0,0.0,0.0,0.0,0.0,0.0,0.0,0.0,0.0,0.0,0.0,0.0,0.0,0.0,0.0,0.0,0.0,0.0,0.0,0.0,0.0,0.0,0.0,0.0,0.0,0.0,0.0,0.0,0.0,0.0,0.0,0.0,0.0,0.0,0.0,0.0,0.0,0.0,0.0,0.0,0.0,0.0,0.0,0.0,0.0,0.0,0.0,0.0,0.0,0.0,0.0,0.0,0.0,0.0,0.0,0.0,0.0,0.0,0.0,0.0,0.0,0.0,0.0,0.0,0.0,0.0,0.0,0.0,0.0,0.0,0.0,0.0,0.0,0.0,0.0,0.0,0.0,0.0,0.0,0.0,0.0,0.0,0.0,0.0,0.0,0.0,0.0,0.0,0.0,0.0,0.0,0.0,0.0,0.0,0.0,0.0,0.0,0.0,0.0,0.0,0.0,0.0,0.0,0.0,0.0,0.0,0.0,0.0,0.0,0.0,0.0,0.0,0.0,0.0,0.0,0.0,0.0,0.0,0.0,0.0,0.0,0.0,0.0,0.0,0.0,0.0,0.0,0.0,0.0,0.0,0.0,0.0,0.0,0.0,0.0,0.0,0.0,0.0,0.0,0.0,0.0,0.0,0.0,0.0,0.0,0.0,0.0,0.0,0.0,0.0,0.0,0.0,0.0,0.0,0.0,0.0,0.0,0.0,0.0,0.0,0.0,0.0,0.0,0.0,0.0,0.0,0.0,0.0,0.0,0.0,0.0,0.0,0.0,0.0,0.0,0.0,0.0,0.0,0.0,0.0,0.0,0.0,0.0,0.0,0.0,0.0,0.0,0.0,0.0,0.0,0.0,0.0,0.0,0.0,0.0,0.0,0.0,0.0,0.0,0.0,0.0,0.0,0.0,0.0,0.0,0.0,0.0,0.0,0.0,0.0,0.0,0.0,0.0,0.0,0.0,0.0,0.0,0.0,0.0,0.0,0.0,0.0,0.0,0.0,0.0,0.1583,0.1764,0.2124,0.3307,0.358,0.3573,0.3554,0.3553,0.3539,0.35,0.2524,0.1823,0.1823,0.0692,0.0,0.0,0.0,0.0,0.0,0.0,0.0,0.0,0.0,0.0,0.0,0.0,0.0,0.0,0.0,0.0,0.0,0.0,0.0,0.0,0.0,0.0,0.0,0.0,0.0,0.0,0.0,0.0,0.0,0.0,0.0,0.0,0.0,0.0,0.0,0.0,0.0,0.0,0.0,0.0,0.0,0.0,0.0,0.0,0.0,0.0,0.0,0.0,0.0,0.0,0.0,0.0,0.0,0.0,0.0,0.0,0.0,0.0,0.0,0.0,0.0,0.0,0.0,0.0,0.0,0.0,0.0,0.0,0.0,0.0,0.0,0.0,0.0,0.0,0.0,0.0,0.0,0.0,0.0,0.0,0.0,0.0,0.0,0.0,0.0,0.0,0.0,0.0,0.0,0.0,0.0,0.0,0.0,0.0,0.0,0.0,0.0,0.0,0.0,0.0,0.0,0.0,0.3848,0.4213,0.4846,0.6777,0.7057,0.7057,0.7057,0.7057,0.7126,0.7064,0.509,0.3587,0.3587,0.1402,0.0,0.0,0.0,0.0,0.0,0.0,0.0,0.0,0.0,0.0,0.0,0.0,0.0,0.0,0.0,0.0,0.0,0.0,0.0,0.0,0.0,0.0,0.0,0.0,0.0,0.0,0.0,0.0,0.0,0.0,0.0,0.0,0.0,0.0,0.0,0.0,0.0,0.0,0.0,0.0,0.0,0.0,0.0,0.0,0.0,0.0,0.0,0.0,0.0,0.0,0.0,0.0,0.0,0.0,0.0,0.0,0.0,0.0,0.0,0.0,0.0,0.0,0.0,0.0,0.0,0.0,0.0,0.0,0.0,0.0,0.0,0.0,0.0,0.0,0.0,0.0,0.0,0.0,0.0,0.0,0.0,0.0,0.0,0.0,0.0,0.0,0.0,0.0,0.0,0.0,0.0,0.0,0.0,0.0,0.0,0.0,0.0,0.0,0.0,0.0,0.0,0.0,0.6474,0.6499,0.6631,0.7033,0.7057,0.7057,0.7057,0.7057,0.7143,0.7136,0.5034,0.3617,0.3617,0.1449,0.0,0.0,0.0,0.0,0.0,0.0,0.0,0.0,0.0,0.0,0.0,0.0,0.0,0.0,0.0,0.0,0.0,0.0,0.0,0.0,0.0,0.0,0.0,0.0,0.0,0.0,0.0,0.0,0.0,0.0,0.0,0.0,0.0,0.0,0.0,0.0,0.0,0.0,0.0,0.0,0.0,0.0,0.0,0.0,0.0,0.0,0.0,0.0,0.0,0.0,0.0,0.0,0.0,0.0,0.0,0.0,0.0,0.0,0.0,0.0,0.0,0.0,0.0,0.0,0.0,0.0,0.0,0.0,0.0,0.0,0.0,0.0,0.0,0.0,0.0,0.0,0.0,0.0,0.0,0.0,0.0,0.0,0.0,0.0,0.0,0.0,0.0,0.0,0.0,0.0,0.0,0.0,0.0,0.0,0.0,0.0,0.0,0.0,0.0,0.0,0.0,0.0,0.9153,0.8955,0.9471,1.0941,1.1207,1.125,1.125,1.125,1.125,1.125,0.928,0.7798,0.7798,0.4497,0.2223,0.2223,0.0831,0.0,0.0,0.0,0.0,0.0,0.0,0.0,0.0,0.0,0.0,0.0,0.0,0.0,0.0,0.0,0.0,0.0,0.0,0.0,0.0,0.0,0.0,0.0,0.0,0.0,0.0,0.0,0.0,0.0,0.0,0.0,0.0,0.0,0.0,0.0,0.0,0.0,0.0,0.0,0.0,0.0,0.0,0.0,0.0,0.0,0.0,0.0,0.0,0.0,0.0,0.0,0.0,0.0,0.0,0.0,0.0,0.0,0.0,0.0,0.0,0.0,0.0,0.0,0.0,0.0,0.0,0.0,0.0,0.0,0.0,0.0,0.0,0.0,0.0,0.0,0.0,0.0,0.0,0.0,0.0,0.0,0.0,0.0,0.0,0.0,0.0,0.0,0.0,0.0,0.0,0.0,0.0,0.0,0.0,0.0,0.0,0.0,0.0,0.0,1.1544,1.1356,1.1974,1.378,1.4197,1.4299,1.4299,1.4299,1.4312,1.4353,1.2304,1.0947,1.1008,0.6703,0.3771,0.3886,0.1516,0.0,0.0,0.0,0.0,0.0,0.0,0.0,0.0,0.0,0.0,0.0,0.0,0.0,0.0,0.0,0.0,0.0,0.0,0.0,0.0,0.0,0.0,0.0,0.0,0.0,0.0,0.0,0.0,0.0,0.0,0.0,0.0,0.0,0.0,0.0,0.0,0.0,0.0,0.0,0.0,0.0,0.0,0.0,0.0,0.0,0.0,0.0,0.0,0.0,0.0,0.0,0.0,0.0,0.0,0.0,0.0,0.0,0.0,0.0,0.0,0.0,0.0,0.0,0.0,0.0,0.0,0.0,0.0,0.0,0.0,0.0,0.0,0.0,0.0,0.0,0.0,0.0,0.0,0.0,0.0,0.0,0.0,0.0,0.0,0.0,0.0,0.0,0.0,0.0,0.0,0.0,0.0,0.0,0.0,0.0,0.0,0.0,0.0,0.0,1.366,1.3666,1.3799,1.4048,1.4197,1.4299,1.4299,1.4299,1.4346,1.4489,1.2431,1.1033,1.135,0.6828,0.383,0.4003,0.1553,0.0,0.0,0.0,0.0,0.0,0.0,0.0,0.0,0.0,0.0,0.0,0.0,0.0,0.0,0.0,0.0,0.0,0.0,0.0,0.0,0.0,0.0,0.0,0.0,0.0,0.0,0.0,0.0,0.0,0.0,0.0,0.0,0.0,0.0,0.0,0.0,0.0,0.0,0.0,0.0,0.0,0.0,0.0,0.0,0.0,0.0,0.0,0.0,0.0,0.0,0.0,0.0,0.0,0.0,0.0,0.0,0.0,0.0,0.0,0.0,0.0,0.0,0.0,0.0,0.0,0.0,0.0,0.0,0.0,0.0,0.0,0.0,0.0,0.0,0.0,0.0,0.0,0.0,0.0,0.0,0.0,0.0,0.0,0.0,0.0,0.0,0.0,0.0,0.0,0.0,0.0,0.0,0.0,0.0,0.0,0.0,0.0,0.0,0.0,1.3858,1.3926,1.4007,1.4061,1.4197,1.4299,1.4299,1.438,1.4496,1.4645,1.4132,1.3784,1.4064,0.9452,0.6429,0.647,0.2488,0.0,0.0,0.0,0.0,0.0,0.0,0.0,0.0,0.0,0.0,0.0,0.0,0.0,0.0,0.0,0.0,0.0,0.0,0.0,0.0,0.0,0.0,0.0,0.0,0.0,0.0,0.0,0.0,0.0,0.0,0.0,0.0,0.0,0.0,0.0,0.0,0.0,0.0,0.0,0.0,0.0,0.0,0.0,0.0,0.0,0.0,0.0,0.0,0.0,0.0,0.0,0.0,0.0,0.0,0.0,0.0,0.0,0.0,0.0,0.0,0.0,0.0,0.0,0.0,0.0,0.0,0.0,0.0,0.0,0.0,0.0,0.0,0.0,0.0,0.0,0.0,0.0,0.0,0.0,0.0,0.0,0.0,0.0,0.0,0.0,0.0,0.0,0.0,0.0,0.0,0.0,0.0,0.0,0.0,0.0,0.0,0.0,0.0,0.0,1.4021,1.4082,1.4136,1.4082,1.4197,1.4319,1.4367,1.4496,1.4665,1.4869,1.516,1.5425,1.5628,1.1921,0.9067,0.8012,0.3954,0.1117,0.0102,0.0,0.0,0.0,0.0,0.0,0.0,0.0,0.0,0.0,0.0,0.0,0.0,0.0,0.0,0.0,0.0,0.0,0.0,0.0,0.0,0.0,0.0,0.0,0.0,0.0,0.0,0.0,0.0,0.0,0.0,0.0,0.0,0.0,0.0,0.0,0.0,0.0,0.0,0.0,0.0,0.0,0.0,0.0,0.0,0.0,0.0,0.0,0.0,0.0,0.0,0.0,0.0,0.0,0.0,0.0,0.0,0.0,0.0,0.0,0.0,0.0,0.0,0.0,0.0,0.0,0.0,0.0,0.0,0.0,0.0,0.0,0.0,0.0,0.0,0.0,0.0,0.0,0.0,0.0,0.0,0.0,0.0,0.0,0.0,0.0,0.0,0.0,0.0,0.0,0.0,0.0,0.0,0.0,0.0,0.0,0.0,0.0,1.4306,1.4312,1.4265,1.4122,1.4217,1.436,1.4502,1.4658,1.4869,1.5174,1.5466,1.5764,1.6062,1.3866,1.1234,0.8756,0.584,0.3076,0.0415,0.0102,0.0,0.0,0.0,0.0,0.0,0.0,0.0,0.0,0.0,0.0,0.0,0.0,0.0,0.0,0.0,0.0,0.0,0.0,0.0,0.0,0.0,0.0,0.0,0.0,0.0,0.0,0.0,0.0,0.0,0.0,0.0,0.0,0.0,0.0,0.0,0.0,0.0,0.0,0.0,0.0,0.0,0.0,0.0,0.0,0.0,0.0,0.0,0.0,0.0,0.0,0.0,0.0,0.0,0.0,0.0,0.0,0.0,0.0,0.0,0.0,0.0,0.0,0.0,0.0,0.0,0.0,0.0,0.0,0.0,0.0,0.0,0.0,0.0,0.0,0.0,0.0,0.0,0.0,0.0,0.0,0.0,0.0,0.0,0.0,0.0,0.0,0.0,0.0,0.0,0.0,0.0,0.0,0.0,0.0,0.0,0.0,1.4434,1.4455,1.4441,1.4407,1.4428,1.4509,1.4658,1.4903,1.5215,1.5628,1.575,1.5913,1.6218,1.3799,1.1893,1.113,0.6837,0.3781,0.2973,0.1124,0.0,0.0,0.0,0.0,0.0,0.0,0.0,0.0,0.0,0.0,0.0,0.0,0.0,0.0,0.0,0.0,0.0,0.0,0.0,0.0,0.0,0.0,0.0,0.0,0.0,0.0,0.0,0.0,0.0,0.0,0.0,0.0,0.0,0.0,0.0,0.0,0.0,0.0,0.0,0.0,0.0,0.0,0.0,0.0,0.0,0.0,0.0,0.0,0.0,0.0,0.0,0.0,0.0,0.0,0.0,0.0,0.0,0.0,0.0,0.0,0.0,0.0,0.0,0.0,0.0,0.0,0.0,0.0,0.0,0.0,0.0,0.0,0.0,0.0,0.0,0.0,0.0,0.0,0.0,0.0,0.0,0.0,0.0,0.0,0.0,0.0,0.0,0.0,0.0,0.0,0.0,0.0,0.0,0.0,0.0,0.0,1.4597,1.4665,1.4733,1.4794,1.4862,1.4889,1.4848,1.5262,1.5669,1.592,1.6123,1.6313,1.6483,1.4992,1.3107,1.0653,0.7687,0.4822,0.2365,0.082,0.0,0.0,0.0,0.0,0.0,0.0,0.0,0.0,0.0,0.0,0.0,0.0,0.0,0.0,0.0,0.0,0.0,0.0,0.0,0.0,0.0,0.0,0.0,0.0,0.0,0.0,0.0,0.0,0.0,0.0,0.0,0.0,0.0,0.0,0.0,0.0,0.0,0.0,0.0,0.0,0.0,0.0,0.0,0.0,0.0,0.0,0.0,0.0,0.0,0.0,0.0,0.0,0.0,0.0,0.0,0.0,0.0,0.0,0.0,0.0,0.0,0.0,0.0,0.0,0.0,0.0,0.0,0.0,0.0,0.0,0.0,0.0,0.0,0.0,0.0,0.0,0.0,0.0,0.0,0.0,0.0,0.0,0.0,0.0,0.0,0.0,0.0,0.0,0.0,0.0,0.0,0.0,0.0,0.0,0.0,0.0,1.4801,1.4923,1.5072,1.5215,1.5364,1.5384,1.5126,1.5635,1.6069,1.6103,1.6435,1.6673,1.6686,1.6558,1.45,0.9771,0.8643,0.618,0.1344,0.0411,0.0,0.0,0.0,0.0,0.0,0.0,0.0,0.0,0.0,0.0,0.0,0.0,0.0,0.0,0.0,0.0,0.0,0.0,0.0,0.0,0.0,0.0,0.0,0.0,0.0,0.0,0.0,0.0,0.0,0.0,0.0,0.0,0.0,0.0,0.0,0.0,0.0,0.0,0.0,0.0,0.0,0.0,0.0,0.0,0.0,0.0,0.0,0.0,0.0,0.0,0.0,0.0,0.0,0.0,0.0,0.0,0.0,0.0,0.0,0.0,0.0,0.0,0.0,0.0,0.0,0.0,0.0,0.0,0.0,0.0,0.0,0.0,0.0,0.0,0.0,0.0,0.0,0.0,0.0,0.0,0.0,0.0,0.0,0.0,0.0,0.0,0.0,0.0,0.0,0.0,0.0,0.0,0.0,0.0,0.0,0.0,1.5106,1.5228,1.5377,1.5533,1.5683,1.5757,1.571,1.5811,1.5981,1.6239,1.6225,1.6246,1.6374,1.6252,1.5751,1.4838,1.0598,0.7676,0.6668,0.2427,0.0,0.0,0.0,0.0,0.0,0.0,0.0,0.0,0.0,0.0,0.0,0.0,0.0,0.0,0.0,0.0,0.0,0.0,0.0,0.0,0.0,0.0,0.0,0.0,0.0,0.0,0.0,0.0,0.0,0.0,0.0,0.0,0.0,0.0,0.0,0.0,0.0,0.0,0.0,0.0,0.0,0.0,0.0,0.0,0.0,0.0,0.0,0.0,0.0,0.0,0.0,0.0,0.0,0.0,0.0,0.0,0.0,0.0,0.0,0.0,0.0,0.0,0.0,0.0,0.0,0.0,0.0,0.0,0.0,0.0,0.0,0.0,0.0,0.0,0.0,0.0,0.0,0.0,0.0,0.0,0.0,0.0,0.0,0.0,0.0,0.0,0.0,0.0,0.0,0.0,0.0,0.0,0.0,0.0,0.0,0.0,1.5615,1.571,1.5805,1.5961,1.6042,1.609,1.609,1.609,1.6144,1.6293,1.6307,1.6341,1.6415,1.6218,1.5572,1.4159,1.0345,0.7437,0.6034,0.2228,0.0,0.0,0.0,0.0,0.0,0.0,0.0,0.0,0.0,0.0,0.0,0.0,0.0,0.0,0.0,0.0,0.0,0.0,0.0,0.0,0.0,0.0,0.0,0.0,0.0,0.0,0.0,0.0,0.0,0.0,0.0,0.0,0.0,0.0,0.0,0.0,0.0,0.0,0.0,0.0,0.0,0.0,0.0,0.0,0.0,0.0,0.0,0.0,0.0,0.0,0.0,0.0,0.0,0.0,0.0,0.0,0.0,0.0,0.0,0.0,0.0,0.0,0.0,0.0,0.0,0.0,0.0,0.0,0.0,0.0,0.0,0.0,0.0,0.0,0.0,0.0,0.0,0.0,0.0,0.0,0.0,0.0,0.0,0.0,0.0,0.0,0.0,0.0,0.0,0.0,0.0,0.0,0.0,0.0,0.0,0.0,1.609,1.613,1.6171,1.6286,1.6307,1.632,1.6347,1.6354,1.6341,1.6313,1.6408,1.6463,1.6429,1.6218,1.5273,1.3151,0.9945,0.7142,0.4944,0.1833,0.0,0.0,0.0,0.0,0.0,0.0,0.0,0.0,0.0,0.0,0.0,0.0,0.0,0.0,0.0,0.0,0.0,0.0,0.0,0.0,0.0,0.0,0.0,0.0,0.0,0.0,0.0,0.0,0.0,0.0,0.0,0.0,0.0,0.0,0.0,0.0,0.0,0.0,0.0,0.0,0.0,0.0,0.0,0.0,0.0,0.0,0.0,0.0,0.0,0.0,0.0,0.0,0.0,0.0,0.0,0.0,0.0,0.0,0.0,0.0,0.0,0.0,0.0,0.0,0.0,0.0,0.0,0.0,0.0,0.0,0.0,0.0,0.0,0.0,0.0,0.0,0.0,0.0,0.0,0.0,0.0,0.0,0.0,0.0,0.0,0.0,0.0,0.0,0.0,0.0,0.0,0.0,0.0,0.0,0.0,0.0,1.6307,1.6286,1.6293,1.6307,1.6307,1.6354,1.6483,1.6503,1.6456,1.6327,1.632,1.6279,1.6137,1.6096,1.5983,1.5778,1.0949,0.7867,0.7629,0.2859,0.0,0.0,0.0,0.0,0.0,0.0,0.0,0.0,0.0,0.0,0.0,0.0,0.0,0.0,0.0,0.0,0.0,0.0,0.0,0.0,0.0,0.0,0.0,0.0,0.0,0.0,0.0,0.0,0.0,0.0,0.0,0.0,0.0,0.0,0.0,0.0,0.0,0.0,0.0,0.0,0.0,0.0,0.0,0.0,0.0,0.0,0.0,0.0,0.0,0.0,0.0,0.0,0.0,0.0,0.0,0.0,0.0,0.0,0.0,0.0,0.0,0.0,0.0,0.0,0.0,0.0,0.0,0.0,0.0,0.0,0.0,0.0,0.0,0.0,0.0,0.0,0.0,0.0,0.0,0.0,0.0,0.0,0.0,0.0,0.0,0.0,0.0,0.0,0.0,0.0,0.0,0.0,0.0,0.0,0.0,0.0,1.6429,1.6368,1.6334,1.6422,1.6435,1.649,1.6632,1.6578,1.6503,1.6442,1.6361,1.6252,1.6096,1.6164,1.6218,1.6218,1.1295,0.8184,0.8215,0.3002,0.0,0.0,0.0,0.0,0.0,0.0,0.0,0.0,0.0,0.0,0.0,0.0,0.0,0.0,0.0,0.0,0.0,0.0,0.0,0.0,0.0,0.0,0.0,0.0,0.0,0.0,0.0,0.0,0.0,0.0,0.0,0.0,0.0,0.0,0.0,0.0,0.0,0.0,0.0,0.0,0.0,0.0,0.0,0.0,0.0,0.0,0.0,0.0,0.0,0.0,0.0,0.0,0.0,0.0,0.0,0.0,0.0,0.0,0.0,0.0,0.0,0.0,0.0,0.0,0.0,0.0,0.0,0.0,0.0,0.0,0.0,0.0,0.0,0.0,0.0,0.0,0.0,0.0,0.0,0.0,0.0,0.0,0.0,0.0,0.0,0.0,0.0,0.0,0.0,0.0,0.0,0.0,0.0,0.0,0.0,0.0,1.6578,1.651,1.6456,1.651,1.6558,1.6625,1.6734,1.67,1.6639,1.6598,1.6503,1.6368,1.6171,1.6279,1.6374,1.6374,1.1413,0.827,0.829,0.3138,0.0,0.0,0.0,0.0,0.0,0.0,0.0,0.0,0.0,0.0,0.0,0.0,0.0,0.0,0.0,0.0,0.0,0.0,0.0,0.0,0.0,0.0,0.0,0.0,0.0,0.0,0.0,0.0,0.0,0.0,0.0,0.0,0.0,0.0,0.0,0.0,0.0,0.0,0.0,0.0,0.0,0.0,0.0,0.0,0.0,0.0,0.0,0.0,0.0,0.0,0.0,0.0,0.0,0.0,0.0,0.0,0.0,0.0,0.0,0.0,0.0,0.0,0.0,0.0,0.0,0.0,0.0,0.0,0.0,0.0,0.0,0.0,0.0,0.0,0.0,0.0,0.0,0.0,0.0,0.0,0.0,0.0,0.0,0.0,0.0,0.0,0.0,0.0,0.0,0.0,0.0,0.0,0.0,0.0,0.0,0.0,1.6775,1.6748,1.67,1.6544,1.6646,1.6748,1.6748,1.6876,1.6917,1.6768,1.6748,1.6632,1.6341,1.6435,1.6517,1.6517,1.1451,0.829,0.8261,0.3044,0.0,0.0,0.0,0.0,0.0,0.0,0.0,0.0,0.0,0.0,0.0,0.0,0.0,0.0,0.0,0.0,0.0,0.0,0.0,0.0,0.0,0.0,0.0,0.0,0.0,0.0,0.0,0.0,0.0,0.0,0.0,0.0,0.0,0.0,0.0,0.0,0.0,0.0,0.0,0.0,0.0,0.0,0.0,0.0,0.0,0.0,0.0,0.0,0.0,0.0,0.0,0.0,0.0,0.0,0.0,0.0,0.0,0.0,0.0,0.0,0.0,0.0,0.0,0.0,0.0,0.0,0.0,0.0,0.0,0.0,0.0,0.0,0.0,0.0,0.0,0.0,0.0,0.0,0.0,0.0,0.0,0.0,0.0,0.0,0.0,0.0,0.0,0.0,0.0,0.0,0.0,0.0,0.0,0.0,0.0,0.0,1.6761,1.6666,1.6612,1.6666,1.672,1.6788,1.689,1.6863,1.6802,1.6754,1.6748,1.6714,1.6619,1.6653,1.668,1.668,1.1626,0.8423,0.845,0.3177,0.0,0.0,0.0,0.0,0.0,0.0,0.0,0.0,0.0,0.0,0.0,0.0,0.0,0.0,0.0,0.0,0.0,0.0,0.0,0.0,0.0,0.0,0.0,0.0,0.0,0.0,0.0,0.0,0.0,0.0,0.0,0.0,0.0,0.0,0.0,0.0,0.0,0.0,0.0,0.0,0.0,0.0,0.0,0.0,0.0,0.0,0.0,0.0,0.0,0.0,0.0,0.0,0.0,0.0,0.0,0.0,0.0,0.0,0.0,0.0,0.0,0.0,0.0,0.0,0.0,0.0,0.0,0.0,0.0,0.0,0.0,0.0,0.0,0.0,0.0,0.0,0.0,0.0,0.0,0.0,0.0,0.0,0.0,0.0,0.0,0.0,0.0,0.0,0.0,0.0,0.0,0.0,0.0,0.0,0.0,0.0,1.6836,1.6761,1.6727,1.6822,1.6836,1.687,1.6965,1.6897,1.6836,1.6836,1.6836,1.6836,1.6836,1.6836,1.6836,1.6836,1.1734,0.8487,0.8487,0.319,0.0,0.0,0.0,0.0,0.0,0.0,0.0,0.0,0.0,0.0,0.0,0.0,0.0,0.0,0.0,0.0,0.0,0.0,0.0,0.0,0.0,0.0,0.0,0.0,0.0,0.0,0.0,0.0,0.0,0.0,0.0,0.0,0.0,0.0,0.0,0.0,0.0,0.0,0.0,0.0,0.0,0.0,0.0,0.0,0.0,0.0,0.0,0.0,0.0,0.0,0.0,0.0,0.0,0.0,0.0,0.0,0.0,0.0,0.0,0.0,0.0,0.0,0.0,0.0,0.0,0.0,0.0,0.0,0.0,0.0,0.0,0.0,0.0,0.0,0.0,0.0,0.0,0.0,0.0,0.0,0.0,0.0,0.0,0.0,0.0,0.0,0.0,0.0,0.0,0.0,0.0,0.0,0.0,0.0,0.0,0.0,1.6978,1.6978,1.6978,1.6978,1.6978,1.6978,1.6978,1.6978,1.6978,1.6978,1.6978,1.6978,1.6978,1.6978,1.6978,1.6978,1.1772,0.8487,0.8487,0.319,0.0,0.0,0.0,0.0,0.0,0.0,0.0,0.0,0.0,0.0,0.0,0.0,0.0,0.0,0.0,0.0,0.0,0.0,0.0,0.0,0.0,0.0,0.0,0.0,0.0,0.0,0.0,0.0,0.0,0.0,0.0,0.0,0.0,0.0,0.0,0.0,0.0,0.0,0.0,0.0,0.0,0.0,0.0,0.0,0.0,0.0,0.0,0.0,0.0,0.0,0.0,0.0,0.0,0.0,0.0,0.0,0.0,0.0,0.0,0.0,0.0,0.0,0.0,0.0,0.0,0.0,0.0,0.0,0.0,0.0,0.0,0.0,0.0,0.0,0.0,0.0,0.0,0.0,0.0,0.0,0.0,0.0,0.0,0.0,0.0,0.0,0.0,0.0,0.0,0.0,0.0,0.0,0.0,0.0,0.0,0.0,1.6978,1.6978,1.6978,1.6978,1.6978,1.6978,1.6978,1.6978,1.6978,1.6978,1.6978,1.6978,1.6978,1.6978,1.6978,1.6978,1.1772,0.8487,0.8487,0.319,0.0,0.0,0.0,0.0,0.0,0.0,0.0,0.0,0.0,0.0,0.0,0.0,0.0,0.0,0.0,0.0,0.0,0.0,0.0,0.0,0.0,0.0,0.0,0.0,0.0,0.0,0.0,0.0,0.0,0.0,0.0,0.0,0.0,0.0,0.0,0.0,0.0,0.0,0.0,0.0,0.0,0.0,0.0,0.0,0.0,0.0,0.0,0.0,0.0,0.0,0.0,0.0,0.0,0.0,0.0,0.0,0.0,0.0,0.0,0.0,0.0,0.0,0.0,0.0,0.0,0.0,0.0,0.0,0.0,0.0,0.0,0.0,0.0,0.0,0.0,0.0,0.0,0.0,0.0,0.0,0.0,0.0,0.0,0.0,0.0,0.0,0.0,0.0,0.0,0.0,0.0,0.0,0.0,0.0,0.0,0.0,1.6978,1.6978,1.6978,1.6978,1.6978,1.6978,1.6978,1.6978,1.6978,1.6978,1.6978,1.6978,1.6978,1.6978,1.6978,1.6978,1.1772,0.8487,0.8487,0.319,0.0,0.0,0.0,0.0,0.0,0.0,0.0,0.0,0.0,0.0,0.0,0.0,0.0,0.0,0.0,0.0,0.0,0.0,0.0,0.0,0.0,0.0,0.0,0.0,0.0,0.0,0.0,0.0,0.0,0.0,0.0,0.0,0.0,0.0,0.0,0.0,0.0,0.0,0.0,0.0,0.0,0.0,0.0,0.0,0.0,0.0,0.0,0.0,0.0,0.0,0.0,0.0,0.0,0.0,0.0,0.0,0.0,0.0,0.0,0.0,0.0,0.0,0.0,0.0,0.0,0.0,0.0,0.0,0.0,0.0,0.0,0.0,0.0,0.0,0.0,0.0,0.0,0.0,0.0,0.0,0.0,0.0,0.0,0.0,0.0,0.0,0.0,0.0,0.0,0.0,0.0,0.0,0.0,0.0,0.0,0.0,1.6978,1.6978,1.6978,1.6978,1.6978,1.6978,1.6978,1.6978,1.6978,1.6978,1.6978,1.6978,1.6978,1.6656,1.6551,1.6978,1.1345,0.8064,0.8487,0.319,0.0,0.0,0.0,0.0,0.0,0.0,0.0,0.0,0.0,0.0,0.0,0.0,0.0,0.0,0.0,0.0,0.0,0.0,0.0,0.0,0.0,0.0,0.0,0.0,0.0,0.0,0.0,0.0,0.0,0.0,0.0,0.0,0.0,0.0,0.0,0.0,0.0,0.0,0.0,0.0,0.0,0.0,0.0,0.0,0.0,0.0,0.0,0.0,0.0,0.0,0.0,0.0,0.0,0.0,0.0,0.0,0.0,0.0,0.0,0.0,0.0,0.0,0.0,0.0,0.0,0.0,0.0,0.0,0.0,0.0,0.0,0.0,0.0,0.0,0.0,0.0,0.0,0.0,0.0,0.0,0.0,0.0,0.0,0.0,0.0,0.0,0.0,0.0,0.0,0.0,0.0,0.0,0.0,0.0,0.0,0.0,1.6978,1.6978,1.6978,1.6978,1.6978,1.6978,1.6978,1.6978,1.6978,1.6978,1.6978,1.6978,1.6978,1.4844,1.4312,1.6768,0.9549,0.5947,0.8382,0.319,0.0,0.0,0.0,0.0,0.0,0.0,0.0,0.0,0.0,0.0,0.0,0.0,0.0,0.0,0.0,0.0,0.0,0.0,0.0,0.0,0.0,0.0,0.0,0.0,0.0,0.0,0.0,0.0,0.0,0.0,0.0,0.0,0.0,0.0,0.0,0.0,0.0,0.0,0.0,0.0,0.0,0.0,0.0,0.0,0.0,0.0,0.0,0.0,0.0,0.0,0.0,0.0,0.0,0.0,0.0,0.0,0.0,0.0,0.0,0.0,0.0,0.0,0.0,0.0,0.0,0.0,0.0,0.0,0.0,0.0,0.0,0.0,0.0,0.0,0.0,0.0,0.0,0.0,0.0,0.0,0.0,0.0,0.0,0.0,0.0,0.0,0.0,0.0,0.0,0.0,0.0,0.0,0.0,0.0,0.0,0.0,1.6978,1.6978,1.6978,1.6978,1.6978,1.6978,1.6978,1.6978,1.6978,1.6978,1.6978,1.6978,1.6978,1.4417,1.3248,1.4528,0.8276,0.4782,0.6054,0.2341,0.0,0.0,0.0,0.0,0.0,0.0,0.0,0.0,0.0,0.0,0.0,0.0,0.0,0.0,0.0,0.0,0.0,0.0,0.0,0.0,0.0,0.0,0.0,0.0,0.0,0.0,0.0,0.0,0.0,0.0,0.0,0.0,0.0,0.0,0.0,0.0,0.0,0.0,0.0,0.0,0.0,0.0,0.0,0.0,0.0,0.0,0.0,0.0,0.0,0.0,0.0,0.0,0.0,0.0,0.0,0.0,0.0,0.0,0.0,0.0,0.0,0.0,0.0,0.0,0.0,0.0,0.0,0.0,0.0,0.0,0.0,0.0,0.0,0.0,0.0,0.0,0.0,0.0,0.0,0.0,0.0,0.0,0.0,0.0,0.0,0.0,0.0,0.0,0.0,0.0,0.0,0.0,0.0,0.0,0.0,0.0,1.6978,1.6978,1.6978,1.6978,1.6978,1.6978,1.6978,1.6978,1.6978,1.6978,1.6978,1.6978,1.6978,1.3891,1.1978,1.2611,0.6899,0.3513,0.4158,0.1598,0.0,0.0,0.0,0.0,0.0,0.0,0.0,0.0,0.0,0.0,0.0,0.0,0.0,0.0,0.0,0.0,0.0,0.0,0.0,0.0,0.0,0.0,0.0,0.0,0.0,0.0,0.0,0.0,0.0,0.0,0.0,0.0,0.0,0.0,0.0,0.0,0.0,0.0,0.0,0.0,0.0,0.0,0.0,0.0,0.0,0.0,0.0,0.0,0.0,0.0,0.0,0.0,0.0,0.0,0.0,0.0,0.0,0.0,0.0,0.0,0.0,0.0,0.0,0.0,0.0,0.0,0.0,0.0,0.0,0.0,0.0,0.0,0.0,0.0,0.0,0.0,0.0,0.0,0.0,0.0,0.0,0.0,0.0,0.0,0.0,0.0,0.0,0.0,0.0,0.0,0.0,0.0,0.0,0.0,0.0,0.0,1.6978,1.6978,1.6978,1.6978,1.6978,1.6978,1.6978,1.6978,1.6978,1.6978,1.6978,1.6978,1.6978,1.2088,0.9862,1.2505,0.5097,0.1389,0.398,0.1604,0.0,0.0,0.0,0.0,0.0,0.0,0.0,0.0,0.0,0.0,0.0,0.0,0.0,0.0,0.0,0.0,0.0,0.0,0.0,0.0,0.0,0.0,0.0,0.0,0.0,0.0,0.0,0.0,0.0,0.0,0.0,0.0,0.0,0.0,0.0,0.0,0.0,0.0,0.0,0.0,0.0,0.0,0.0,0.0,0.0,0.0,0.0,0.0,0.0,0.0,0.0,0.0,0.0,0.0,0.0,0.0,0.0,0.0,0.0,0.0,0.0,0.0,0.0,0.0,0.0,0.0,0.0,0.0,0.0,0.0,0.0,0.0,0.0,0.0,0.0,0.0,0.0,0.0,0.0,0.0,0.0,0.0,0.0,0.0,0.0,0.0,0.0,0.0,0.0,0.0,0.0,0.0,0.0,0.0,0.0,0.0,1.6978,1.6978,1.6978,1.6978,1.6978,1.6978,1.6978,1.6978,1.6978,1.6978,1.5487,1.4312,1.4312,0.9228,0.6266,0.7323,0.2886,0.043,0.151,0.0646,0.0,0.0,0.0,0.0,0.0,0.0,0.0,0.0,0.0,0.0,0.0,0.0,0.0,0.0,0.0,0.0,0.0,0.0,0.0,0.0,0.0,0.0,0.0,0.0,0.0,0.0,0.0,0.0,0.0,0.0,0.0,0.0,0.0,0.0,0.0,0.0,0.0,0.0,0.0,0.0,0.0,0.0,0.0,0.0,0.0,0.0,0.0,0.0,0.0,0.0,0.0,0.0,0.0,0.0,0.0,0.0,0.0,0.0,0.0,0.0,0.0,0.0,0.0,0.0,0.0,0.0,0.0,0.0,0.0,0.0,0.0,0.0,0.0,0.0,0.0,0.0,0.0,0.0,0.0,0.0,0.0,0.0,0.0,0.0,0.0,0.0,0.0,0.0,0.0,0.0,0.0,0.0,0.0,0.0,0.0,0.0,1.6978,1.6978,1.6978,1.6978,1.6978,1.6978,1.6978,1.6978,1.6978,1.6978,1.4528,1.2716,1.2716,0.7641,0.4152,0.4162,0.1613,0.0,0.0,0.0,0.0,0.0,0.0,0.0,0.0,0.0,0.0,0.0,0.0,0.0,0.0,0.0,0.0,0.0,0.0,0.0,0.0,0.0,0.0,0.0,0.0,0.0,0.0,0.0,0.0,0.0,0.0,0.0,0.0,0.0,0.0,0.0,0.0,0.0,0.0,0.0,0.0,0.0,0.0,0.0,0.0,0.0,0.0,0.0,0.0,0.0,0.0,0.0,0.0,0.0,0.0,0.0,0.0,0.0,0.0,0.0,0.0,0.0,0.0,0.0,0.0,0.0,0.0,0.0,0.0,0.0,0.0,0.0,0.0,0.0,0.0,0.0,0.0,0.0,0.0,0.0,0.0,0.0,0.0,0.0,0.0,0.0,0.0,0.0,0.0,0.0,0.0,0.0,0.0,0.0,0.0,0.0,0.0,0.0,0.0,0.0,1.6978,1.6978,1.6978,1.6978,1.6978,1.6978,1.6978,1.6978,1.6978,1.6978,1.4417,1.2611,1.2616,0.7535,0.4162,0.4198,0.1618,0.0,0.0,0.0,0.0,0.0,0.0,0.0,0.0,0.0,0.0,0.0,0.0,0.0,0.0,0.0,0.0,0.0,0.0,0.0,0.0,0.0,0.0,0.0,0.0,0.0,0.0,0.0,0.0,0.0,0.0,0.0,0.0,0.0,0.0,0.0,0.0,0.0,0.0,0.0,0.0,0.0,0.0,0.0,0.0,0.0,0.0,0.0,0.0,0.0,0.0,0.0,0.0,0.0,0.0,0.0,0.0,0.0,0.0,0.0,0.0,0.0,0.0,0.0,0.0,0.0,0.0,0.0,0.0,0.0,0.0,0.0,0.0,0.0,0.0,0.0,0.0,0.0,0.0,0.0,0.0,0.0,0.0,0.0,0.0,0.0,0.0,0.0,0.0,0.0,0.0,0.0,0.0,0.0,0.0,0.0,0.0,0.0,0.0,0.0,1.6978,1.6978,1.6978,1.6978,1.6978,1.6978,1.6978,1.6978,1.6229,1.4207,1.151,0.8993,0.6963,0.3453,0.1303,0.1306,0.0438,0.0,0.0,0.0,0.0,0.0,0.0,0.0,0.0,0.0,0.0,0.0,0.0,0.0,0.0,0.0,0.0,0.0,0.0,0.0,0.0,0.0,0.0,0.0,0.0,0.0,0.0,0.0,0.0,0.0,0.0,0.0,0.0,0.0,0.0,0.0,0.0,0.0,0.0,0.0,0.0,0.0,0.0,0.0,0.0,0.0,0.0,0.0,0.0,0.0,0.0,0.0,0.0,0.0,0.0,0.0,0.0,0.0,0.0,0.0,0.0,0.0,0.0,0.0,0.0,0.0,0.0,0.0,0.0,0.0,0.0,0.0,0.0,0.0,0.0,0.0,0.0,0.0,0.0,0.0,0.0,0.0,0.0,0.0,0.0,0.0,0.0,0.0,0.0,0.0,0.0,0.0,0.0,0.0,0.0,0.0,0.0,0.0,0.0,0.0,1.368,1.4528,1.5271,1.5271,1.5271,1.5271,1.5271,1.4318,1.3043,1.1235,0.8552,0.6134,0.4417,0.174,0.0,0.0,0.0,0.0,0.0,0.0,0.0,0.0,0.0,0.0,0.0,0.0,0.0,0.0,0.0,0.0,0.0,0.0,0.0,0.0,0.0,0.0,0.0,0.0,0.0,0.0,0.0,0.0,0.0,0.0,0.0,0.0,0.0,0.0,0.0,0.0,0.0,0.0,0.0,0.0,0.0,0.0,0.0,0.0,0.0,0.0,0.0,0.0,0.0,0.0,0.0,0.0,0.0,0.0,0.0,0.0,0.0,0.0,0.0,0.0,0.0,0.0,0.0,0.0,0.0,0.0,0.0,0.0,0.0,0.0,0.0,0.0,0.0,0.0,0.0,0.0,0.0,0.0,0.0,0.0,0.0,0.0,0.0,0.0,0.0,0.0,0.0,0.0,0.0,0.0,0.0,0.0,0.0,0.0,0.0,0.0,0.0,0.0,0.0,0.0,0.0,0.0,0.8487,1.0602,1.2295,1.2295,1.2295,1.2295,1.2295,1.0179,0.8385,0.818,0.5786,0.41,0.3888,0.1526,0.0,0.0,0.0,0.0,0.0,0.0,0.0,0.0,0.0,0.0,0.0,0.0,0.0,0.0,0.0,0.0,0.0,0.0,0.0,0.0,0.0,0.0,0.0,0.0,0.0,0.0,0.0,0.0,0.0,0.0,0.0,0.0,0.0,0.0,0.0,0.0,0.0,0.0,0.0,0.0,0.0,0.0,0.0,0.0,0.0,0.0,0.0,0.0,0.0,0.0,0.0,0.0,0.0,0.0,0.0,0.0,0.0,0.0,0.0,0.0,0.0,0.0,0.0,0.0,0.0,0.0,0.0,0.0,0.0,0.0,0.0,0.0,0.0,0.0,0.0,0.0,0.0,0.0,0.0,0.0,0.0,0.0,0.0,0.0,0.0,0.0,0.0,0.0,0.0,0.0,0.0,0.0,0.0,0.0,0.0,0.0,0.0,0.0,0.0,0.0,0.0,0.0,0.8487,0.9016,0.9439,0.9439,0.9439,0.9439,0.9439,0.8911,0.7659,0.5469,0.4544,0.3382,0.1101,0.0333,0.0,0.0,0.0,0.0,0.0,0.0,0.0,0.0,0.0,0.0,0.0,0.0,0.0,0.0,0.0,0.0,0.0,0.0,0.0,0.0,0.0,0.0,0.0,0.0,0.0,0.0,0.0,0.0,0.0,0.0,0.0,0.0,0.0,0.0,0.0,0.0,0.0,0.0,0.0,0.0,0.0,0.0,0.0,0.0,0.0,0.0,0.0,0.0,0.0,0.0,0.0,0.0,0.0,0.0,0.0,0.0,0.0,0.0,0.0,0.0,0.0,0.0,0.0,0.0,0.0,0.0,0.0,0.0,0.0,0.0,0.0,0.0,0.0,0.0,0.0,0.0,0.0,0.0,0.0,0.0,0.0,0.0,0.0,0.0,0.0,0.0,0.0,0.0,0.0,0.0,0.0,0.0,0.0,0.0,0.0,0.0,0.0,0.0,0.0,0.0,0.0,0.0,0.4462,0.5523,0.6478,0.6478,0.6478,0.6478,0.6478,0.5311,0.3939,0.2356,0.2167,0.1641,0.011,0.0,0.0,0.0,0.0,0.0,0.0,0.0,0.0,0.0,0.0,0.0,0.0,0.0,0.0,0.0,0.0,0.0,0.0,0.0,0.0,0.0,0.0,0.0,0.0,0.0,0.0,0.0,0.0,0.0,0.0,0.0,0.0,0.0,0.0,0.0,0.0,0.0,0.0,0.0,0.0,0.0,0.0,0.0,0.0,0.0,0.0,0.0,0.0,0.0,0.0,0.0,0.0,0.0,0.0,0.0,0.0,0.0,0.0,0.0,0.0,0.0,0.0,0.0,0.0,0.0,0.0,0.0,0.0,0.0,0.0,0.0,0.0,0.0,0.0,0.0,0.0,0.0,0.0,0.0,0.0,0.0,0.0,0.0,0.0,0.0,0.0,0.0,0.0,0.0,0.0,0.0,0.0,0.0,0.0,0.0,0.0,0.0,0.0,0.0,0.0,0.0,0.0,0.0,0.0,0.1916,0.3509,0.3509,0.3509,0.3509,0.3509,0.1491,0.0,0.0,0.0,0.0,0.0,0.0,0.0,0.0,0.0,0.0,0.0,0.0,0.0,0.0,0.0,0.0,0.0,0.0,0.0,0.0,0.0,0.0,0.0,0.0,0.0,0.0,0.0,0.0,0.0,0.0,0.0,0.0,0.0,0.0,0.0,0.0,0.0,0.0,0.0,0.0,0.0,0.0,0.0,0.0,0.0,0.0,0.0,0.0,0.0,0.0,0.0,0.0,0.0,0.0,0.0,0.0,0.0,0.0,0.0,0.0,0.0,0.0,0.0,0.0,0.0,0.0,0.0,0.0,0.0,0.0,0.0,0.0,0.0,0.0,0.0,0.0,0.0,0.0,0.0,0.0,0.0,0.0,0.0,0.0,0.0,0.0,0.0,0.0,0.0,0.0,0.0,0.0,0.0,0.0,0.0,0.0,0.0,0.0,0.0,0.0,0.0,0.0,0.0,0.0,0.0,0.0,0.0,0.0,0.0,0.032,0.0533,0.0533,0.0533,0.0533,0.0533,0.0213,0.0,0.0,0.0,0.0,0.0,0.0,0.0,0.0,0.0,0.0,0.0,0.0,0.0,0.0,0.0,0.0,0.0,0.0,0.0,0.0,0.0,0.0,0.0,0.0,0.0,0.0,0.0,0.0,0.0,0.0,0.0,0.0,0.0,0.0,0.0,0.0,0.0,0.0,0.0,0.0,0.0,0.0,0.0,0.0,0.0,0.0,0.0,0.0,0.0,0.0,0.0,0.0,0.0,0.0,0.0,0.0,0.0,0.0,0.0,0.0,0.0,0.0,0.0,0.0,0.0,0.0,0.0,0.0,0.0,0.0,0.0,0.0,0.0,0.0,0.0,0.0,0.0,0.0,0.0,0.0,0.0,0.0,0.0,0.0,0.0,0.0,0.0,0.0,0.0,0.0,0.0,0.0,0.0,0.0,0.0,0.0,0.0,0.0,0.0,0.0,0.0,0.0,0.0,0.0,0.0,0.0,0.0,0.0,0.0,0.0,0.0,0.0,0.0,0.0,0.0,0.0,0.0,0.0,0.0,0.0,0.0,0.0,0.0,0.0,0.0,0.0,0.0,0.0,0.0,0.0,0.0,0.0,0.0,0.0,0.0,0.0,0.0,0.0,0.0,0.0,0.0,0.0,0.0,0.0,0.0,0.0,0.0,0.0,0.0,0.0,0.0,0.0,0.0,0.0,0.0,0.0,0.0,0.0,0.0,0.0,0.0,0.0,0.0,0.0,0.0,0.0,0.0,0.0,0.0,0.0,0.0,0.0,0.0,0.0,0.0,0.0,0.0,0.0,0.0,0.0,0.0,0.0,0.0,0.0,0.0,0.0,0.0,0.0,0.0,0.0,0.0,0.0,0.0,0.0,0.0,0.0,0.0,0.0,0.0,0.0,0.0,0.0,0.0,0.0,0.0,0.0,0.0,0.0,0.0,0.0,0.0,0.0,0.0,0.0,0.0,0.0,0.0,0.0,0.0,0.0,0.0,0.0,0.0,0.0]}]]